<?xml version="1.0" encoding="UTF-8" standalone="no" ?>
<gpx xmlns="http://www.topografix.com/GPX/1/1" xmlns:xsi="http://www.w3.org/2001/XMLSchema-instance" xsi:schemaLocation="http://www.topografix.com/GPX/1/1 http://www.topografix.com/GPX/1/1/gpx.xsd" version="1.1" creator="VisuGPX - https://www.visugpx.com">
  <metadata>
    <name>vallée   coche de la maison</name>
    <desc><![CDATA[Vallée   coche de la maison
]]></desc>
  </metadata>
  <trk>
    <name><![CDATA[01-MAI-13 13:19:43]]></name>
    <trkseg>
      <trkpt lat="45.52316" lon="5.90832">
        <ele>707.67</ele>
        <time>2013-05-01T08:13:35Z</time>
      </trkpt>
      <trkpt lat="45.52315" lon="5.90831">
        <ele>707.67</ele>
        <time>2013-05-01T08:13:36Z</time>
      </trkpt>
      <trkpt lat="45.52317" lon="5.90826">
        <ele>709.11</ele>
        <time>2013-05-01T08:13:44Z</time>
      </trkpt>
      <trkpt lat="45.52319" lon="5.90824">
        <ele>712.47</ele>
        <time>2013-05-01T08:13:53Z</time>
      </trkpt>
      <trkpt lat="45.52321" lon="5.90831">
        <ele>712.95</ele>
        <time>2013-05-01T08:13:57Z</time>
      </trkpt>
      <trkpt lat="45.52332" lon="5.90863">
        <ele>711.99</ele>
        <time>2013-05-01T08:14:09Z</time>
      </trkpt>
      <trkpt lat="45.52347" lon="5.90883">
        <ele>708.63</ele>
        <time>2013-05-01T08:14:20Z</time>
      </trkpt>
      <trkpt lat="45.52362" lon="5.90908">
        <ele>705.75</ele>
        <time>2013-05-01T08:14:30Z</time>
      </trkpt>
      <trkpt lat="45.52367" lon="5.90923">
        <ele>703.82</ele>
        <time>2013-05-01T08:14:34Z</time>
      </trkpt>
      <trkpt lat="45.52377" lon="5.90942">
        <ele>700.46</ele>
        <time>2013-05-01T08:14:39Z</time>
      </trkpt>
      <trkpt lat="45.52383" lon="5.90963">
        <ele>697.57</ele>
        <time>2013-05-01T08:14:44Z</time>
      </trkpt>
      <trkpt lat="45.52385" lon="5.90967">
        <ele>697.09</ele>
        <time>2013-05-01T08:14:45Z</time>
      </trkpt>
      <trkpt lat="45.52395" lon="5.90979">
        <ele>693.25</ele>
        <time>2013-05-01T08:14:50Z</time>
      </trkpt>
      <trkpt lat="45.52406" lon="5.90987">
        <ele>689.88</ele>
        <time>2013-05-01T08:14:54Z</time>
      </trkpt>
      <trkpt lat="45.52425" lon="5.91002">
        <ele>687</ele>
        <time>2013-05-01T08:14:59Z</time>
      </trkpt>
      <trkpt lat="45.5245" lon="5.91012">
        <ele>683.63</ele>
        <time>2013-05-01T08:15:05Z</time>
      </trkpt>
      <trkpt lat="45.52463" lon="5.91012">
        <ele>680.75</ele>
        <time>2013-05-01T08:15:09Z</time>
      </trkpt>
      <trkpt lat="45.52482" lon="5.91013">
        <ele>676.91</ele>
        <time>2013-05-01T08:15:14Z</time>
      </trkpt>
      <trkpt lat="45.52494" lon="5.91013">
        <ele>674.5</ele>
        <time>2013-05-01T08:15:17Z</time>
      </trkpt>
      <trkpt lat="45.52506" lon="5.91013">
        <ele>671.62</ele>
        <time>2013-05-01T08:15:20Z</time>
      </trkpt>
      <trkpt lat="45.52519" lon="5.91022">
        <ele>668.25</ele>
        <time>2013-05-01T08:15:25Z</time>
      </trkpt>
      <trkpt lat="45.52527" lon="5.9104">
        <ele>664.89</ele>
        <time>2013-05-01T08:15:30Z</time>
      </trkpt>
      <trkpt lat="45.52529" lon="5.91045">
        <ele>664.41</ele>
        <time>2013-05-01T08:15:31Z</time>
      </trkpt>
      <trkpt lat="45.5254" lon="5.91061">
        <ele>662.01</ele>
        <time>2013-05-01T08:15:36Z</time>
      </trkpt>
      <trkpt lat="45.5256" lon="5.91045">
        <ele>658.64</ele>
        <time>2013-05-01T08:15:45Z</time>
      </trkpt>
      <trkpt lat="45.52565" lon="5.91034">
        <ele>657.68</ele>
        <time>2013-05-01T08:15:47Z</time>
      </trkpt>
      <trkpt lat="45.52581" lon="5.91015">
        <ele>655.76</ele>
        <time>2013-05-01T08:15:51Z</time>
      </trkpt>
      <trkpt lat="45.52587" lon="5.9101">
        <ele>654.8</ele>
        <time>2013-05-01T08:15:52Z</time>
      </trkpt>
      <trkpt lat="45.52594" lon="5.91006">
        <ele>654.31</ele>
        <time>2013-05-01T08:15:53Z</time>
      </trkpt>
      <trkpt lat="45.52631" lon="5.90989">
        <ele>652.87</ele>
        <time>2013-05-01T08:15:57Z</time>
      </trkpt>
      <trkpt lat="45.52671" lon="5.90972">
        <ele>648.55</ele>
        <time>2013-05-01T08:16:01Z</time>
      </trkpt>
      <trkpt lat="45.52697" lon="5.90959">
        <ele>645.66</ele>
        <time>2013-05-01T08:16:04Z</time>
      </trkpt>
      <trkpt lat="45.52724" lon="5.90946">
        <ele>642.3</ele>
        <time>2013-05-01T08:16:09Z</time>
      </trkpt>
      <trkpt lat="45.52728" lon="5.90948">
        <ele>641.34</ele>
        <time>2013-05-01T08:16:10Z</time>
      </trkpt>
      <trkpt lat="45.52729" lon="5.90953">
        <ele>640.86</ele>
        <time>2013-05-01T08:16:11Z</time>
      </trkpt>
      <trkpt lat="45.52729" lon="5.90958">
        <ele>639.89</ele>
        <time>2013-05-01T08:16:12Z</time>
      </trkpt>
      <trkpt lat="45.52729" lon="5.90964">
        <ele>638.93</ele>
        <time>2013-05-01T08:16:13Z</time>
      </trkpt>
      <trkpt lat="45.52729" lon="5.90978">
        <ele>637.01</ele>
        <time>2013-05-01T08:16:15Z</time>
      </trkpt>
      <trkpt lat="45.52729" lon="5.90985">
        <ele>636.05</ele>
        <time>2013-05-01T08:16:16Z</time>
      </trkpt>
      <trkpt lat="45.52731" lon="5.91013">
        <ele>632.68</ele>
        <time>2013-05-01T08:16:20Z</time>
      </trkpt>
      <trkpt lat="45.52733" lon="5.91041">
        <ele>629.32</ele>
        <time>2013-05-01T08:16:24Z</time>
      </trkpt>
      <trkpt lat="45.52734" lon="5.91074">
        <ele>626.44</ele>
        <time>2013-05-01T08:16:28Z</time>
      </trkpt>
      <trkpt lat="45.52735" lon="5.91082">
        <ele>625.47</ele>
        <time>2013-05-01T08:16:29Z</time>
      </trkpt>
      <trkpt lat="45.52737" lon="5.91091">
        <ele>624.51</ele>
        <time>2013-05-01T08:16:30Z</time>
      </trkpt>
      <trkpt lat="45.52739" lon="5.91099">
        <ele>624.03</ele>
        <time>2013-05-01T08:16:31Z</time>
      </trkpt>
      <trkpt lat="45.52747" lon="5.91123">
        <ele>621.63</ele>
        <time>2013-05-01T08:16:34Z</time>
      </trkpt>
      <trkpt lat="45.52751" lon="5.9113">
        <ele>620.67</ele>
        <time>2013-05-01T08:16:35Z</time>
      </trkpt>
      <trkpt lat="45.52755" lon="5.91137">
        <ele>619.71</ele>
        <time>2013-05-01T08:16:36Z</time>
      </trkpt>
      <trkpt lat="45.52761" lon="5.91143">
        <ele>618.75</ele>
        <time>2013-05-01T08:16:37Z</time>
      </trkpt>
      <trkpt lat="45.52768" lon="5.91148">
        <ele>617.78</ele>
        <time>2013-05-01T08:16:38Z</time>
      </trkpt>
      <trkpt lat="45.52775" lon="5.91152">
        <ele>616.34</ele>
        <time>2013-05-01T08:16:39Z</time>
      </trkpt>
      <trkpt lat="45.52782" lon="5.91155">
        <ele>614.9</ele>
        <time>2013-05-01T08:16:40Z</time>
      </trkpt>
      <trkpt lat="45.5279" lon="5.91159">
        <ele>612.98</ele>
        <time>2013-05-01T08:16:41Z</time>
      </trkpt>
      <trkpt lat="45.52815" lon="5.91168">
        <ele>609.13</ele>
        <time>2013-05-01T08:16:44Z</time>
      </trkpt>
      <trkpt lat="45.5284" lon="5.91179">
        <ele>604.33</ele>
        <time>2013-05-01T08:16:47Z</time>
      </trkpt>
      <trkpt lat="45.52869" lon="5.91189">
        <ele>600</ele>
        <time>2013-05-01T08:16:50Z</time>
      </trkpt>
      <trkpt lat="45.5289" lon="5.91195">
        <ele>596.64</ele>
        <time>2013-05-01T08:16:52Z</time>
      </trkpt>
      <trkpt lat="45.52922" lon="5.91202">
        <ele>592.31</ele>
        <time>2013-05-01T08:16:55Z</time>
      </trkpt>
      <trkpt lat="45.52963" lon="5.91211">
        <ele>588.95</ele>
        <time>2013-05-01T08:16:59Z</time>
      </trkpt>
      <trkpt lat="45.52989" lon="5.91214">
        <ele>587.02</ele>
        <time>2013-05-01T08:17:02Z</time>
      </trkpt>
      <trkpt lat="45.53013" lon="5.91222">
        <ele>584.14</ele>
        <time>2013-05-01T08:17:05Z</time>
      </trkpt>
      <trkpt lat="45.53033" lon="5.91233">
        <ele>580.29</ele>
        <time>2013-05-01T08:17:08Z</time>
      </trkpt>
      <trkpt lat="45.53049" lon="5.91245">
        <ele>577.41</ele>
        <time>2013-05-01T08:17:11Z</time>
      </trkpt>
      <trkpt lat="45.53052" lon="5.91249">
        <ele>577.89</ele>
        <time>2013-05-01T08:17:12Z</time>
      </trkpt>
      <trkpt lat="45.53058" lon="5.91259">
        <ele>576.93</ele>
        <time>2013-05-01T08:17:14Z</time>
      </trkpt>
      <trkpt lat="45.53062" lon="5.91263">
        <ele>576.93</ele>
        <time>2013-05-01T08:17:15Z</time>
      </trkpt>
      <trkpt lat="45.53067" lon="5.91266">
        <ele>576.93</ele>
        <time>2013-05-01T08:17:16Z</time>
      </trkpt>
      <trkpt lat="45.53086" lon="5.91275">
        <ele>575.49</ele>
        <time>2013-05-01T08:17:19Z</time>
      </trkpt>
      <trkpt lat="45.53092" lon="5.91281">
        <ele>574.53</ele>
        <time>2013-05-01T08:17:20Z</time>
      </trkpt>
      <trkpt lat="45.53098" lon="5.91287">
        <ele>574.53</ele>
        <time>2013-05-01T08:17:21Z</time>
      </trkpt>
      <trkpt lat="45.53103" lon="5.91294">
        <ele>574.53</ele>
        <time>2013-05-01T08:17:22Z</time>
      </trkpt>
      <trkpt lat="45.53108" lon="5.91302">
        <ele>574.04</ele>
        <time>2013-05-01T08:17:23Z</time>
      </trkpt>
      <trkpt lat="45.53113" lon="5.9131">
        <ele>573.56</ele>
        <time>2013-05-01T08:17:24Z</time>
      </trkpt>
      <trkpt lat="45.53117" lon="5.91318">
        <ele>573.56</ele>
        <time>2013-05-01T08:17:25Z</time>
      </trkpt>
      <trkpt lat="45.5312" lon="5.91327">
        <ele>573.56</ele>
        <time>2013-05-01T08:17:26Z</time>
      </trkpt>
      <trkpt lat="45.53123" lon="5.91336">
        <ele>573.56</ele>
        <time>2013-05-01T08:17:27Z</time>
      </trkpt>
      <trkpt lat="45.53139" lon="5.9137">
        <ele>573.08</ele>
        <time>2013-05-01T08:17:31Z</time>
      </trkpt>
      <trkpt lat="45.53144" lon="5.91377">
        <ele>573.56</ele>
        <time>2013-05-01T08:17:32Z</time>
      </trkpt>
      <trkpt lat="45.53149" lon="5.91384">
        <ele>573.08</ele>
        <time>2013-05-01T08:17:33Z</time>
      </trkpt>
      <trkpt lat="45.53239" lon="5.91438">
        <ele>571.16</ele>
        <time>2013-05-01T08:17:46Z</time>
      </trkpt>
      <trkpt lat="45.53246" lon="5.91443">
        <ele>570.2</ele>
        <time>2013-05-01T08:17:47Z</time>
      </trkpt>
      <trkpt lat="45.53252" lon="5.9145">
        <ele>570.2</ele>
        <time>2013-05-01T08:17:48Z</time>
      </trkpt>
      <trkpt lat="45.53258" lon="5.91459">
        <ele>570.2</ele>
        <time>2013-05-01T08:17:49Z</time>
      </trkpt>
      <trkpt lat="45.53262" lon="5.91468">
        <ele>569.72</ele>
        <time>2013-05-01T08:17:50Z</time>
      </trkpt>
      <trkpt lat="45.53267" lon="5.91478">
        <ele>569.72</ele>
        <time>2013-05-01T08:17:51Z</time>
      </trkpt>
      <trkpt lat="45.53276" lon="5.91496">
        <ele>569.72</ele>
        <time>2013-05-01T08:17:53Z</time>
      </trkpt>
      <trkpt lat="45.53283" lon="5.91503">
        <ele>569.24</ele>
        <time>2013-05-01T08:17:54Z</time>
      </trkpt>
      <trkpt lat="45.53289" lon="5.91509">
        <ele>568.76</ele>
        <time>2013-05-01T08:17:55Z</time>
      </trkpt>
      <trkpt lat="45.53297" lon="5.91513">
        <ele>568.76</ele>
        <time>2013-05-01T08:17:56Z</time>
      </trkpt>
      <trkpt lat="45.53304" lon="5.91516">
        <ele>568.76</ele>
        <time>2013-05-01T08:17:57Z</time>
      </trkpt>
      <trkpt lat="45.53313" lon="5.91519">
        <ele>567.8</ele>
        <time>2013-05-01T08:17:58Z</time>
      </trkpt>
      <trkpt lat="45.53349" lon="5.91532">
        <ele>564.43</ele>
        <time>2013-05-01T08:18:02Z</time>
      </trkpt>
      <trkpt lat="45.53379" lon="5.91542">
        <ele>561.55</ele>
        <time>2013-05-01T08:18:05Z</time>
      </trkpt>
      <trkpt lat="45.53408" lon="5.91554">
        <ele>558.18</ele>
        <time>2013-05-01T08:18:08Z</time>
      </trkpt>
      <trkpt lat="45.53438" lon="5.9157">
        <ele>553.86</ele>
        <time>2013-05-01T08:18:11Z</time>
      </trkpt>
      <trkpt lat="45.53458" lon="5.91579">
        <ele>550.97</ele>
        <time>2013-05-01T08:18:13Z</time>
      </trkpt>
      <trkpt lat="45.53468" lon="5.91582">
        <ele>550.01</ele>
        <time>2013-05-01T08:18:14Z</time>
      </trkpt>
      <trkpt lat="45.53499" lon="5.91587">
        <ele>546.17</ele>
        <time>2013-05-01T08:18:17Z</time>
      </trkpt>
      <trkpt lat="45.53532" lon="5.91589">
        <ele>541.84</ele>
        <time>2013-05-01T08:18:20Z</time>
      </trkpt>
      <trkpt lat="45.53568" lon="5.91587">
        <ele>538.48</ele>
        <time>2013-05-01T08:18:23Z</time>
      </trkpt>
      <trkpt lat="45.53605" lon="5.91592">
        <ele>534.63</ele>
        <time>2013-05-01T08:18:26Z</time>
      </trkpt>
      <trkpt lat="45.53642" lon="5.916">
        <ele>531.27</ele>
        <time>2013-05-01T08:18:29Z</time>
      </trkpt>
      <trkpt lat="45.5368" lon="5.91608">
        <ele>528.38</ele>
        <time>2013-05-01T08:18:32Z</time>
      </trkpt>
      <trkpt lat="45.53718" lon="5.91617">
        <ele>524.54</ele>
        <time>2013-05-01T08:18:35Z</time>
      </trkpt>
      <trkpt lat="45.53768" lon="5.91627">
        <ele>519.73</ele>
        <time>2013-05-01T08:18:39Z</time>
      </trkpt>
      <trkpt lat="45.53806" lon="5.91634">
        <ele>516.85</ele>
        <time>2013-05-01T08:18:42Z</time>
      </trkpt>
      <trkpt lat="45.53844" lon="5.9164">
        <ele>513.48</ele>
        <time>2013-05-01T08:18:45Z</time>
      </trkpt>
      <trkpt lat="45.53892" lon="5.91649">
        <ele>509.64</ele>
        <time>2013-05-01T08:18:49Z</time>
      </trkpt>
      <trkpt lat="45.53904" lon="5.91655">
        <ele>508.19</ele>
        <time>2013-05-01T08:18:50Z</time>
      </trkpt>
      <trkpt lat="45.53939" lon="5.91676">
        <ele>504.35</ele>
        <time>2013-05-01T08:18:53Z</time>
      </trkpt>
      <trkpt lat="45.5395" lon="5.91686">
        <ele>503.39</ele>
        <time>2013-05-01T08:18:54Z</time>
      </trkpt>
      <trkpt lat="45.53994" lon="5.91729">
        <ele>500.98</ele>
        <time>2013-05-01T08:18:59Z</time>
      </trkpt>
      <trkpt lat="45.54003" lon="5.91734">
        <ele>500.5</ele>
        <time>2013-05-01T08:19:00Z</time>
      </trkpt>
      <trkpt lat="45.54012" lon="5.91736">
        <ele>499.54</ele>
        <time>2013-05-01T08:19:01Z</time>
      </trkpt>
      <trkpt lat="45.54022" lon="5.91736">
        <ele>498.58</ele>
        <time>2013-05-01T08:19:02Z</time>
      </trkpt>
      <trkpt lat="45.54031" lon="5.91735">
        <ele>498.1</ele>
        <time>2013-05-01T08:19:03Z</time>
      </trkpt>
      <trkpt lat="45.54071" lon="5.91732">
        <ele>495.22</ele>
        <time>2013-05-01T08:19:07Z</time>
      </trkpt>
      <trkpt lat="45.54123" lon="5.91726">
        <ele>491.85</ele>
        <time>2013-05-01T08:19:12Z</time>
      </trkpt>
      <trkpt lat="45.54176" lon="5.91718">
        <ele>488.49</ele>
        <time>2013-05-01T08:19:17Z</time>
      </trkpt>
      <trkpt lat="45.54236" lon="5.91696">
        <ele>484.64</ele>
        <time>2013-05-01T08:19:23Z</time>
      </trkpt>
      <trkpt lat="45.54276" lon="5.91676">
        <ele>483.2</ele>
        <time>2013-05-01T08:19:27Z</time>
      </trkpt>
      <trkpt lat="45.54316" lon="5.91658">
        <ele>479.84</ele>
        <time>2013-05-01T08:19:31Z</time>
      </trkpt>
      <trkpt lat="45.54356" lon="5.9164">
        <ele>477.91</ele>
        <time>2013-05-01T08:19:35Z</time>
      </trkpt>
      <trkpt lat="45.54395" lon="5.91624">
        <ele>474.55</ele>
        <time>2013-05-01T08:19:39Z</time>
      </trkpt>
      <trkpt lat="45.54406" lon="5.91622">
        <ele>473.59</ele>
        <time>2013-05-01T08:19:40Z</time>
      </trkpt>
      <trkpt lat="45.54416" lon="5.91622">
        <ele>473.11</ele>
        <time>2013-05-01T08:19:41Z</time>
      </trkpt>
      <trkpt lat="45.54456" lon="5.91624">
        <ele>469.74</ele>
        <time>2013-05-01T08:19:45Z</time>
      </trkpt>
      <trkpt lat="45.54474" lon="5.91628">
        <ele>468.78</ele>
        <time>2013-05-01T08:19:47Z</time>
      </trkpt>
      <trkpt lat="45.54482" lon="5.91632">
        <ele>467.82</ele>
        <time>2013-05-01T08:19:48Z</time>
      </trkpt>
      <trkpt lat="45.5449" lon="5.91638">
        <ele>467.34</ele>
        <time>2013-05-01T08:19:49Z</time>
      </trkpt>
      <trkpt lat="45.54497" lon="5.91646">
        <ele>466.38</ele>
        <time>2013-05-01T08:19:50Z</time>
      </trkpt>
      <trkpt lat="45.54503" lon="5.91656">
        <ele>465.9</ele>
        <time>2013-05-01T08:19:51Z</time>
      </trkpt>
      <trkpt lat="45.54509" lon="5.91668">
        <ele>464.45</ele>
        <time>2013-05-01T08:19:52Z</time>
      </trkpt>
      <trkpt lat="45.5452" lon="5.91692">
        <ele>463.49</ele>
        <time>2013-05-01T08:19:54Z</time>
      </trkpt>
      <trkpt lat="45.54535" lon="5.91731">
        <ele>460.61</ele>
        <time>2013-05-01T08:19:57Z</time>
      </trkpt>
      <trkpt lat="45.54538" lon="5.91746">
        <ele>460.13</ele>
        <time>2013-05-01T08:19:58Z</time>
      </trkpt>
      <trkpt lat="45.54541" lon="5.91761">
        <ele>459.17</ele>
        <time>2013-05-01T08:19:59Z</time>
      </trkpt>
      <trkpt lat="45.54546" lon="5.91808">
        <ele>457.24</ele>
        <time>2013-05-01T08:20:02Z</time>
      </trkpt>
      <trkpt lat="45.54545" lon="5.91825">
        <ele>455.8</ele>
        <time>2013-05-01T08:20:03Z</time>
      </trkpt>
      <trkpt lat="45.54543" lon="5.91841">
        <ele>454.84</ele>
        <time>2013-05-01T08:20:04Z</time>
      </trkpt>
      <trkpt lat="45.5454" lon="5.91858">
        <ele>454.36</ele>
        <time>2013-05-01T08:20:05Z</time>
      </trkpt>
      <trkpt lat="45.54535" lon="5.91873">
        <ele>453.4</ele>
        <time>2013-05-01T08:20:06Z</time>
      </trkpt>
      <trkpt lat="45.54529" lon="5.91889">
        <ele>452.44</ele>
        <time>2013-05-01T08:20:07Z</time>
      </trkpt>
      <trkpt lat="45.54522" lon="5.91903">
        <ele>451</ele>
        <time>2013-05-01T08:20:08Z</time>
      </trkpt>
      <trkpt lat="45.54515" lon="5.91917">
        <ele>450.52</ele>
        <time>2013-05-01T08:20:09Z</time>
      </trkpt>
      <trkpt lat="45.54506" lon="5.9193">
        <ele>449.07</ele>
        <time>2013-05-01T08:20:10Z</time>
      </trkpt>
      <trkpt lat="45.54497" lon="5.91941">
        <ele>448.11</ele>
        <time>2013-05-01T08:20:11Z</time>
      </trkpt>
      <trkpt lat="45.54487" lon="5.91951">
        <ele>447.15</ele>
        <time>2013-05-01T08:20:12Z</time>
      </trkpt>
      <trkpt lat="45.54477" lon="5.9196">
        <ele>446.19</ele>
        <time>2013-05-01T08:20:13Z</time>
      </trkpt>
      <trkpt lat="45.54467" lon="5.9197">
        <ele>445.71</ele>
        <time>2013-05-01T08:20:14Z</time>
      </trkpt>
      <trkpt lat="45.54458" lon="5.91981">
        <ele>444.75</ele>
        <time>2013-05-01T08:20:15Z</time>
      </trkpt>
      <trkpt lat="45.54443" lon="5.92005">
        <ele>443.31</ele>
        <time>2013-05-01T08:20:17Z</time>
      </trkpt>
      <trkpt lat="45.54431" lon="5.92028">
        <ele>441.86</ele>
        <time>2013-05-01T08:20:19Z</time>
      </trkpt>
      <trkpt lat="45.54421" lon="5.92049">
        <ele>440.42</ele>
        <time>2013-05-01T08:20:21Z</time>
      </trkpt>
      <trkpt lat="45.54418" lon="5.9206">
        <ele>439.94</ele>
        <time>2013-05-01T08:20:22Z</time>
      </trkpt>
      <trkpt lat="45.54418" lon="5.92071">
        <ele>439.94</ele>
        <time>2013-05-01T08:20:23Z</time>
      </trkpt>
      <trkpt lat="45.54421" lon="5.92086">
        <ele>439.46</ele>
        <time>2013-05-01T08:20:25Z</time>
      </trkpt>
      <trkpt lat="45.54422" lon="5.92092">
        <ele>438.98</ele>
        <time>2013-05-01T08:20:26Z</time>
      </trkpt>
      <trkpt lat="45.54425" lon="5.92096">
        <ele>438.98</ele>
        <time>2013-05-01T08:20:27Z</time>
      </trkpt>
      <trkpt lat="45.54428" lon="5.92099">
        <ele>438.5</ele>
        <time>2013-05-01T08:20:28Z</time>
      </trkpt>
      <trkpt lat="45.54432" lon="5.92101">
        <ele>438.5</ele>
        <time>2013-05-01T08:20:29Z</time>
      </trkpt>
      <trkpt lat="45.54437" lon="5.92102">
        <ele>438.5</ele>
        <time>2013-05-01T08:20:30Z</time>
      </trkpt>
      <trkpt lat="45.54448" lon="5.92101">
        <ele>438.5</ele>
        <time>2013-05-01T08:20:31Z</time>
      </trkpt>
      <trkpt lat="45.54458" lon="5.92099">
        <ele>438.98</ele>
        <time>2013-05-01T08:20:32Z</time>
      </trkpt>
      <trkpt lat="45.54467" lon="5.92097">
        <ele>438.5</ele>
        <time>2013-05-01T08:20:33Z</time>
      </trkpt>
      <trkpt lat="45.54476" lon="5.92094">
        <ele>439.46</ele>
        <time>2013-05-01T08:20:34Z</time>
      </trkpt>
      <trkpt lat="45.54583" lon="5.92066">
        <ele>440.9</ele>
        <time>2013-05-01T08:20:47Z</time>
      </trkpt>
      <trkpt lat="45.54621" lon="5.92065">
        <ele>442.34</ele>
        <time>2013-05-01T08:20:55Z</time>
      </trkpt>
      <trkpt lat="45.54625" lon="5.92066">
        <ele>442.82</ele>
        <time>2013-05-01T08:20:56Z</time>
      </trkpt>
      <trkpt lat="45.54685" lon="5.92081">
        <ele>442.82</ele>
        <time>2013-05-01T08:21:08Z</time>
      </trkpt>
      <trkpt lat="45.54759" lon="5.92103">
        <ele>440.42</ele>
        <time>2013-05-01T08:21:21Z</time>
      </trkpt>
      <trkpt lat="45.54804" lon="5.92128">
        <ele>437.54</ele>
        <time>2013-05-01T08:21:27Z</time>
      </trkpt>
      <trkpt lat="45.54831" lon="5.92133">
        <ele>435.13</ele>
        <time>2013-05-01T08:21:30Z</time>
      </trkpt>
      <trkpt lat="45.54841" lon="5.92133">
        <ele>434.17</ele>
        <time>2013-05-01T08:21:31Z</time>
      </trkpt>
      <trkpt lat="45.54877" lon="5.92134">
        <ele>431.29</ele>
        <time>2013-05-01T08:21:35Z</time>
      </trkpt>
      <trkpt lat="45.54915" lon="5.92145">
        <ele>427.44</ele>
        <time>2013-05-01T08:21:40Z</time>
      </trkpt>
      <trkpt lat="45.54922" lon="5.92148">
        <ele>427.44</ele>
        <time>2013-05-01T08:21:41Z</time>
      </trkpt>
      <trkpt lat="45.5493" lon="5.92149">
        <ele>426.96</ele>
        <time>2013-05-01T08:21:42Z</time>
      </trkpt>
      <trkpt lat="45.54937" lon="5.92147">
        <ele>426.48</ele>
        <time>2013-05-01T08:21:43Z</time>
      </trkpt>
      <trkpt lat="45.54946" lon="5.92146">
        <ele>425.04</ele>
        <time>2013-05-01T08:21:44Z</time>
      </trkpt>
      <trkpt lat="45.54955" lon="5.92145">
        <ele>424.56</ele>
        <time>2013-05-01T08:21:45Z</time>
      </trkpt>
      <trkpt lat="45.55002" lon="5.92139">
        <ele>420.71</ele>
        <time>2013-05-01T08:21:50Z</time>
      </trkpt>
      <trkpt lat="45.55054" lon="5.92133">
        <ele>417.83</ele>
        <time>2013-05-01T08:21:55Z</time>
      </trkpt>
      <trkpt lat="45.55085" lon="5.92134">
        <ele>415.91</ele>
        <time>2013-05-01T08:21:58Z</time>
      </trkpt>
      <trkpt lat="45.55136" lon="5.9214">
        <ele>412.54</ele>
        <time>2013-05-01T08:22:03Z</time>
      </trkpt>
      <trkpt lat="45.55196" lon="5.92147">
        <ele>409.18</ele>
        <time>2013-05-01T08:22:09Z</time>
      </trkpt>
      <trkpt lat="45.55245" lon="5.92152">
        <ele>406.29</ele>
        <time>2013-05-01T08:22:14Z</time>
      </trkpt>
      <trkpt lat="45.55302" lon="5.92155">
        <ele>402.93</ele>
        <time>2013-05-01T08:22:20Z</time>
      </trkpt>
      <trkpt lat="45.55311" lon="5.92155">
        <ele>403.41</ele>
        <time>2013-05-01T08:22:21Z</time>
      </trkpt>
      <trkpt lat="45.5532" lon="5.92158">
        <ele>402.93</ele>
        <time>2013-05-01T08:22:22Z</time>
      </trkpt>
      <trkpt lat="45.55336" lon="5.92166">
        <ele>401.97</ele>
        <time>2013-05-01T08:22:24Z</time>
      </trkpt>
      <trkpt lat="45.55354" lon="5.92171">
        <ele>401.01</ele>
        <time>2013-05-01T08:22:26Z</time>
      </trkpt>
      <trkpt lat="45.55362" lon="5.92174">
        <ele>400.05</ele>
        <time>2013-05-01T08:22:27Z</time>
      </trkpt>
      <trkpt lat="45.55372" lon="5.92176">
        <ele>399.57</ele>
        <time>2013-05-01T08:22:28Z</time>
      </trkpt>
      <trkpt lat="45.5538" lon="5.92176">
        <ele>399.08</ele>
        <time>2013-05-01T08:22:29Z</time>
      </trkpt>
      <trkpt lat="45.55389" lon="5.92176">
        <ele>398.6</ele>
        <time>2013-05-01T08:22:30Z</time>
      </trkpt>
      <trkpt lat="45.55408" lon="5.92176">
        <ele>398.12</ele>
        <time>2013-05-01T08:22:32Z</time>
      </trkpt>
      <trkpt lat="45.55455" lon="5.92174">
        <ele>394.76</ele>
        <time>2013-05-01T08:22:37Z</time>
      </trkpt>
      <trkpt lat="45.55465" lon="5.92175">
        <ele>394.76</ele>
        <time>2013-05-01T08:22:38Z</time>
      </trkpt>
      <trkpt lat="45.55504" lon="5.9218">
        <ele>390.91</ele>
        <time>2013-05-01T08:22:42Z</time>
      </trkpt>
      <trkpt lat="45.55565" lon="5.92189">
        <ele>388.51</ele>
        <time>2013-05-01T08:22:48Z</time>
      </trkpt>
      <trkpt lat="45.55608" lon="5.92193">
        <ele>385.15</ele>
        <time>2013-05-01T08:22:52Z</time>
      </trkpt>
      <trkpt lat="45.55618" lon="5.92194">
        <ele>384.66</ele>
        <time>2013-05-01T08:22:53Z</time>
      </trkpt>
      <trkpt lat="45.55671" lon="5.92201">
        <ele>382.26</ele>
        <time>2013-05-01T08:22:58Z</time>
      </trkpt>
      <trkpt lat="45.55713" lon="5.92205">
        <ele>378.42</ele>
        <time>2013-05-01T08:23:03Z</time>
      </trkpt>
      <trkpt lat="45.55721" lon="5.92206">
        <ele>377.94</ele>
        <time>2013-05-01T08:23:04Z</time>
      </trkpt>
      <trkpt lat="45.55766" lon="5.92212">
        <ele>374.57</ele>
        <time>2013-05-01T08:23:09Z</time>
      </trkpt>
      <trkpt lat="45.55814" lon="5.92218">
        <ele>371.69</ele>
        <time>2013-05-01T08:23:14Z</time>
      </trkpt>
      <trkpt lat="45.55851" lon="5.92223">
        <ele>368.32</ele>
        <time>2013-05-01T08:23:18Z</time>
      </trkpt>
      <trkpt lat="45.55883" lon="5.92226">
        <ele>365.44</ele>
        <time>2013-05-01T08:23:22Z</time>
      </trkpt>
      <trkpt lat="45.55889" lon="5.92227">
        <ele>364.96</ele>
        <time>2013-05-01T08:23:23Z</time>
      </trkpt>
      <trkpt lat="45.55901" lon="5.92231">
        <ele>364</ele>
        <time>2013-05-01T08:23:25Z</time>
      </trkpt>
      <trkpt lat="45.55906" lon="5.92235">
        <ele>363.52</ele>
        <time>2013-05-01T08:23:26Z</time>
      </trkpt>
      <trkpt lat="45.55912" lon="5.92241">
        <ele>363.04</ele>
        <time>2013-05-01T08:23:27Z</time>
      </trkpt>
      <trkpt lat="45.55924" lon="5.92255">
        <ele>361.59</ele>
        <time>2013-05-01T08:23:29Z</time>
      </trkpt>
      <trkpt lat="45.55955" lon="5.92297">
        <ele>358.23</ele>
        <time>2013-05-01T08:23:34Z</time>
      </trkpt>
      <trkpt lat="45.55965" lon="5.92318">
        <ele>356.79</ele>
        <time>2013-05-01T08:23:36Z</time>
      </trkpt>
      <trkpt lat="45.55969" lon="5.92329">
        <ele>356.31</ele>
        <time>2013-05-01T08:23:37Z</time>
      </trkpt>
      <trkpt lat="45.55971" lon="5.92341">
        <ele>355.83</ele>
        <time>2013-05-01T08:23:38Z</time>
      </trkpt>
      <trkpt lat="45.55983" lon="5.924">
        <ele>351.98</ele>
        <time>2013-05-01T08:23:43Z</time>
      </trkpt>
      <trkpt lat="45.56007" lon="5.92456">
        <ele>348.13</ele>
        <time>2013-05-01T08:23:49Z</time>
      </trkpt>
      <trkpt lat="45.56014" lon="5.92473">
        <ele>347.65</ele>
        <time>2013-05-01T08:23:51Z</time>
      </trkpt>
      <trkpt lat="45.56026" lon="5.925">
        <ele>345.25</ele>
        <time>2013-05-01T08:23:55Z</time>
      </trkpt>
      <trkpt lat="45.56036" lon="5.92525">
        <ele>343.81</ele>
        <time>2013-05-01T08:24:03Z</time>
      </trkpt>
      <trkpt lat="45.56036" lon="5.92527">
        <ele>343.33</ele>
        <time>2013-05-01T08:24:18Z</time>
      </trkpt>
      <trkpt lat="45.56045" lon="5.92547">
        <ele>342.37</ele>
        <time>2013-05-01T08:24:37Z</time>
      </trkpt>
      <trkpt lat="45.56047" lon="5.92554">
        <ele>341.89</ele>
        <time>2013-05-01T08:24:38Z</time>
      </trkpt>
      <trkpt lat="45.56058" lon="5.92588">
        <ele>340.44</ele>
        <time>2013-05-01T08:24:42Z</time>
      </trkpt>
      <trkpt lat="45.56062" lon="5.92596">
        <ele>339.48</ele>
        <time>2013-05-01T08:24:43Z</time>
      </trkpt>
      <trkpt lat="45.56067" lon="5.92604">
        <ele>338.52</ele>
        <time>2013-05-01T08:24:44Z</time>
      </trkpt>
      <trkpt lat="45.56072" lon="5.92611">
        <ele>338.52</ele>
        <time>2013-05-01T08:24:45Z</time>
      </trkpt>
      <trkpt lat="45.56105" lon="5.9265">
        <ele>335.16</ele>
        <time>2013-05-01T08:24:50Z</time>
      </trkpt>
      <trkpt lat="45.56129" lon="5.92688">
        <ele>331.79</ele>
        <time>2013-05-01T08:24:54Z</time>
      </trkpt>
      <trkpt lat="45.56159" lon="5.92736">
        <ele>328.43</ele>
        <time>2013-05-01T08:24:59Z</time>
      </trkpt>
      <trkpt lat="45.56177" lon="5.92768">
        <ele>326.02</ele>
        <time>2013-05-01T08:25:02Z</time>
      </trkpt>
      <trkpt lat="45.56181" lon="5.9278">
        <ele>325.54</ele>
        <time>2013-05-01T08:25:03Z</time>
      </trkpt>
      <trkpt lat="45.56183" lon="5.92794">
        <ele>325.06</ele>
        <time>2013-05-01T08:25:04Z</time>
      </trkpt>
      <trkpt lat="45.56183" lon="5.92807">
        <ele>324.1</ele>
        <time>2013-05-01T08:25:05Z</time>
      </trkpt>
      <trkpt lat="45.56183" lon="5.92821">
        <ele>323.14</ele>
        <time>2013-05-01T08:25:06Z</time>
      </trkpt>
      <trkpt lat="45.56184" lon="5.92849">
        <ele>321.7</ele>
        <time>2013-05-01T08:25:08Z</time>
      </trkpt>
      <trkpt lat="45.56185" lon="5.92876">
        <ele>320.26</ele>
        <time>2013-05-01T08:25:10Z</time>
      </trkpt>
      <trkpt lat="45.56184" lon="5.929">
        <ele>318.81</ele>
        <time>2013-05-01T08:25:12Z</time>
      </trkpt>
      <trkpt lat="45.56182" lon="5.92911">
        <ele>317.85</ele>
        <time>2013-05-01T08:25:13Z</time>
      </trkpt>
      <trkpt lat="45.56178" lon="5.92921">
        <ele>316.89</ele>
        <time>2013-05-01T08:25:14Z</time>
      </trkpt>
      <trkpt lat="45.56173" lon="5.92929">
        <ele>316.41</ele>
        <time>2013-05-01T08:25:15Z</time>
      </trkpt>
      <trkpt lat="45.56166" lon="5.92936">
        <ele>315.93</ele>
        <time>2013-05-01T08:25:16Z</time>
      </trkpt>
      <trkpt lat="45.56159" lon="5.92943">
        <ele>314.97</ele>
        <time>2013-05-01T08:25:17Z</time>
      </trkpt>
      <trkpt lat="45.56152" lon="5.92952">
        <ele>314.49</ele>
        <time>2013-05-01T08:25:18Z</time>
      </trkpt>
      <trkpt lat="45.56145" lon="5.92962">
        <ele>313.53</ele>
        <time>2013-05-01T08:25:19Z</time>
      </trkpt>
      <trkpt lat="45.56139" lon="5.92972">
        <ele>312.57</ele>
        <time>2013-05-01T08:25:20Z</time>
      </trkpt>
      <trkpt lat="45.56133" lon="5.92984">
        <ele>312.09</ele>
        <time>2013-05-01T08:25:21Z</time>
      </trkpt>
      <trkpt lat="45.56111" lon="5.93027">
        <ele>308.72</ele>
        <time>2013-05-01T08:25:25Z</time>
      </trkpt>
      <trkpt lat="45.56105" lon="5.93035">
        <ele>308.24</ele>
        <time>2013-05-01T08:25:26Z</time>
      </trkpt>
      <trkpt lat="45.56099" lon="5.93041">
        <ele>307.76</ele>
        <time>2013-05-01T08:25:27Z</time>
      </trkpt>
      <trkpt lat="45.56091" lon="5.93045">
        <ele>307.28</ele>
        <time>2013-05-01T08:25:28Z</time>
      </trkpt>
      <trkpt lat="45.56085" lon="5.93049">
        <ele>306.8</ele>
        <time>2013-05-01T08:25:29Z</time>
      </trkpt>
      <trkpt lat="45.5608" lon="5.93055">
        <ele>306.32</ele>
        <time>2013-05-01T08:25:30Z</time>
      </trkpt>
      <trkpt lat="45.56077" lon="5.93062">
        <ele>305.84</ele>
        <time>2013-05-01T08:25:31Z</time>
      </trkpt>
      <trkpt lat="45.56076" lon="5.9307">
        <ele>305.36</ele>
        <time>2013-05-01T08:25:32Z</time>
      </trkpt>
      <trkpt lat="45.56076" lon="5.93077">
        <ele>304.88</ele>
        <time>2013-05-01T08:25:33Z</time>
      </trkpt>
      <trkpt lat="45.56077" lon="5.93083">
        <ele>304.39</ele>
        <time>2013-05-01T08:25:34Z</time>
      </trkpt>
      <trkpt lat="45.56079" lon="5.93088">
        <ele>304.39</ele>
        <time>2013-05-01T08:25:35Z</time>
      </trkpt>
      <trkpt lat="45.56082" lon="5.93091">
        <ele>303.91</ele>
        <time>2013-05-01T08:25:36Z</time>
      </trkpt>
      <trkpt lat="45.56087" lon="5.93092">
        <ele>303.91</ele>
        <time>2013-05-01T08:25:37Z</time>
      </trkpt>
      <trkpt lat="45.56093" lon="5.9309">
        <ele>303.43</ele>
        <time>2013-05-01T08:25:38Z</time>
      </trkpt>
      <trkpt lat="45.56099" lon="5.93087">
        <ele>302.95</ele>
        <time>2013-05-01T08:25:39Z</time>
      </trkpt>
      <trkpt lat="45.56136" lon="5.93075">
        <ele>300.55</ele>
        <time>2013-05-01T08:25:44Z</time>
      </trkpt>
      <trkpt lat="45.56144" lon="5.93075">
        <ele>300.07</ele>
        <time>2013-05-01T08:25:45Z</time>
      </trkpt>
      <trkpt lat="45.5618" lon="5.93079">
        <ele>296.7</ele>
        <time>2013-05-01T08:25:49Z</time>
      </trkpt>
      <trkpt lat="45.56207" lon="5.9308">
        <ele>294.78</ele>
        <time>2013-05-01T08:25:52Z</time>
      </trkpt>
      <trkpt lat="45.56216" lon="5.93078">
        <ele>294.3</ele>
        <time>2013-05-01T08:25:53Z</time>
      </trkpt>
      <trkpt lat="45.56224" lon="5.93073">
        <ele>293.34</ele>
        <time>2013-05-01T08:25:54Z</time>
      </trkpt>
      <trkpt lat="45.56232" lon="5.93068">
        <ele>292.86</ele>
        <time>2013-05-01T08:25:55Z</time>
      </trkpt>
      <trkpt lat="45.56239" lon="5.93061">
        <ele>292.86</ele>
        <time>2013-05-01T08:25:56Z</time>
      </trkpt>
      <trkpt lat="45.56246" lon="5.93054">
        <ele>292.38</ele>
        <time>2013-05-01T08:25:57Z</time>
      </trkpt>
      <trkpt lat="45.56267" lon="5.9303">
        <ele>289.97</ele>
        <time>2013-05-01T08:26:00Z</time>
      </trkpt>
      <trkpt lat="45.56282" lon="5.93013">
        <ele>289.01</ele>
        <time>2013-05-01T08:26:02Z</time>
      </trkpt>
      <trkpt lat="45.56289" lon="5.93004">
        <ele>288.05</ele>
        <time>2013-05-01T08:26:03Z</time>
      </trkpt>
      <trkpt lat="45.56295" lon="5.92994">
        <ele>287.09</ele>
        <time>2013-05-01T08:26:04Z</time>
      </trkpt>
      <trkpt lat="45.56299" lon="5.92982">
        <ele>286.13</ele>
        <time>2013-05-01T08:26:05Z</time>
      </trkpt>
      <trkpt lat="45.56301" lon="5.92969">
        <ele>286.13</ele>
        <time>2013-05-01T08:26:06Z</time>
      </trkpt>
      <trkpt lat="45.56301" lon="5.92956">
        <ele>285.17</ele>
        <time>2013-05-01T08:26:07Z</time>
      </trkpt>
      <trkpt lat="45.56301" lon="5.92943">
        <ele>284.69</ele>
        <time>2013-05-01T08:26:08Z</time>
      </trkpt>
      <trkpt lat="45.56301" lon="5.9293">
        <ele>284.21</ele>
        <time>2013-05-01T08:26:09Z</time>
      </trkpt>
      <trkpt lat="45.56303" lon="5.92917">
        <ele>282.77</ele>
        <time>2013-05-01T08:26:10Z</time>
      </trkpt>
      <trkpt lat="45.56305" lon="5.92904">
        <ele>282.77</ele>
        <time>2013-05-01T08:26:11Z</time>
      </trkpt>
      <trkpt lat="45.56309" lon="5.92893">
        <ele>281.8</ele>
        <time>2013-05-01T08:26:12Z</time>
      </trkpt>
      <trkpt lat="45.56313" lon="5.92883">
        <ele>281.32</ele>
        <time>2013-05-01T08:26:13Z</time>
      </trkpt>
      <trkpt lat="45.56317" lon="5.92873">
        <ele>280.36</ele>
        <time>2013-05-01T08:26:14Z</time>
      </trkpt>
      <trkpt lat="45.56321" lon="5.92865">
        <ele>280.36</ele>
        <time>2013-05-01T08:26:15Z</time>
      </trkpt>
      <trkpt lat="45.56329" lon="5.92851">
        <ele>279.4</ele>
        <time>2013-05-01T08:26:18Z</time>
      </trkpt>
      <trkpt lat="45.56332" lon="5.92851">
        <ele>279.4</ele>
        <time>2013-05-01T08:26:19Z</time>
      </trkpt>
      <trkpt lat="45.56334" lon="5.92853">
        <ele>278.92</ele>
        <time>2013-05-01T08:26:20Z</time>
      </trkpt>
      <trkpt lat="45.56334" lon="5.92857">
        <ele>278.92</ele>
        <time>2013-05-01T08:26:21Z</time>
      </trkpt>
      <trkpt lat="45.56334" lon="5.92861">
        <ele>278.92</ele>
        <time>2013-05-01T08:26:22Z</time>
      </trkpt>
      <trkpt lat="45.56332" lon="5.92865">
        <ele>279.4</ele>
        <time>2013-05-01T08:26:23Z</time>
      </trkpt>
      <trkpt lat="45.5633" lon="5.92869">
        <ele>278.92</ele>
        <time>2013-05-01T08:26:24Z</time>
      </trkpt>
      <trkpt lat="45.56323" lon="5.92883">
        <ele>279.4</ele>
        <time>2013-05-01T08:26:27Z</time>
      </trkpt>
      <trkpt lat="45.56313" lon="5.92917">
        <ele>280.36</ele>
        <time>2013-05-01T08:26:33Z</time>
      </trkpt>
      <trkpt lat="45.56313" lon="5.92923">
        <ele>280.36</ele>
        <time>2013-05-01T08:26:34Z</time>
      </trkpt>
      <trkpt lat="45.56312" lon="5.9293">
        <ele>279.88</ele>
        <time>2013-05-01T08:26:35Z</time>
      </trkpt>
      <trkpt lat="45.56308" lon="5.93017">
        <ele>280.36</ele>
        <time>2013-05-01T08:26:47Z</time>
      </trkpt>
      <trkpt lat="45.5631" lon="5.93025">
        <ele>280.36</ele>
        <time>2013-05-01T08:26:48Z</time>
      </trkpt>
      <trkpt lat="45.56313" lon="5.93031">
        <ele>279.88</ele>
        <time>2013-05-01T08:26:49Z</time>
      </trkpt>
      <trkpt lat="45.56315" lon="5.93038">
        <ele>280.36</ele>
        <time>2013-05-01T08:26:50Z</time>
      </trkpt>
      <trkpt lat="45.56318" lon="5.93044">
        <ele>280.36</ele>
        <time>2013-05-01T08:26:51Z</time>
      </trkpt>
      <trkpt lat="45.56361" lon="5.93156">
        <ele>279.4</ele>
        <time>2013-05-01T08:27:08Z</time>
      </trkpt>
      <trkpt lat="45.56365" lon="5.93169">
        <ele>279.4</ele>
        <time>2013-05-01T08:27:10Z</time>
      </trkpt>
      <trkpt lat="45.56368" lon="5.93175">
        <ele>279.4</ele>
        <time>2013-05-01T08:27:11Z</time>
      </trkpt>
      <trkpt lat="45.56369" lon="5.93181">
        <ele>279.4</ele>
        <time>2013-05-01T08:27:12Z</time>
      </trkpt>
      <trkpt lat="45.56371" lon="5.93188">
        <ele>279.88</ele>
        <time>2013-05-01T08:27:13Z</time>
      </trkpt>
      <trkpt lat="45.56372" lon="5.93194">
        <ele>279.88</ele>
        <time>2013-05-01T08:27:14Z</time>
      </trkpt>
      <trkpt lat="45.56375" lon="5.932">
        <ele>279.88</ele>
        <time>2013-05-01T08:27:15Z</time>
      </trkpt>
      <trkpt lat="45.56378" lon="5.93205">
        <ele>279.88</ele>
        <time>2013-05-01T08:27:16Z</time>
      </trkpt>
      <trkpt lat="45.56382" lon="5.93209">
        <ele>279.88</ele>
        <time>2013-05-01T08:27:17Z</time>
      </trkpt>
      <trkpt lat="45.56387" lon="5.93213">
        <ele>279.88</ele>
        <time>2013-05-01T08:27:18Z</time>
      </trkpt>
      <trkpt lat="45.56449" lon="5.93279">
        <ele>280.84</ele>
        <time>2013-05-01T08:27:33Z</time>
      </trkpt>
      <trkpt lat="45.56515" lon="5.93343">
        <ele>281.32</ele>
        <time>2013-05-01T08:27:48Z</time>
      </trkpt>
      <trkpt lat="45.56584" lon="5.93409">
        <ele>281.8</ele>
        <time>2013-05-01T08:28:04Z</time>
      </trkpt>
      <trkpt lat="45.56588" lon="5.93413">
        <ele>282.77</ele>
        <time>2013-05-01T08:28:05Z</time>
      </trkpt>
      <trkpt lat="45.56603" lon="5.9343">
        <ele>282.77</ele>
        <time>2013-05-01T08:28:10Z</time>
      </trkpt>
      <trkpt lat="45.56602" lon="5.93435">
        <ele>282.77</ele>
        <time>2013-05-01T08:28:11Z</time>
      </trkpt>
      <trkpt lat="45.56601" lon="5.93441">
        <ele>282.77</ele>
        <time>2013-05-01T08:28:12Z</time>
      </trkpt>
      <trkpt lat="45.56599" lon="5.93446">
        <ele>282.77</ele>
        <time>2013-05-01T08:28:13Z</time>
      </trkpt>
      <trkpt lat="45.56596" lon="5.93452">
        <ele>282.77</ele>
        <time>2013-05-01T08:28:14Z</time>
      </trkpt>
      <trkpt lat="45.56558" lon="5.93546">
        <ele>283.25</ele>
        <time>2013-05-01T08:28:29Z</time>
      </trkpt>
      <trkpt lat="45.56529" lon="5.93622">
        <ele>283.25</ele>
        <time>2013-05-01T08:28:41Z</time>
      </trkpt>
      <trkpt lat="45.56527" lon="5.93642">
        <ele>283.73</ele>
        <time>2013-05-01T08:28:45Z</time>
      </trkpt>
      <trkpt lat="45.56528" lon="5.93644">
        <ele>283.25</ele>
        <time>2013-05-01T08:28:46Z</time>
      </trkpt>
      <trkpt lat="45.56529" lon="5.93645">
        <ele>283.73</ele>
        <time>2013-05-01T08:28:47Z</time>
      </trkpt>
      <trkpt lat="45.56523" lon="5.93656">
        <ele>283.25</ele>
        <time>2013-05-01T08:28:51Z</time>
      </trkpt>
      <trkpt lat="45.5651" lon="5.93694">
        <ele>283.73</ele>
        <time>2013-05-01T08:28:58Z</time>
      </trkpt>
      <trkpt lat="45.56508" lon="5.937">
        <ele>283.25</ele>
        <time>2013-05-01T08:28:59Z</time>
      </trkpt>
      <trkpt lat="45.56506" lon="5.93705">
        <ele>283.73</ele>
        <time>2013-05-01T08:29:00Z</time>
      </trkpt>
      <trkpt lat="45.56504" lon="5.93711">
        <ele>283.73</ele>
        <time>2013-05-01T08:29:01Z</time>
      </trkpt>
      <trkpt lat="45.56501" lon="5.93717">
        <ele>283.73</ele>
        <time>2013-05-01T08:29:02Z</time>
      </trkpt>
      <trkpt lat="45.56498" lon="5.93722">
        <ele>283.25</ele>
        <time>2013-05-01T08:29:03Z</time>
      </trkpt>
      <trkpt lat="45.56486" lon="5.93759">
        <ele>283.73</ele>
        <time>2013-05-01T08:29:10Z</time>
      </trkpt>
      <trkpt lat="45.56484" lon="5.93765">
        <ele>284.21</ele>
        <time>2013-05-01T08:29:11Z</time>
      </trkpt>
      <trkpt lat="45.56477" lon="5.93782">
        <ele>284.69</ele>
        <time>2013-05-01T08:29:14Z</time>
      </trkpt>
      <trkpt lat="45.56468" lon="5.93798">
        <ele>284.69</ele>
        <time>2013-05-01T08:29:17Z</time>
      </trkpt>
      <trkpt lat="45.56465" lon="5.93803">
        <ele>285.17</ele>
        <time>2013-05-01T08:29:18Z</time>
      </trkpt>
      <trkpt lat="45.56461" lon="5.93807">
        <ele>285.17</ele>
        <time>2013-05-01T08:29:19Z</time>
      </trkpt>
      <trkpt lat="45.56458" lon="5.93812">
        <ele>284.69</ele>
        <time>2013-05-01T08:29:20Z</time>
      </trkpt>
      <trkpt lat="45.56455" lon="5.93817">
        <ele>285.17</ele>
        <time>2013-05-01T08:29:21Z</time>
      </trkpt>
      <trkpt lat="45.56406" lon="5.93883">
        <ele>283.25</ele>
        <time>2013-05-01T08:29:33Z</time>
      </trkpt>
      <trkpt lat="45.56387" lon="5.93912">
        <ele>283.25</ele>
        <time>2013-05-01T08:29:38Z</time>
      </trkpt>
      <trkpt lat="45.56384" lon="5.93917">
        <ele>283.25</ele>
        <time>2013-05-01T08:29:39Z</time>
      </trkpt>
      <trkpt lat="45.56381" lon="5.93922">
        <ele>283.25</ele>
        <time>2013-05-01T08:29:40Z</time>
      </trkpt>
      <trkpt lat="45.56377" lon="5.93927">
        <ele>282.77</ele>
        <time>2013-05-01T08:29:41Z</time>
      </trkpt>
      <trkpt lat="45.56373" lon="5.93932">
        <ele>282.77</ele>
        <time>2013-05-01T08:29:42Z</time>
      </trkpt>
      <trkpt lat="45.56368" lon="5.93937">
        <ele>282.77</ele>
        <time>2013-05-01T08:29:43Z</time>
      </trkpt>
      <trkpt lat="45.56342" lon="5.9396">
        <ele>283.25</ele>
        <time>2013-05-01T08:29:49Z</time>
      </trkpt>
      <trkpt lat="45.5631" lon="5.93977">
        <ele>283.25</ele>
        <time>2013-05-01T08:29:56Z</time>
      </trkpt>
      <trkpt lat="45.56306" lon="5.9398">
        <ele>283.25</ele>
        <time>2013-05-01T08:29:57Z</time>
      </trkpt>
      <trkpt lat="45.5628" lon="5.93997">
        <ele>283.25</ele>
        <time>2013-05-01T08:30:03Z</time>
      </trkpt>
      <trkpt lat="45.5625" lon="5.94018">
        <ele>283.73</ele>
        <time>2013-05-01T08:30:10Z</time>
      </trkpt>
      <trkpt lat="45.56223" lon="5.94028">
        <ele>284.21</ele>
        <time>2013-05-01T08:30:16Z</time>
      </trkpt>
      <trkpt lat="45.56195" lon="5.94044">
        <ele>284.69</ele>
        <time>2013-05-01T08:30:23Z</time>
      </trkpt>
      <trkpt lat="45.56192" lon="5.94047">
        <ele>285.17</ele>
        <time>2013-05-01T08:30:24Z</time>
      </trkpt>
      <trkpt lat="45.56188" lon="5.94051">
        <ele>284.69</ele>
        <time>2013-05-01T08:30:25Z</time>
      </trkpt>
      <trkpt lat="45.56184" lon="5.94055">
        <ele>285.17</ele>
        <time>2013-05-01T08:30:26Z</time>
      </trkpt>
      <trkpt lat="45.56181" lon="5.9406">
        <ele>285.17</ele>
        <time>2013-05-01T08:30:27Z</time>
      </trkpt>
      <trkpt lat="45.56178" lon="5.94065">
        <ele>284.69</ele>
        <time>2013-05-01T08:30:28Z</time>
      </trkpt>
      <trkpt lat="45.56175" lon="5.94071">
        <ele>284.69</ele>
        <time>2013-05-01T08:30:29Z</time>
      </trkpt>
      <trkpt lat="45.56172" lon="5.94076">
        <ele>284.69</ele>
        <time>2013-05-01T08:30:30Z</time>
      </trkpt>
      <trkpt lat="45.56126" lon="5.94132">
        <ele>285.65</ele>
        <time>2013-05-01T08:30:44Z</time>
      </trkpt>
      <trkpt lat="45.56124" lon="5.94139">
        <ele>286.13</ele>
        <time>2013-05-01T08:30:51Z</time>
      </trkpt>
      <trkpt lat="45.56124" lon="5.94141">
        <ele>286.13</ele>
        <time>2013-05-01T08:30:52Z</time>
      </trkpt>
      <trkpt lat="45.56125" lon="5.94145">
        <ele>286.13</ele>
        <time>2013-05-01T08:30:53Z</time>
      </trkpt>
      <trkpt lat="45.56125" lon="5.94149">
        <ele>286.13</ele>
        <time>2013-05-01T08:30:54Z</time>
      </trkpt>
      <trkpt lat="45.56125" lon="5.94154">
        <ele>285.65</ele>
        <time>2013-05-01T08:30:55Z</time>
      </trkpt>
      <trkpt lat="45.56124" lon="5.94159">
        <ele>285.65</ele>
        <time>2013-05-01T08:30:56Z</time>
      </trkpt>
      <trkpt lat="45.56123" lon="5.94163">
        <ele>285.17</ele>
        <time>2013-05-01T08:30:57Z</time>
      </trkpt>
      <trkpt lat="45.56123" lon="5.94167">
        <ele>285.17</ele>
        <time>2013-05-01T08:30:58Z</time>
      </trkpt>
      <trkpt lat="45.56119" lon="5.94215">
        <ele>285.17</ele>
        <time>2013-05-01T08:31:08Z</time>
      </trkpt>
      <trkpt lat="45.56114" lon="5.94248">
        <ele>285.17</ele>
        <time>2013-05-01T08:31:13Z</time>
      </trkpt>
      <trkpt lat="45.56115" lon="5.94255">
        <ele>285.17</ele>
        <time>2013-05-01T08:31:14Z</time>
      </trkpt>
      <trkpt lat="45.56116" lon="5.94262">
        <ele>285.17</ele>
        <time>2013-05-01T08:31:15Z</time>
      </trkpt>
      <trkpt lat="45.56116" lon="5.94269">
        <ele>285.17</ele>
        <time>2013-05-01T08:31:16Z</time>
      </trkpt>
      <trkpt lat="45.56116" lon="5.94275">
        <ele>285.65</ele>
        <time>2013-05-01T08:31:17Z</time>
      </trkpt>
      <trkpt lat="45.56115" lon="5.94282">
        <ele>284.69</ele>
        <time>2013-05-01T08:31:18Z</time>
      </trkpt>
      <trkpt lat="45.56105" lon="5.94349">
        <ele>284.69</ele>
        <time>2013-05-01T08:31:28Z</time>
      </trkpt>
      <trkpt lat="45.56105" lon="5.94355">
        <ele>285.17</ele>
        <time>2013-05-01T08:31:29Z</time>
      </trkpt>
      <trkpt lat="45.56105" lon="5.94383">
        <ele>284.69</ele>
        <time>2013-05-01T08:31:33Z</time>
      </trkpt>
      <trkpt lat="45.56104" lon="5.9439">
        <ele>285.17</ele>
        <time>2013-05-01T08:31:34Z</time>
      </trkpt>
      <trkpt lat="45.56102" lon="5.94396">
        <ele>285.17</ele>
        <time>2013-05-01T08:31:35Z</time>
      </trkpt>
      <trkpt lat="45.56101" lon="5.94403">
        <ele>284.69</ele>
        <time>2013-05-01T08:31:36Z</time>
      </trkpt>
      <trkpt lat="45.56101" lon="5.9441">
        <ele>285.17</ele>
        <time>2013-05-01T08:31:37Z</time>
      </trkpt>
      <trkpt lat="45.5608" lon="5.94494">
        <ele>285.65</ele>
        <time>2013-05-01T08:31:50Z</time>
      </trkpt>
      <trkpt lat="45.56068" lon="5.94525">
        <ele>285.65</ele>
        <time>2013-05-01T08:31:55Z</time>
      </trkpt>
      <trkpt lat="45.56064" lon="5.9453">
        <ele>285.65</ele>
        <time>2013-05-01T08:31:56Z</time>
      </trkpt>
      <trkpt lat="45.5606" lon="5.94535">
        <ele>285.65</ele>
        <time>2013-05-01T08:31:57Z</time>
      </trkpt>
      <trkpt lat="45.56056" lon="5.94538">
        <ele>285.65</ele>
        <time>2013-05-01T08:31:58Z</time>
      </trkpt>
      <trkpt lat="45.56051" lon="5.94541">
        <ele>285.65</ele>
        <time>2013-05-01T08:31:59Z</time>
      </trkpt>
      <trkpt lat="45.56046" lon="5.94542">
        <ele>285.65</ele>
        <time>2013-05-01T08:32:00Z</time>
      </trkpt>
      <trkpt lat="45.5604" lon="5.94543">
        <ele>285.17</ele>
        <time>2013-05-01T08:32:01Z</time>
      </trkpt>
      <trkpt lat="45.56035" lon="5.94544">
        <ele>285.65</ele>
        <time>2013-05-01T08:32:02Z</time>
      </trkpt>
      <trkpt lat="45.55998" lon="5.94552">
        <ele>285.65</ele>
        <time>2013-05-01T08:32:09Z</time>
      </trkpt>
      <trkpt lat="45.55965" lon="5.9456">
        <ele>285.65</ele>
        <time>2013-05-01T08:32:15Z</time>
      </trkpt>
      <trkpt lat="45.55961" lon="5.94563">
        <ele>285.65</ele>
        <time>2013-05-01T08:32:16Z</time>
      </trkpt>
      <trkpt lat="45.55956" lon="5.94566">
        <ele>285.65</ele>
        <time>2013-05-01T08:32:17Z</time>
      </trkpt>
      <trkpt lat="45.55952" lon="5.94571">
        <ele>286.13</ele>
        <time>2013-05-01T08:32:18Z</time>
      </trkpt>
      <trkpt lat="45.55948" lon="5.94576">
        <ele>285.65</ele>
        <time>2013-05-01T08:32:19Z</time>
      </trkpt>
      <trkpt lat="45.55944" lon="5.94582">
        <ele>285.65</ele>
        <time>2013-05-01T08:32:20Z</time>
      </trkpt>
      <trkpt lat="45.55941" lon="5.94588">
        <ele>286.13</ele>
        <time>2013-05-01T08:32:21Z</time>
      </trkpt>
      <trkpt lat="45.55938" lon="5.94594">
        <ele>286.13</ele>
        <time>2013-05-01T08:32:22Z</time>
      </trkpt>
      <trkpt lat="45.55891" lon="5.94689">
        <ele>286.13</ele>
        <time>2013-05-01T08:32:37Z</time>
      </trkpt>
      <trkpt lat="45.55881" lon="5.94718">
        <ele>287.09</ele>
        <time>2013-05-01T08:32:41Z</time>
      </trkpt>
      <trkpt lat="45.55868" lon="5.94783">
        <ele>287.57</ele>
        <time>2013-05-01T08:32:50Z</time>
      </trkpt>
      <trkpt lat="45.55866" lon="5.94788">
        <ele>288.05</ele>
        <time>2013-05-01T08:32:51Z</time>
      </trkpt>
      <trkpt lat="45.55863" lon="5.94793">
        <ele>288.05</ele>
        <time>2013-05-01T08:32:52Z</time>
      </trkpt>
      <trkpt lat="45.55859" lon="5.94795">
        <ele>288.05</ele>
        <time>2013-05-01T08:32:53Z</time>
      </trkpt>
      <trkpt lat="45.55855" lon="5.94798">
        <ele>288.05</ele>
        <time>2013-05-01T08:32:54Z</time>
      </trkpt>
      <trkpt lat="45.55782" lon="5.94836">
        <ele>289.01</ele>
        <time>2013-05-01T08:33:10Z</time>
      </trkpt>
      <trkpt lat="45.5576" lon="5.94854">
        <ele>288.53</ele>
        <time>2013-05-01T08:33:16Z</time>
      </trkpt>
      <trkpt lat="45.55759" lon="5.94856">
        <ele>288.53</ele>
        <time>2013-05-01T08:33:17Z</time>
      </trkpt>
      <trkpt lat="45.55759" lon="5.94857">
        <ele>289.01</ele>
        <time>2013-05-01T08:33:22Z</time>
      </trkpt>
      <trkpt lat="45.5576" lon="5.94859">
        <ele>289.01</ele>
        <time>2013-05-01T08:33:23Z</time>
      </trkpt>
      <trkpt lat="45.55761" lon="5.94862">
        <ele>288.53</ele>
        <time>2013-05-01T08:33:24Z</time>
      </trkpt>
      <trkpt lat="45.55763" lon="5.94866">
        <ele>288.53</ele>
        <time>2013-05-01T08:33:25Z</time>
      </trkpt>
      <trkpt lat="45.55764" lon="5.9487">
        <ele>288.53</ele>
        <time>2013-05-01T08:33:26Z</time>
      </trkpt>
      <trkpt lat="45.55764" lon="5.94875">
        <ele>287.57</ele>
        <time>2013-05-01T08:33:27Z</time>
      </trkpt>
      <trkpt lat="45.55763" lon="5.9488">
        <ele>288.53</ele>
        <time>2013-05-01T08:33:28Z</time>
      </trkpt>
      <trkpt lat="45.5576" lon="5.94884">
        <ele>288.53</ele>
        <time>2013-05-01T08:33:29Z</time>
      </trkpt>
      <trkpt lat="45.55756" lon="5.94888">
        <ele>288.05</ele>
        <time>2013-05-01T08:33:30Z</time>
      </trkpt>
      <trkpt lat="45.55753" lon="5.94893">
        <ele>288.53</ele>
        <time>2013-05-01T08:33:31Z</time>
      </trkpt>
      <trkpt lat="45.55745" lon="5.949">
        <ele>288.53</ele>
        <time>2013-05-01T08:33:33Z</time>
      </trkpt>
      <trkpt lat="45.5574" lon="5.94903">
        <ele>288.05</ele>
        <time>2013-05-01T08:33:34Z</time>
      </trkpt>
      <trkpt lat="45.55735" lon="5.94906">
        <ele>288.53</ele>
        <time>2013-05-01T08:33:35Z</time>
      </trkpt>
      <trkpt lat="45.55731" lon="5.9491">
        <ele>288.53</ele>
        <time>2013-05-01T08:33:36Z</time>
      </trkpt>
      <trkpt lat="45.55727" lon="5.94914">
        <ele>288.05</ele>
        <time>2013-05-01T08:33:37Z</time>
      </trkpt>
      <trkpt lat="45.55723" lon="5.94918">
        <ele>288.53</ele>
        <time>2013-05-01T08:33:38Z</time>
      </trkpt>
      <trkpt lat="45.55719" lon="5.94923">
        <ele>288.53</ele>
        <time>2013-05-01T08:33:39Z</time>
      </trkpt>
      <trkpt lat="45.5569" lon="5.94972">
        <ele>289.01</ele>
        <time>2013-05-01T08:33:48Z</time>
      </trkpt>
      <trkpt lat="45.55687" lon="5.94977">
        <ele>289.49</ele>
        <time>2013-05-01T08:33:49Z</time>
      </trkpt>
      <trkpt lat="45.55616" lon="5.95061">
        <ele>289.01</ele>
        <time>2013-05-01T08:34:06Z</time>
      </trkpt>
      <trkpt lat="45.55535" lon="5.95165">
        <ele>289.01</ele>
        <time>2013-05-01T08:34:25Z</time>
      </trkpt>
      <trkpt lat="45.55463" lon="5.95256">
        <ele>288.53</ele>
        <time>2013-05-01T08:34:41Z</time>
      </trkpt>
      <trkpt lat="45.55387" lon="5.95346">
        <ele>290.46</ele>
        <time>2013-05-01T08:34:58Z</time>
      </trkpt>
      <trkpt lat="45.55351" lon="5.95389">
        <ele>291.9</ele>
        <time>2013-05-01T08:35:09Z</time>
      </trkpt>
      <trkpt lat="45.55349" lon="5.95395">
        <ele>292.38</ele>
        <time>2013-05-01T08:35:10Z</time>
      </trkpt>
      <trkpt lat="45.55349" lon="5.95401">
        <ele>291.9</ele>
        <time>2013-05-01T08:35:11Z</time>
      </trkpt>
      <trkpt lat="45.55349" lon="5.95407">
        <ele>291.42</ele>
        <time>2013-05-01T08:35:12Z</time>
      </trkpt>
      <trkpt lat="45.55351" lon="5.95413">
        <ele>291.9</ele>
        <time>2013-05-01T08:35:13Z</time>
      </trkpt>
      <trkpt lat="45.55354" lon="5.95418">
        <ele>291.42</ele>
        <time>2013-05-01T08:35:14Z</time>
      </trkpt>
      <trkpt lat="45.55358" lon="5.95422">
        <ele>291.42</ele>
        <time>2013-05-01T08:35:15Z</time>
      </trkpt>
      <trkpt lat="45.55362" lon="5.95425">
        <ele>291.42</ele>
        <time>2013-05-01T08:35:16Z</time>
      </trkpt>
      <trkpt lat="45.55367" lon="5.95428">
        <ele>291.42</ele>
        <time>2013-05-01T08:35:17Z</time>
      </trkpt>
      <trkpt lat="45.55375" lon="5.95433">
        <ele>291.42</ele>
        <time>2013-05-01T08:35:19Z</time>
      </trkpt>
      <trkpt lat="45.55379" lon="5.95431">
        <ele>290.94</ele>
        <time>2013-05-01T08:35:20Z</time>
      </trkpt>
      <trkpt lat="45.55382" lon="5.95427">
        <ele>290.46</ele>
        <time>2013-05-01T08:35:21Z</time>
      </trkpt>
      <trkpt lat="45.55389" lon="5.95415">
        <ele>289.97</ele>
        <time>2013-05-01T08:35:23Z</time>
      </trkpt>
      <trkpt lat="45.55393" lon="5.95412">
        <ele>289.97</ele>
        <time>2013-05-01T08:35:24Z</time>
      </trkpt>
      <trkpt lat="45.55397" lon="5.95411">
        <ele>289.97</ele>
        <time>2013-05-01T08:35:25Z</time>
      </trkpt>
      <trkpt lat="45.55402" lon="5.95413">
        <ele>289.49</ele>
        <time>2013-05-01T08:35:26Z</time>
      </trkpt>
      <trkpt lat="45.55406" lon="5.95416">
        <ele>289.97</ele>
        <time>2013-05-01T08:35:27Z</time>
      </trkpt>
      <trkpt lat="45.5541" lon="5.95418">
        <ele>289.97</ele>
        <time>2013-05-01T08:35:28Z</time>
      </trkpt>
      <trkpt lat="45.55414" lon="5.95421">
        <ele>289.01</ele>
        <time>2013-05-01T08:35:29Z</time>
      </trkpt>
      <trkpt lat="45.55418" lon="5.95424">
        <ele>289.01</ele>
        <time>2013-05-01T08:35:30Z</time>
      </trkpt>
      <trkpt lat="45.55429" lon="5.9543">
        <ele>289.49</ele>
        <time>2013-05-01T08:35:33Z</time>
      </trkpt>
      <trkpt lat="45.55439" lon="5.95427">
        <ele>289.49</ele>
        <time>2013-05-01T08:35:42Z</time>
      </trkpt>
      <trkpt lat="45.55439" lon="5.95427">
        <ele>289.49</ele>
        <time>2013-05-01T08:36:07Z</time>
      </trkpt>
      <trkpt lat="45.55439" lon="5.95427">
        <ele>289.49</ele>
        <time>2013-05-01T08:36:42Z</time>
      </trkpt>
      <trkpt lat="45.55456" lon="5.95413">
        <ele>289.97</ele>
        <time>2013-05-01T08:36:50Z</time>
      </trkpt>
      <trkpt lat="45.55459" lon="5.95409">
        <ele>289.97</ele>
        <time>2013-05-01T08:36:51Z</time>
      </trkpt>
      <trkpt lat="45.55462" lon="5.95404">
        <ele>289.97</ele>
        <time>2013-05-01T08:36:52Z</time>
      </trkpt>
      <trkpt lat="45.55465" lon="5.95399">
        <ele>289.49</ele>
        <time>2013-05-01T08:36:53Z</time>
      </trkpt>
      <trkpt lat="45.55467" lon="5.95393">
        <ele>289.01</ele>
        <time>2013-05-01T08:36:54Z</time>
      </trkpt>
      <trkpt lat="45.5547" lon="5.95388">
        <ele>289.01</ele>
        <time>2013-05-01T08:36:55Z</time>
      </trkpt>
      <trkpt lat="45.55474" lon="5.95384">
        <ele>289.01</ele>
        <time>2013-05-01T08:36:56Z</time>
      </trkpt>
      <trkpt lat="45.55478" lon="5.95381">
        <ele>289.01</ele>
        <time>2013-05-01T08:36:57Z</time>
      </trkpt>
      <trkpt lat="45.55482" lon="5.95379">
        <ele>288.53</ele>
        <time>2013-05-01T08:36:58Z</time>
      </trkpt>
      <trkpt lat="45.55486" lon="5.95379">
        <ele>288.53</ele>
        <time>2013-05-01T08:36:59Z</time>
      </trkpt>
      <trkpt lat="45.55489" lon="5.9538">
        <ele>288.53</ele>
        <time>2013-05-01T08:37:00Z</time>
      </trkpt>
      <trkpt lat="45.55492" lon="5.95384">
        <ele>288.53</ele>
        <time>2013-05-01T08:37:01Z</time>
      </trkpt>
      <trkpt lat="45.55495" lon="5.95388">
        <ele>288.53</ele>
        <time>2013-05-01T08:37:02Z</time>
      </trkpt>
      <trkpt lat="45.55537" lon="5.95475">
        <ele>290.94</ele>
        <time>2013-05-01T08:37:20Z</time>
      </trkpt>
      <trkpt lat="45.55582" lon="5.95557">
        <ele>292.86</ele>
        <time>2013-05-01T08:37:37Z</time>
      </trkpt>
      <trkpt lat="45.55591" lon="5.95571">
        <ele>292.86</ele>
        <time>2013-05-01T08:37:40Z</time>
      </trkpt>
      <trkpt lat="45.55602" lon="5.95585">
        <ele>292.86</ele>
        <time>2013-05-01T08:37:43Z</time>
      </trkpt>
      <trkpt lat="45.55665" lon="5.95654">
        <ele>292.86</ele>
        <time>2013-05-01T08:38:00Z</time>
      </trkpt>
      <trkpt lat="45.55687" lon="5.95679">
        <ele>293.34</ele>
        <time>2013-05-01T08:38:06Z</time>
      </trkpt>
      <trkpt lat="45.55735" lon="5.95735">
        <ele>296.22</ele>
        <time>2013-05-01T08:38:22Z</time>
      </trkpt>
      <trkpt lat="45.5579" lon="5.95794">
        <ele>295.26</ele>
        <time>2013-05-01T08:38:37Z</time>
      </trkpt>
      <trkpt lat="45.55794" lon="5.95799">
        <ele>294.78</ele>
        <time>2013-05-01T08:38:38Z</time>
      </trkpt>
      <trkpt lat="45.55797" lon="5.95804">
        <ele>294.78</ele>
        <time>2013-05-01T08:38:39Z</time>
      </trkpt>
      <trkpt lat="45.55808" lon="5.95817">
        <ele>294.3</ele>
        <time>2013-05-01T08:38:42Z</time>
      </trkpt>
      <trkpt lat="45.55809" lon="5.95823">
        <ele>294.78</ele>
        <time>2013-05-01T08:38:43Z</time>
      </trkpt>
      <trkpt lat="45.5581" lon="5.95829">
        <ele>294.3</ele>
        <time>2013-05-01T08:38:44Z</time>
      </trkpt>
      <trkpt lat="45.55809" lon="5.95835">
        <ele>294.78</ele>
        <time>2013-05-01T08:38:45Z</time>
      </trkpt>
      <trkpt lat="45.55808" lon="5.95842">
        <ele>294.3</ele>
        <time>2013-05-01T08:38:46Z</time>
      </trkpt>
      <trkpt lat="45.55806" lon="5.95849">
        <ele>294.3</ele>
        <time>2013-05-01T08:38:47Z</time>
      </trkpt>
      <trkpt lat="45.55773" lon="5.95969">
        <ele>293.34</ele>
        <time>2013-05-01T08:39:03Z</time>
      </trkpt>
      <trkpt lat="45.55727" lon="5.96095">
        <ele>293.34</ele>
        <time>2013-05-01T08:39:21Z</time>
      </trkpt>
      <trkpt lat="45.55679" lon="5.96183">
        <ele>294.78</ele>
        <time>2013-05-01T08:39:36Z</time>
      </trkpt>
      <trkpt lat="45.55662" lon="5.96207">
        <ele>296.22</ele>
        <time>2013-05-01T08:39:42Z</time>
      </trkpt>
      <trkpt lat="45.55658" lon="5.96206">
        <ele>295.74</ele>
        <time>2013-05-01T08:39:43Z</time>
      </trkpt>
      <trkpt lat="45.55655" lon="5.96203">
        <ele>296.22</ele>
        <time>2013-05-01T08:39:44Z</time>
      </trkpt>
      <trkpt lat="45.55652" lon="5.96199">
        <ele>295.26</ele>
        <time>2013-05-01T08:39:45Z</time>
      </trkpt>
      <trkpt lat="45.55649" lon="5.96194">
        <ele>295.26</ele>
        <time>2013-05-01T08:39:46Z</time>
      </trkpt>
      <trkpt lat="45.55646" lon="5.96188">
        <ele>295.26</ele>
        <time>2013-05-01T08:39:47Z</time>
      </trkpt>
      <trkpt lat="45.55639" lon="5.96178">
        <ele>294.78</ele>
        <time>2013-05-01T08:39:49Z</time>
      </trkpt>
      <trkpt lat="45.55634" lon="5.96175">
        <ele>294.3</ele>
        <time>2013-05-01T08:39:50Z</time>
      </trkpt>
      <trkpt lat="45.55629" lon="5.96175">
        <ele>294.3</ele>
        <time>2013-05-01T08:39:51Z</time>
      </trkpt>
      <trkpt lat="45.55623" lon="5.96177">
        <ele>294.3</ele>
        <time>2013-05-01T08:39:52Z</time>
      </trkpt>
      <trkpt lat="45.55618" lon="5.96178">
        <ele>294.3</ele>
        <time>2013-05-01T08:39:53Z</time>
      </trkpt>
      <trkpt lat="45.55553" lon="5.9621">
        <ele>297.18</ele>
        <time>2013-05-01T08:40:08Z</time>
      </trkpt>
      <trkpt lat="45.55488" lon="5.96252">
        <ele>298.63</ele>
        <time>2013-05-01T08:40:24Z</time>
      </trkpt>
      <trkpt lat="45.55436" lon="5.9627">
        <ele>299.11</ele>
        <time>2013-05-01T08:40:36Z</time>
      </trkpt>
      <trkpt lat="45.55358" lon="5.96272">
        <ele>300.07</ele>
        <time>2013-05-01T08:40:53Z</time>
      </trkpt>
      <trkpt lat="45.55306" lon="5.9629">
        <ele>301.99</ele>
        <time>2013-05-01T08:41:05Z</time>
      </trkpt>
      <trkpt lat="45.5526" lon="5.96352">
        <ele>302.95</ele>
        <time>2013-05-01T08:41:19Z</time>
      </trkpt>
      <trkpt lat="45.55236" lon="5.96397">
        <ele>302.95</ele>
        <time>2013-05-01T08:41:31Z</time>
      </trkpt>
      <trkpt lat="45.55228" lon="5.96411">
        <ele>303.43</ele>
        <time>2013-05-01T08:41:34Z</time>
      </trkpt>
      <trkpt lat="45.55225" lon="5.96416">
        <ele>302.95</ele>
        <time>2013-05-01T08:41:35Z</time>
      </trkpt>
      <trkpt lat="45.55222" lon="5.9642">
        <ele>302.95</ele>
        <time>2013-05-01T08:41:36Z</time>
      </trkpt>
      <trkpt lat="45.55218" lon="5.96424">
        <ele>303.43</ele>
        <time>2013-05-01T08:41:37Z</time>
      </trkpt>
      <trkpt lat="45.55214" lon="5.96427">
        <ele>303.43</ele>
        <time>2013-05-01T08:41:38Z</time>
      </trkpt>
      <trkpt lat="45.5521" lon="5.96429">
        <ele>303.43</ele>
        <time>2013-05-01T08:41:39Z</time>
      </trkpt>
      <trkpt lat="45.55206" lon="5.96431">
        <ele>303.43</ele>
        <time>2013-05-01T08:41:40Z</time>
      </trkpt>
      <trkpt lat="45.55124" lon="5.96463">
        <ele>304.88</ele>
        <time>2013-05-01T08:41:59Z</time>
      </trkpt>
      <trkpt lat="45.55106" lon="5.96468">
        <ele>305.84</ele>
        <time>2013-05-01T08:42:03Z</time>
      </trkpt>
      <trkpt lat="45.55102" lon="5.96468">
        <ele>305.84</ele>
        <time>2013-05-01T08:42:04Z</time>
      </trkpt>
      <trkpt lat="45.55098" lon="5.96469">
        <ele>305.84</ele>
        <time>2013-05-01T08:42:05Z</time>
      </trkpt>
      <trkpt lat="45.55095" lon="5.9647">
        <ele>306.32</ele>
        <time>2013-05-01T08:42:06Z</time>
      </trkpt>
      <trkpt lat="45.55091" lon="5.96471">
        <ele>306.32</ele>
        <time>2013-05-01T08:42:07Z</time>
      </trkpt>
      <trkpt lat="45.55034" lon="5.96491">
        <ele>308.24</ele>
        <time>2013-05-01T08:42:23Z</time>
      </trkpt>
      <trkpt lat="45.54956" lon="5.96542">
        <ele>309.68</ele>
        <time>2013-05-01T08:42:42Z</time>
      </trkpt>
      <trkpt lat="45.54934" lon="5.96559">
        <ele>310.16</ele>
        <time>2013-05-01T08:42:48Z</time>
      </trkpt>
      <trkpt lat="45.5493" lon="5.96561">
        <ele>310.16</ele>
        <time>2013-05-01T08:42:49Z</time>
      </trkpt>
      <trkpt lat="45.54926" lon="5.96563">
        <ele>309.68</ele>
        <time>2013-05-01T08:42:50Z</time>
      </trkpt>
      <trkpt lat="45.54922" lon="5.96564">
        <ele>309.68</ele>
        <time>2013-05-01T08:42:51Z</time>
      </trkpt>
      <trkpt lat="45.54918" lon="5.96563">
        <ele>310.16</ele>
        <time>2013-05-01T08:42:52Z</time>
      </trkpt>
      <trkpt lat="45.54916" lon="5.9656">
        <ele>310.16</ele>
        <time>2013-05-01T08:42:53Z</time>
      </trkpt>
      <trkpt lat="45.54915" lon="5.96555">
        <ele>310.16</ele>
        <time>2013-05-01T08:42:54Z</time>
      </trkpt>
      <trkpt lat="45.54914" lon="5.9655">
        <ele>310.16</ele>
        <time>2013-05-01T08:42:55Z</time>
      </trkpt>
      <trkpt lat="45.54913" lon="5.96545">
        <ele>310.16</ele>
        <time>2013-05-01T08:42:56Z</time>
      </trkpt>
      <trkpt lat="45.54913" lon="5.96489">
        <ele>308.72</ele>
        <time>2013-05-01T08:43:04Z</time>
      </trkpt>
      <trkpt lat="45.54914" lon="5.96481">
        <ele>308.72</ele>
        <time>2013-05-01T08:43:05Z</time>
      </trkpt>
      <trkpt lat="45.54915" lon="5.96474">
        <ele>308.72</ele>
        <time>2013-05-01T08:43:06Z</time>
      </trkpt>
      <trkpt lat="45.54917" lon="5.96466">
        <ele>308.72</ele>
        <time>2013-05-01T08:43:07Z</time>
      </trkpt>
      <trkpt lat="45.54917" lon="5.96459">
        <ele>308.72</ele>
        <time>2013-05-01T08:43:08Z</time>
      </trkpt>
      <trkpt lat="45.54917" lon="5.96453">
        <ele>308.72</ele>
        <time>2013-05-01T08:43:09Z</time>
      </trkpt>
      <trkpt lat="45.54916" lon="5.96447">
        <ele>308.72</ele>
        <time>2013-05-01T08:43:10Z</time>
      </trkpt>
      <trkpt lat="45.54915" lon="5.96442">
        <ele>309.2</ele>
        <time>2013-05-01T08:43:11Z</time>
      </trkpt>
      <trkpt lat="45.54911" lon="5.96414">
        <ele>312.57</ele>
        <time>2013-05-01T08:43:21Z</time>
      </trkpt>
      <trkpt lat="45.54911" lon="5.96412">
        <ele>312.57</ele>
        <time>2013-05-01T08:43:22Z</time>
      </trkpt>
      <trkpt lat="45.5491" lon="5.96404">
        <ele>313.53</ele>
        <time>2013-05-01T08:43:25Z</time>
      </trkpt>
      <trkpt lat="45.54909" lon="5.96403">
        <ele>314.01</ele>
        <time>2013-05-01T08:43:26Z</time>
      </trkpt>
      <trkpt lat="45.54908" lon="5.96401">
        <ele>314.49</ele>
        <time>2013-05-01T08:43:27Z</time>
      </trkpt>
      <trkpt lat="45.54907" lon="5.96398">
        <ele>314.49</ele>
        <time>2013-05-01T08:43:28Z</time>
      </trkpt>
      <trkpt lat="45.54906" lon="5.96396">
        <ele>314.01</ele>
        <time>2013-05-01T08:43:29Z</time>
      </trkpt>
      <trkpt lat="45.54905" lon="5.96393">
        <ele>314.97</ele>
        <time>2013-05-01T08:43:30Z</time>
      </trkpt>
      <trkpt lat="45.54902" lon="5.96388">
        <ele>315.45</ele>
        <time>2013-05-01T08:43:32Z</time>
      </trkpt>
      <trkpt lat="45.5487" lon="5.9634">
        <ele>314.97</ele>
        <time>2013-05-01T08:43:46Z</time>
      </trkpt>
      <trkpt lat="45.54838" lon="5.96284">
        <ele>314.97</ele>
        <time>2013-05-01T08:44:00Z</time>
      </trkpt>
      <trkpt lat="45.54834" lon="5.9628">
        <ele>314.49</ele>
        <time>2013-05-01T08:44:02Z</time>
      </trkpt>
      <trkpt lat="45.54832" lon="5.96279">
        <ele>314.49</ele>
        <time>2013-05-01T08:44:03Z</time>
      </trkpt>
      <trkpt lat="45.5483" lon="5.96279">
        <ele>314.49</ele>
        <time>2013-05-01T08:44:04Z</time>
      </trkpt>
      <trkpt lat="45.54828" lon="5.96282">
        <ele>314.49</ele>
        <time>2013-05-01T08:44:05Z</time>
      </trkpt>
      <trkpt lat="45.54827" lon="5.96285">
        <ele>314.49</ele>
        <time>2013-05-01T08:44:06Z</time>
      </trkpt>
      <trkpt lat="45.54825" lon="5.96289">
        <ele>314.97</ele>
        <time>2013-05-01T08:44:07Z</time>
      </trkpt>
      <trkpt lat="45.54823" lon="5.96293">
        <ele>314.49</ele>
        <time>2013-05-01T08:44:08Z</time>
      </trkpt>
      <trkpt lat="45.54821" lon="5.96296">
        <ele>314.49</ele>
        <time>2013-05-01T08:44:09Z</time>
      </trkpt>
      <trkpt lat="45.54811" lon="5.96309">
        <ele>315.93</ele>
        <time>2013-05-01T08:44:13Z</time>
      </trkpt>
      <trkpt lat="45.54767" lon="5.96338">
        <ele>318.33</ele>
        <time>2013-05-01T08:44:28Z</time>
      </trkpt>
      <trkpt lat="45.54724" lon="5.96361">
        <ele>321.22</ele>
        <time>2013-05-01T08:44:43Z</time>
      </trkpt>
      <trkpt lat="45.54673" lon="5.96392">
        <ele>323.14</ele>
        <time>2013-05-01T08:45:00Z</time>
      </trkpt>
      <trkpt lat="45.54616" lon="5.96429">
        <ele>325.06</ele>
        <time>2013-05-01T08:45:18Z</time>
      </trkpt>
      <trkpt lat="45.54567" lon="5.96437">
        <ele>324.1</ele>
        <time>2013-05-01T08:45:31Z</time>
      </trkpt>
      <trkpt lat="45.54512" lon="5.96455">
        <ele>324.58</ele>
        <time>2013-05-01T08:45:45Z</time>
      </trkpt>
      <trkpt lat="45.54453" lon="5.9648">
        <ele>325.54</ele>
        <time>2013-05-01T08:46:01Z</time>
      </trkpt>
      <trkpt lat="45.54404" lon="5.96503">
        <ele>326.02</ele>
        <time>2013-05-01T08:46:15Z</time>
      </trkpt>
      <trkpt lat="45.54334" lon="5.96539">
        <ele>324.1</ele>
        <time>2013-05-01T08:46:32Z</time>
      </trkpt>
      <trkpt lat="45.54302" lon="5.96571">
        <ele>325.06</ele>
        <time>2013-05-01T08:46:45Z</time>
      </trkpt>
      <trkpt lat="45.54303" lon="5.96603">
        <ele>322.66</ele>
        <time>2013-05-01T08:46:51Z</time>
      </trkpt>
      <trkpt lat="45.54305" lon="5.9661">
        <ele>322.18</ele>
        <time>2013-05-01T08:46:52Z</time>
      </trkpt>
      <trkpt lat="45.54313" lon="5.96643">
        <ele>319.3</ele>
        <time>2013-05-01T08:46:56Z</time>
      </trkpt>
      <trkpt lat="45.54318" lon="5.96662">
        <ele>317.85</ele>
        <time>2013-05-01T08:46:58Z</time>
      </trkpt>
      <trkpt lat="45.5432" lon="5.96676">
        <ele>316.89</ele>
        <time>2013-05-01T08:47:00Z</time>
      </trkpt>
      <trkpt lat="45.54321" lon="5.96682">
        <ele>316.41</ele>
        <time>2013-05-01T08:47:01Z</time>
      </trkpt>
      <trkpt lat="45.5432" lon="5.96686">
        <ele>316.41</ele>
        <time>2013-05-01T08:47:02Z</time>
      </trkpt>
      <trkpt lat="45.54319" lon="5.9669">
        <ele>316.41</ele>
        <time>2013-05-01T08:47:03Z</time>
      </trkpt>
      <trkpt lat="45.54316" lon="5.96693">
        <ele>315.93</ele>
        <time>2013-05-01T08:47:04Z</time>
      </trkpt>
      <trkpt lat="45.54313" lon="5.96695">
        <ele>315.45</ele>
        <time>2013-05-01T08:47:05Z</time>
      </trkpt>
      <trkpt lat="45.5431" lon="5.96697">
        <ele>315.45</ele>
        <time>2013-05-01T08:47:06Z</time>
      </trkpt>
      <trkpt lat="45.54307" lon="5.96698">
        <ele>315.93</ele>
        <time>2013-05-01T08:47:07Z</time>
      </trkpt>
      <trkpt lat="45.54303" lon="5.96698">
        <ele>315.93</ele>
        <time>2013-05-01T08:47:08Z</time>
      </trkpt>
      <trkpt lat="45.54255" lon="5.96712">
        <ele>317.37</ele>
        <time>2013-05-01T08:47:23Z</time>
      </trkpt>
      <trkpt lat="45.54207" lon="5.96733">
        <ele>318.81</ele>
        <time>2013-05-01T08:47:39Z</time>
      </trkpt>
      <trkpt lat="45.54155" lon="5.96747">
        <ele>320.74</ele>
        <time>2013-05-01T08:47:56Z</time>
      </trkpt>
      <trkpt lat="45.54113" lon="5.9676">
        <ele>323.14</ele>
        <time>2013-05-01T08:48:11Z</time>
      </trkpt>
      <trkpt lat="45.54098" lon="5.96791">
        <ele>322.66</ele>
        <time>2013-05-01T08:48:22Z</time>
      </trkpt>
      <trkpt lat="45.54103" lon="5.96847">
        <ele>321.7</ele>
        <time>2013-05-01T08:48:33Z</time>
      </trkpt>
      <trkpt lat="45.54104" lon="5.96871">
        <ele>321.7</ele>
        <time>2013-05-01T08:48:39Z</time>
      </trkpt>
      <trkpt lat="45.54107" lon="5.96875">
        <ele>321.7</ele>
        <time>2013-05-01T08:48:40Z</time>
      </trkpt>
      <trkpt lat="45.5411" lon="5.96878">
        <ele>321.7</ele>
        <time>2013-05-01T08:48:41Z</time>
      </trkpt>
      <trkpt lat="45.54113" lon="5.96881">
        <ele>321.22</ele>
        <time>2013-05-01T08:48:42Z</time>
      </trkpt>
      <trkpt lat="45.54117" lon="5.96883">
        <ele>321.22</ele>
        <time>2013-05-01T08:48:43Z</time>
      </trkpt>
      <trkpt lat="45.54121" lon="5.96886">
        <ele>321.22</ele>
        <time>2013-05-01T08:48:44Z</time>
      </trkpt>
      <trkpt lat="45.54171" lon="5.96941">
        <ele>321.7</ele>
        <time>2013-05-01T08:49:00Z</time>
      </trkpt>
      <trkpt lat="45.54199" lon="5.96992">
        <ele>320.74</ele>
        <time>2013-05-01T08:49:10Z</time>
      </trkpt>
      <trkpt lat="45.54197" lon="5.96997">
        <ele>320.74</ele>
        <time>2013-05-01T08:49:11Z</time>
      </trkpt>
      <trkpt lat="45.54194" lon="5.97">
        <ele>320.26</ele>
        <time>2013-05-01T08:49:12Z</time>
      </trkpt>
      <trkpt lat="45.54187" lon="5.97007">
        <ele>320.74</ele>
        <time>2013-05-01T08:49:14Z</time>
      </trkpt>
      <trkpt lat="45.54164" lon="5.97024">
        <ele>320.74</ele>
        <time>2013-05-01T08:49:20Z</time>
      </trkpt>
      <trkpt lat="45.5416" lon="5.97027">
        <ele>320.74</ele>
        <time>2013-05-01T08:49:21Z</time>
      </trkpt>
      <trkpt lat="45.54157" lon="5.97031">
        <ele>320.74</ele>
        <time>2013-05-01T08:49:22Z</time>
      </trkpt>
      <trkpt lat="45.54153" lon="5.97034">
        <ele>320.74</ele>
        <time>2013-05-01T08:49:23Z</time>
      </trkpt>
      <trkpt lat="45.54149" lon="5.97037">
        <ele>320.74</ele>
        <time>2013-05-01T08:49:24Z</time>
      </trkpt>
      <trkpt lat="45.54138" lon="5.97049">
        <ele>321.22</ele>
        <time>2013-05-01T08:49:28Z</time>
      </trkpt>
      <trkpt lat="45.54136" lon="5.9705">
        <ele>320.74</ele>
        <time>2013-05-01T08:49:29Z</time>
      </trkpt>
      <trkpt lat="45.54134" lon="5.97052">
        <ele>320.26</ele>
        <time>2013-05-01T08:49:30Z</time>
      </trkpt>
      <trkpt lat="45.54132" lon="5.97053">
        <ele>321.22</ele>
        <time>2013-05-01T08:49:31Z</time>
      </trkpt>
      <trkpt lat="45.5413" lon="5.97053">
        <ele>320.74</ele>
        <time>2013-05-01T08:49:32Z</time>
      </trkpt>
      <trkpt lat="45.54128" lon="5.97053">
        <ele>321.22</ele>
        <time>2013-05-01T08:49:33Z</time>
      </trkpt>
      <trkpt lat="45.54125" lon="5.97053">
        <ele>320.74</ele>
        <time>2013-05-01T08:49:34Z</time>
      </trkpt>
      <trkpt lat="45.54122" lon="5.97055">
        <ele>320.74</ele>
        <time>2013-05-01T08:49:35Z</time>
      </trkpt>
      <trkpt lat="45.5412" lon="5.97057">
        <ele>321.22</ele>
        <time>2013-05-01T08:49:36Z</time>
      </trkpt>
      <trkpt lat="45.54093" lon="5.97074">
        <ele>321.22</ele>
        <time>2013-05-01T08:49:46Z</time>
      </trkpt>
      <trkpt lat="45.54055" lon="5.97073">
        <ele>321.7</ele>
        <time>2013-05-01T08:49:59Z</time>
      </trkpt>
      <trkpt lat="45.54021" lon="5.97058">
        <ele>322.18</ele>
        <time>2013-05-01T08:50:11Z</time>
      </trkpt>
      <trkpt lat="45.53977" lon="5.97081">
        <ele>322.66</ele>
        <time>2013-05-01T08:50:26Z</time>
      </trkpt>
      <trkpt lat="45.53937" lon="5.971">
        <ele>323.62</ele>
        <time>2013-05-01T08:50:39Z</time>
      </trkpt>
      <trkpt lat="45.53893" lon="5.97114">
        <ele>324.58</ele>
        <time>2013-05-01T08:50:53Z</time>
      </trkpt>
      <trkpt lat="45.53838" lon="5.97133">
        <ele>326.99</ele>
        <time>2013-05-01T08:51:11Z</time>
      </trkpt>
      <trkpt lat="45.53787" lon="5.97139">
        <ele>329.87</ele>
        <time>2013-05-01T08:51:28Z</time>
      </trkpt>
      <trkpt lat="45.53751" lon="5.97154">
        <ele>331.31</ele>
        <time>2013-05-01T08:51:41Z</time>
      </trkpt>
      <trkpt lat="45.53705" lon="5.97176">
        <ele>334.2</ele>
        <time>2013-05-01T08:51:57Z</time>
      </trkpt>
      <trkpt lat="45.53654" lon="5.97197">
        <ele>336.12</ele>
        <time>2013-05-01T08:52:14Z</time>
      </trkpt>
      <trkpt lat="45.53607" lon="5.9722">
        <ele>337.56</ele>
        <time>2013-05-01T08:52:29Z</time>
      </trkpt>
      <trkpt lat="45.53554" lon="5.97235">
        <ele>338.04</ele>
        <time>2013-05-01T08:52:44Z</time>
      </trkpt>
      <trkpt lat="45.53489" lon="5.97284">
        <ele>338.52</ele>
        <time>2013-05-01T08:53:03Z</time>
      </trkpt>
      <trkpt lat="45.53443" lon="5.97324">
        <ele>337.08</ele>
        <time>2013-05-01T08:53:17Z</time>
      </trkpt>
      <trkpt lat="45.5343" lon="5.97341">
        <ele>336.6</ele>
        <time>2013-05-01T08:53:21Z</time>
      </trkpt>
      <trkpt lat="45.53426" lon="5.97345">
        <ele>335.64</ele>
        <time>2013-05-01T08:53:22Z</time>
      </trkpt>
      <trkpt lat="45.53377" lon="5.97399">
        <ele>332.27</ele>
        <time>2013-05-01T08:53:33Z</time>
      </trkpt>
      <trkpt lat="45.5336" lon="5.97409">
        <ele>332.27</ele>
        <time>2013-05-01T08:53:37Z</time>
      </trkpt>
      <trkpt lat="45.53355" lon="5.9741">
        <ele>332.27</ele>
        <time>2013-05-01T08:53:38Z</time>
      </trkpt>
      <trkpt lat="45.53283" lon="5.97448">
        <ele>332.27</ele>
        <time>2013-05-01T08:53:54Z</time>
      </trkpt>
      <trkpt lat="45.53239" lon="5.97473">
        <ele>333.23</ele>
        <time>2013-05-01T08:54:05Z</time>
      </trkpt>
      <trkpt lat="45.53235" lon="5.97475">
        <ele>333.23</ele>
        <time>2013-05-01T08:54:06Z</time>
      </trkpt>
      <trkpt lat="45.53232" lon="5.97478">
        <ele>333.23</ele>
        <time>2013-05-01T08:54:07Z</time>
      </trkpt>
      <trkpt lat="45.53229" lon="5.9748">
        <ele>332.75</ele>
        <time>2013-05-01T08:54:08Z</time>
      </trkpt>
      <trkpt lat="45.53225" lon="5.97483">
        <ele>333.71</ele>
        <time>2013-05-01T08:54:09Z</time>
      </trkpt>
      <trkpt lat="45.53223" lon="5.97485">
        <ele>333.71</ele>
        <time>2013-05-01T08:54:10Z</time>
      </trkpt>
      <trkpt lat="45.53213" lon="5.97495">
        <ele>331.31</ele>
        <time>2013-05-01T08:54:13Z</time>
      </trkpt>
      <trkpt lat="45.53209" lon="5.97499">
        <ele>330.83</ele>
        <time>2013-05-01T08:54:14Z</time>
      </trkpt>
      <trkpt lat="45.53205" lon="5.97502">
        <ele>330.83</ele>
        <time>2013-05-01T08:54:15Z</time>
      </trkpt>
      <trkpt lat="45.53202" lon="5.97505">
        <ele>329.87</ele>
        <time>2013-05-01T08:54:16Z</time>
      </trkpt>
      <trkpt lat="45.53198" lon="5.97509">
        <ele>330.35</ele>
        <time>2013-05-01T08:54:17Z</time>
      </trkpt>
      <trkpt lat="45.53196" lon="5.97513">
        <ele>330.35</ele>
        <time>2013-05-01T08:54:18Z</time>
      </trkpt>
      <trkpt lat="45.53195" lon="5.97518">
        <ele>329.87</ele>
        <time>2013-05-01T08:54:19Z</time>
      </trkpt>
      <trkpt lat="45.53195" lon="5.97523">
        <ele>329.39</ele>
        <time>2013-05-01T08:54:20Z</time>
      </trkpt>
      <trkpt lat="45.53197" lon="5.97528">
        <ele>329.39</ele>
        <time>2013-05-01T08:54:21Z</time>
      </trkpt>
      <trkpt lat="45.53198" lon="5.97533">
        <ele>329.39</ele>
        <time>2013-05-01T08:54:22Z</time>
      </trkpt>
      <trkpt lat="45.532" lon="5.97538">
        <ele>329.39</ele>
        <time>2013-05-01T08:54:23Z</time>
      </trkpt>
      <trkpt lat="45.53214" lon="5.97608">
        <ele>328.43</ele>
        <time>2013-05-01T08:54:36Z</time>
      </trkpt>
      <trkpt lat="45.53231" lon="5.97696">
        <ele>328.43</ele>
        <time>2013-05-01T08:54:53Z</time>
      </trkpt>
      <trkpt lat="45.53242" lon="5.9773">
        <ele>328.91</ele>
        <time>2013-05-01T08:55:05Z</time>
      </trkpt>
      <trkpt lat="45.53269" lon="5.97742">
        <ele>329.39</ele>
        <time>2013-05-01T08:55:18Z</time>
      </trkpt>
      <trkpt lat="45.53297" lon="5.97755">
        <ele>328.43</ele>
        <time>2013-05-01T08:55:29Z</time>
      </trkpt>
      <trkpt lat="45.53305" lon="5.97772">
        <ele>328.43</ele>
        <time>2013-05-01T08:55:35Z</time>
      </trkpt>
      <trkpt lat="45.53306" lon="5.97777">
        <ele>328.91</ele>
        <time>2013-05-01T08:55:36Z</time>
      </trkpt>
      <trkpt lat="45.53319" lon="5.97822">
        <ele>331.31</ele>
        <time>2013-05-01T08:55:48Z</time>
      </trkpt>
      <trkpt lat="45.53353" lon="5.97852">
        <ele>334.2</ele>
        <time>2013-05-01T08:56:03Z</time>
      </trkpt>
      <trkpt lat="45.53388" lon="5.97881">
        <ele>330.83</ele>
        <time>2013-05-01T08:56:15Z</time>
      </trkpt>
      <trkpt lat="45.53412" lon="5.97931">
        <ele>331.31</ele>
        <time>2013-05-01T08:56:27Z</time>
      </trkpt>
      <trkpt lat="45.53414" lon="5.97948">
        <ele>331.79</ele>
        <time>2013-05-01T08:56:33Z</time>
      </trkpt>
      <trkpt lat="45.53413" lon="5.9795">
        <ele>331.79</ele>
        <time>2013-05-01T08:56:34Z</time>
      </trkpt>
      <trkpt lat="45.53411" lon="5.97953">
        <ele>331.31</ele>
        <time>2013-05-01T08:56:35Z</time>
      </trkpt>
      <trkpt lat="45.5341" lon="5.97957">
        <ele>331.79</ele>
        <time>2013-05-01T08:56:36Z</time>
      </trkpt>
      <trkpt lat="45.53409" lon="5.97961">
        <ele>331.31</ele>
        <time>2013-05-01T08:56:37Z</time>
      </trkpt>
      <trkpt lat="45.53401" lon="5.98031">
        <ele>333.71</ele>
        <time>2013-05-01T08:56:54Z</time>
      </trkpt>
      <trkpt lat="45.53407" lon="5.98105">
        <ele>336.6</ele>
        <time>2013-05-01T08:57:13Z</time>
      </trkpt>
      <trkpt lat="45.53391" lon="5.98157">
        <ele>339</ele>
        <time>2013-05-01T08:57:28Z</time>
      </trkpt>
      <trkpt lat="45.53382" lon="5.98224">
        <ele>340.92</ele>
        <time>2013-05-01T08:57:43Z</time>
      </trkpt>
      <trkpt lat="45.53391" lon="5.98275">
        <ele>340.44</ele>
        <time>2013-05-01T08:57:57Z</time>
      </trkpt>
      <trkpt lat="45.53407" lon="5.98263">
        <ele>340.44</ele>
        <time>2013-05-01T08:58:01Z</time>
      </trkpt>
      <trkpt lat="45.53411" lon="5.98259">
        <ele>340.44</ele>
        <time>2013-05-01T08:58:02Z</time>
      </trkpt>
      <trkpt lat="45.53415" lon="5.98255">
        <ele>340.44</ele>
        <time>2013-05-01T08:58:03Z</time>
      </trkpt>
      <trkpt lat="45.53418" lon="5.98253">
        <ele>339.96</ele>
        <time>2013-05-01T08:58:04Z</time>
      </trkpt>
      <trkpt lat="45.53422" lon="5.98251">
        <ele>340.44</ele>
        <time>2013-05-01T08:58:05Z</time>
      </trkpt>
      <trkpt lat="45.53425" lon="5.9825">
        <ele>339.96</ele>
        <time>2013-05-01T08:58:06Z</time>
      </trkpt>
      <trkpt lat="45.53441" lon="5.98248">
        <ele>341.41</ele>
        <time>2013-05-01T08:58:12Z</time>
      </trkpt>
      <trkpt lat="45.53446" lon="5.98288">
        <ele>342.85</ele>
        <time>2013-05-01T08:58:24Z</time>
      </trkpt>
      <trkpt lat="45.5345" lon="5.98309">
        <ele>345.73</ele>
        <time>2013-05-01T08:58:38Z</time>
      </trkpt>
      <trkpt lat="45.5345" lon="5.98318">
        <ele>347.17</ele>
        <time>2013-05-01T08:58:48Z</time>
      </trkpt>
      <trkpt lat="45.53443" lon="5.98335">
        <ele>350.06</ele>
        <time>2013-05-01T08:59:06Z</time>
      </trkpt>
      <trkpt lat="45.53437" lon="5.98342">
        <ele>351.02</ele>
        <time>2013-05-01T08:59:19Z</time>
      </trkpt>
      <trkpt lat="45.53437" lon="5.98342">
        <ele>351.02</ele>
        <time>2013-05-01T08:59:31Z</time>
      </trkpt>
      <trkpt lat="45.53431" lon="5.98348">
        <ele>352.46</ele>
        <time>2013-05-01T08:59:35Z</time>
      </trkpt>
      <trkpt lat="45.5343" lon="5.98349">
        <ele>352.94</ele>
        <time>2013-05-01T08:59:36Z</time>
      </trkpt>
      <trkpt lat="45.53406" lon="5.98363">
        <ele>355.34</ele>
        <time>2013-05-01T08:59:49Z</time>
      </trkpt>
      <trkpt lat="45.53399" lon="5.98371">
        <ele>357.27</ele>
        <time>2013-05-01T09:00:02Z</time>
      </trkpt>
      <trkpt lat="45.53402" lon="5.98389">
        <ele>360.15</ele>
        <time>2013-05-01T09:00:18Z</time>
      </trkpt>
      <trkpt lat="45.53396" lon="5.98395">
        <ele>360.15</ele>
        <time>2013-05-01T09:00:31Z</time>
      </trkpt>
      <trkpt lat="45.53386" lon="5.98426">
        <ele>357.27</ele>
        <time>2013-05-01T09:00:42Z</time>
      </trkpt>
      <trkpt lat="45.53376" lon="5.98459">
        <ele>354.38</ele>
        <time>2013-05-01T09:00:48Z</time>
      </trkpt>
      <trkpt lat="45.5337" lon="5.9848">
        <ele>353.9</ele>
        <time>2013-05-01T09:00:51Z</time>
      </trkpt>
      <trkpt lat="45.53357" lon="5.98518">
        <ele>354.86</ele>
        <time>2013-05-01T09:01:01Z</time>
      </trkpt>
      <trkpt lat="45.53351" lon="5.98538">
        <ele>356.79</ele>
        <time>2013-05-01T09:01:08Z</time>
      </trkpt>
      <trkpt lat="45.53347" lon="5.98544">
        <ele>357.75</ele>
        <time>2013-05-01T09:01:11Z</time>
      </trkpt>
      <trkpt lat="45.53346" lon="5.98547">
        <ele>357.75</ele>
        <time>2013-05-01T09:01:12Z</time>
      </trkpt>
      <trkpt lat="45.53322" lon="5.98585">
        <ele>356.79</ele>
        <time>2013-05-01T09:01:23Z</time>
      </trkpt>
      <trkpt lat="45.5332" lon="5.98592">
        <ele>356.79</ele>
        <time>2013-05-01T09:01:24Z</time>
      </trkpt>
      <trkpt lat="45.53319" lon="5.98599">
        <ele>356.31</ele>
        <time>2013-05-01T09:01:25Z</time>
      </trkpt>
      <trkpt lat="45.53318" lon="5.98607">
        <ele>356.31</ele>
        <time>2013-05-01T09:01:26Z</time>
      </trkpt>
      <trkpt lat="45.5332" lon="5.98615">
        <ele>355.83</ele>
        <time>2013-05-01T09:01:27Z</time>
      </trkpt>
      <trkpt lat="45.53322" lon="5.98622">
        <ele>355.83</ele>
        <time>2013-05-01T09:01:28Z</time>
      </trkpt>
      <trkpt lat="45.53323" lon="5.9863">
        <ele>355.34</ele>
        <time>2013-05-01T09:01:29Z</time>
      </trkpt>
      <trkpt lat="45.53339" lon="5.98677">
        <ele>354.86</ele>
        <time>2013-05-01T09:01:36Z</time>
      </trkpt>
      <trkpt lat="45.53343" lon="5.98681">
        <ele>354.86</ele>
        <time>2013-05-01T09:01:37Z</time>
      </trkpt>
      <trkpt lat="45.53348" lon="5.98682">
        <ele>354.86</ele>
        <time>2013-05-01T09:01:38Z</time>
      </trkpt>
      <trkpt lat="45.53357" lon="5.9868">
        <ele>354.38</ele>
        <time>2013-05-01T09:01:40Z</time>
      </trkpt>
      <trkpt lat="45.5336" lon="5.98678">
        <ele>354.38</ele>
        <time>2013-05-01T09:01:41Z</time>
      </trkpt>
      <trkpt lat="45.53372" lon="5.9867">
        <ele>354.86</ele>
        <time>2013-05-01T09:01:44Z</time>
      </trkpt>
      <trkpt lat="45.53397" lon="5.98685">
        <ele>355.83</ele>
        <time>2013-05-01T09:01:52Z</time>
      </trkpt>
      <trkpt lat="45.53412" lon="5.98721">
        <ele>358.23</ele>
        <time>2013-05-01T09:02:02Z</time>
      </trkpt>
      <trkpt lat="45.53427" lon="5.98775">
        <ele>359.67</ele>
        <time>2013-05-01T09:02:16Z</time>
      </trkpt>
      <trkpt lat="45.53426" lon="5.98779">
        <ele>359.67</ele>
        <time>2013-05-01T09:02:17Z</time>
      </trkpt>
      <trkpt lat="45.53422" lon="5.98803">
        <ele>360.15</ele>
        <time>2013-05-01T09:02:23Z</time>
      </trkpt>
      <trkpt lat="45.53423" lon="5.98808">
        <ele>360.15</ele>
        <time>2013-05-01T09:02:24Z</time>
      </trkpt>
      <trkpt lat="45.5345" lon="5.98853">
        <ele>363.52</ele>
        <time>2013-05-01T09:02:38Z</time>
      </trkpt>
      <trkpt lat="45.53484" lon="5.98853">
        <ele>364.96</ele>
        <time>2013-05-01T09:02:50Z</time>
      </trkpt>
      <trkpt lat="45.53494" lon="5.98882">
        <ele>367.36</ele>
        <time>2013-05-01T09:03:00Z</time>
      </trkpt>
      <trkpt lat="45.5351" lon="5.98964">
        <ele>367.36</ele>
        <time>2013-05-01T09:03:19Z</time>
      </trkpt>
      <trkpt lat="45.53513" lon="5.9899">
        <ele>365.44</ele>
        <time>2013-05-01T09:03:26Z</time>
      </trkpt>
      <trkpt lat="45.53522" lon="5.99002">
        <ele>362.07</ele>
        <time>2013-05-01T09:03:32Z</time>
      </trkpt>
      <trkpt lat="45.53532" lon="5.99018">
        <ele>358.23</ele>
        <time>2013-05-01T09:03:38Z</time>
      </trkpt>
      <trkpt lat="45.53532" lon="5.9902">
        <ele>357.75</ele>
        <time>2013-05-01T09:03:39Z</time>
      </trkpt>
      <trkpt lat="45.5353" lon="5.99025">
        <ele>355.34</ele>
        <time>2013-05-01T09:03:43Z</time>
      </trkpt>
      <trkpt lat="45.53526" lon="5.99026">
        <ele>353.9</ele>
        <time>2013-05-01T09:03:45Z</time>
      </trkpt>
      <trkpt lat="45.53523" lon="5.99027">
        <ele>353.42</ele>
        <time>2013-05-01T09:03:46Z</time>
      </trkpt>
      <trkpt lat="45.5352" lon="5.99028">
        <ele>351.98</ele>
        <time>2013-05-01T09:03:47Z</time>
      </trkpt>
      <trkpt lat="45.53517" lon="5.99028">
        <ele>351.98</ele>
        <time>2013-05-01T09:03:48Z</time>
      </trkpt>
      <trkpt lat="45.53514" lon="5.99029">
        <ele>352.46</ele>
        <time>2013-05-01T09:03:49Z</time>
      </trkpt>
      <trkpt lat="45.53511" lon="5.99029">
        <ele>351.5</ele>
        <time>2013-05-01T09:03:50Z</time>
      </trkpt>
      <trkpt lat="45.53499" lon="5.99035">
        <ele>348.13</ele>
        <time>2013-05-01T09:03:55Z</time>
      </trkpt>
      <trkpt lat="45.53479" lon="5.99039">
        <ele>346.21</ele>
        <time>2013-05-01T09:04:00Z</time>
      </trkpt>
      <trkpt lat="45.53465" lon="5.99037">
        <ele>343.81</ele>
        <time>2013-05-01T09:04:04Z</time>
      </trkpt>
      <trkpt lat="45.53451" lon="5.99037">
        <ele>340.44</ele>
        <time>2013-05-01T09:04:09Z</time>
      </trkpt>
      <trkpt lat="45.53448" lon="5.99038">
        <ele>339.96</ele>
        <time>2013-05-01T09:04:10Z</time>
      </trkpt>
      <trkpt lat="45.53437" lon="5.99071">
        <ele>338.52</ele>
        <time>2013-05-01T09:04:21Z</time>
      </trkpt>
      <trkpt lat="45.53443" lon="5.99081">
        <ele>337.08</ele>
        <time>2013-05-01T09:04:23Z</time>
      </trkpt>
      <trkpt lat="45.53471" lon="5.99103">
        <ele>334.2</ele>
        <time>2013-05-01T09:04:29Z</time>
      </trkpt>
      <trkpt lat="45.53531" lon="5.99123">
        <ele>330.35</ele>
        <time>2013-05-01T09:04:36Z</time>
      </trkpt>
      <trkpt lat="45.53627" lon="5.99149">
        <ele>326.99</ele>
        <time>2013-05-01T09:04:47Z</time>
      </trkpt>
      <trkpt lat="45.53632" lon="5.99155">
        <ele>326.5</ele>
        <time>2013-05-01T09:04:48Z</time>
      </trkpt>
      <trkpt lat="45.53636" lon="5.99161">
        <ele>326.02</ele>
        <time>2013-05-01T09:04:49Z</time>
      </trkpt>
      <trkpt lat="45.53643" lon="5.99172">
        <ele>325.06</ele>
        <time>2013-05-01T09:04:57Z</time>
      </trkpt>
      <trkpt lat="45.53643" lon="5.99177">
        <ele>325.54</ele>
        <time>2013-05-01T09:05:01Z</time>
      </trkpt>
      <trkpt lat="45.53642" lon="5.99179">
        <ele>325.06</ele>
        <time>2013-05-01T09:05:02Z</time>
      </trkpt>
      <trkpt lat="45.53641" lon="5.9918">
        <ele>325.06</ele>
        <time>2013-05-01T09:05:03Z</time>
      </trkpt>
      <trkpt lat="45.5364" lon="5.99182">
        <ele>325.06</ele>
        <time>2013-05-01T09:05:04Z</time>
      </trkpt>
      <trkpt lat="45.5364" lon="5.99185">
        <ele>325.06</ele>
        <time>2013-05-01T09:05:05Z</time>
      </trkpt>
      <trkpt lat="45.53642" lon="5.99187">
        <ele>325.06</ele>
        <time>2013-05-01T09:05:06Z</time>
      </trkpt>
      <trkpt lat="45.53645" lon="5.9919">
        <ele>325.06</ele>
        <time>2013-05-01T09:05:07Z</time>
      </trkpt>
      <trkpt lat="45.53669" lon="5.99207">
        <ele>326.5</ele>
        <time>2013-05-01T09:05:16Z</time>
      </trkpt>
      <trkpt lat="45.53714" lon="5.99183">
        <ele>327.47</ele>
        <time>2013-05-01T09:05:28Z</time>
      </trkpt>
      <trkpt lat="45.53777" lon="5.99145">
        <ele>328.43</ele>
        <time>2013-05-01T09:05:43Z</time>
      </trkpt>
      <trkpt lat="45.53793" lon="5.99136">
        <ele>327.47</ele>
        <time>2013-05-01T09:05:47Z</time>
      </trkpt>
      <trkpt lat="45.53798" lon="5.99135">
        <ele>327.47</ele>
        <time>2013-05-01T09:05:48Z</time>
      </trkpt>
      <trkpt lat="45.53802" lon="5.99137">
        <ele>327.95</ele>
        <time>2013-05-01T09:05:49Z</time>
      </trkpt>
      <trkpt lat="45.53806" lon="5.9914">
        <ele>327.95</ele>
        <time>2013-05-01T09:05:50Z</time>
      </trkpt>
      <trkpt lat="45.53809" lon="5.99145">
        <ele>327.95</ele>
        <time>2013-05-01T09:05:51Z</time>
      </trkpt>
      <trkpt lat="45.53811" lon="5.9915">
        <ele>327.95</ele>
        <time>2013-05-01T09:05:52Z</time>
      </trkpt>
      <trkpt lat="45.53812" lon="5.99155">
        <ele>328.43</ele>
        <time>2013-05-01T09:05:53Z</time>
      </trkpt>
      <trkpt lat="45.53813" lon="5.99161">
        <ele>328.43</ele>
        <time>2013-05-01T09:05:54Z</time>
      </trkpt>
      <trkpt lat="45.53835" lon="5.99243">
        <ele>331.31</ele>
        <time>2013-05-01T09:06:11Z</time>
      </trkpt>
      <trkpt lat="45.53857" lon="5.99304">
        <ele>334.2</ele>
        <time>2013-05-01T09:06:27Z</time>
      </trkpt>
      <trkpt lat="45.53861" lon="5.99308">
        <ele>334.2</ele>
        <time>2013-05-01T09:06:29Z</time>
      </trkpt>
      <trkpt lat="45.53862" lon="5.99307">
        <ele>334.2</ele>
        <time>2013-05-01T09:06:30Z</time>
      </trkpt>
      <trkpt lat="45.53873" lon="5.99317">
        <ele>333.71</ele>
        <time>2013-05-01T09:06:36Z</time>
      </trkpt>
      <trkpt lat="45.53873" lon="5.9932">
        <ele>334.2</ele>
        <time>2013-05-01T09:06:37Z</time>
      </trkpt>
      <trkpt lat="45.53872" lon="5.99323">
        <ele>334.2</ele>
        <time>2013-05-01T09:06:38Z</time>
      </trkpt>
      <trkpt lat="45.5387" lon="5.99326">
        <ele>334.2</ele>
        <time>2013-05-01T09:06:39Z</time>
      </trkpt>
      <trkpt lat="45.53867" lon="5.9933">
        <ele>334.68</ele>
        <time>2013-05-01T09:06:40Z</time>
      </trkpt>
      <trkpt lat="45.53845" lon="5.9939">
        <ele>336.6</ele>
        <time>2013-05-01T09:06:54Z</time>
      </trkpt>
      <trkpt lat="45.53833" lon="5.99451">
        <ele>337.08</ele>
        <time>2013-05-01T09:07:08Z</time>
      </trkpt>
      <trkpt lat="45.53843" lon="5.99524">
        <ele>338.52</ele>
        <time>2013-05-01T09:07:25Z</time>
      </trkpt>
      <trkpt lat="45.53843" lon="5.9958">
        <ele>340.92</ele>
        <time>2013-05-01T09:07:38Z</time>
      </trkpt>
      <trkpt lat="45.53857" lon="5.99645">
        <ele>343.81</ele>
        <time>2013-05-01T09:07:55Z</time>
      </trkpt>
      <trkpt lat="45.53857" lon="5.9967">
        <ele>345.25</ele>
        <time>2013-05-01T09:08:03Z</time>
      </trkpt>
      <trkpt lat="45.53856" lon="5.9967">
        <ele>345.25</ele>
        <time>2013-05-01T09:08:16Z</time>
      </trkpt>
      <trkpt lat="45.53858" lon="5.99669">
        <ele>345.25</ele>
        <time>2013-05-01T09:08:18Z</time>
      </trkpt>
      <trkpt lat="45.53859" lon="5.99667">
        <ele>345.73</ele>
        <time>2013-05-01T09:08:19Z</time>
      </trkpt>
      <trkpt lat="45.5386" lon="5.99664">
        <ele>345.25</ele>
        <time>2013-05-01T09:08:20Z</time>
      </trkpt>
      <trkpt lat="45.53861" lon="5.99661">
        <ele>345.25</ele>
        <time>2013-05-01T09:08:21Z</time>
      </trkpt>
      <trkpt lat="45.53861" lon="5.99658">
        <ele>345.25</ele>
        <time>2013-05-01T09:08:22Z</time>
      </trkpt>
      <trkpt lat="45.53862" lon="5.99654">
        <ele>344.77</ele>
        <time>2013-05-01T09:08:23Z</time>
      </trkpt>
      <trkpt lat="45.53863" lon="5.99651">
        <ele>344.77</ele>
        <time>2013-05-01T09:08:24Z</time>
      </trkpt>
      <trkpt lat="45.53864" lon="5.9965">
        <ele>344.77</ele>
        <time>2013-05-01T09:08:25Z</time>
      </trkpt>
      <trkpt lat="45.53869" lon="5.9965">
        <ele>344.29</ele>
        <time>2013-05-01T09:08:27Z</time>
      </trkpt>
      <trkpt lat="45.53905" lon="5.99652">
        <ele>346.21</ele>
        <time>2013-05-01T09:08:42Z</time>
      </trkpt>
      <trkpt lat="45.53904" lon="5.99681">
        <ele>349.58</ele>
        <time>2013-05-01T09:08:56Z</time>
      </trkpt>
      <trkpt lat="45.53903" lon="5.99693">
        <ele>351.5</ele>
        <time>2013-05-01T09:09:02Z</time>
      </trkpt>
      <trkpt lat="45.53899" lon="5.99719">
        <ele>354.86</ele>
        <time>2013-05-01T09:09:14Z</time>
      </trkpt>
      <trkpt lat="45.53897" lon="5.99731">
        <ele>356.31</ele>
        <time>2013-05-01T09:09:22Z</time>
      </trkpt>
      <trkpt lat="45.53882" lon="5.99764">
        <ele>355.83</ele>
        <time>2013-05-01T09:09:36Z</time>
      </trkpt>
      <trkpt lat="45.53873" lon="5.99781">
        <ele>352.46</ele>
        <time>2013-05-01T09:09:43Z</time>
      </trkpt>
      <trkpt lat="45.53862" lon="5.99811">
        <ele>351.98</ele>
        <time>2013-05-01T09:09:53Z</time>
      </trkpt>
      <trkpt lat="45.53864" lon="5.99819">
        <ele>352.46</ele>
        <time>2013-05-01T09:10:07Z</time>
      </trkpt>
      <trkpt lat="45.53867" lon="5.9983">
        <ele>352.46</ele>
        <time>2013-05-01T09:10:12Z</time>
      </trkpt>
      <trkpt lat="45.53866" lon="5.99838">
        <ele>353.9</ele>
        <time>2013-05-01T09:10:15Z</time>
      </trkpt>
      <trkpt lat="45.53871" lon="5.99848">
        <ele>354.86</ele>
        <time>2013-05-01T09:10:20Z</time>
      </trkpt>
      <trkpt lat="45.5388" lon="5.99874">
        <ele>356.79</ele>
        <time>2013-05-01T09:10:32Z</time>
      </trkpt>
      <trkpt lat="45.53883" lon="5.99883">
        <ele>357.27</ele>
        <time>2013-05-01T09:10:42Z</time>
      </trkpt>
      <trkpt lat="45.53891" lon="5.99891">
        <ele>357.75</ele>
        <time>2013-05-01T09:10:55Z</time>
      </trkpt>
      <trkpt lat="45.53894" lon="5.99901">
        <ele>357.75</ele>
        <time>2013-05-01T09:11:12Z</time>
      </trkpt>
      <trkpt lat="45.53894" lon="5.9991">
        <ele>358.71</ele>
        <time>2013-05-01T09:11:26Z</time>
      </trkpt>
      <trkpt lat="45.53898" lon="5.99917">
        <ele>359.19</ele>
        <time>2013-05-01T09:11:39Z</time>
      </trkpt>
      <trkpt lat="45.53903" lon="5.99924">
        <ele>361.11</ele>
        <time>2013-05-01T09:11:43Z</time>
      </trkpt>
      <trkpt lat="45.53911" lon="5.99935">
        <ele>363.04</ele>
        <time>2013-05-01T09:11:55Z</time>
      </trkpt>
      <trkpt lat="45.5392" lon="5.99942">
        <ele>365.44</ele>
        <time>2013-05-01T09:12:10Z</time>
      </trkpt>
      <trkpt lat="45.53928" lon="5.99946">
        <ele>367.36</ele>
        <time>2013-05-01T09:12:24Z</time>
      </trkpt>
      <trkpt lat="45.5394" lon="5.9995">
        <ele>368.8</ele>
        <time>2013-05-01T09:12:38Z</time>
      </trkpt>
      <trkpt lat="45.53945" lon="5.99951">
        <ele>369.28</ele>
        <time>2013-05-01T09:12:51Z</time>
      </trkpt>
      <trkpt lat="45.53958" lon="5.99985">
        <ele>371.21</ele>
        <time>2013-05-01T09:13:06Z</time>
      </trkpt>
      <trkpt lat="45.5396" lon="5.99991">
        <ele>372.17</ele>
        <time>2013-05-01T09:13:09Z</time>
      </trkpt>
      <trkpt lat="45.53969" lon="6.00026">
        <ele>374.57</ele>
        <time>2013-05-01T09:13:24Z</time>
      </trkpt>
      <trkpt lat="45.5398" lon="6.00059">
        <ele>377.45</ele>
        <time>2013-05-01T09:13:40Z</time>
      </trkpt>
      <trkpt lat="45.53988" lon="6.00089">
        <ele>378.9</ele>
        <time>2013-05-01T09:13:53Z</time>
      </trkpt>
      <trkpt lat="45.53995" lon="6.00116">
        <ele>381.3</ele>
        <time>2013-05-01T09:14:05Z</time>
      </trkpt>
      <trkpt lat="45.54009" lon="6.00147">
        <ele>383.22</ele>
        <time>2013-05-01T09:14:20Z</time>
      </trkpt>
      <trkpt lat="45.54027" lon="6.00165">
        <ele>386.59</ele>
        <time>2013-05-01T09:14:33Z</time>
      </trkpt>
      <trkpt lat="45.54043" lon="6.00178">
        <ele>387.07</ele>
        <time>2013-05-01T09:14:45Z</time>
      </trkpt>
      <trkpt lat="45.54062" lon="6.00198">
        <ele>388.99</ele>
        <time>2013-05-01T09:14:58Z</time>
      </trkpt>
      <trkpt lat="45.54076" lon="6.00222">
        <ele>392.36</ele>
        <time>2013-05-01T09:15:11Z</time>
      </trkpt>
      <trkpt lat="45.54101" lon="6.00248">
        <ele>393.32</ele>
        <time>2013-05-01T09:15:27Z</time>
      </trkpt>
      <trkpt lat="45.54125" lon="6.00259">
        <ele>396.68</ele>
        <time>2013-05-01T09:15:41Z</time>
      </trkpt>
      <trkpt lat="45.54126" lon="6.0026">
        <ele>396.2</ele>
        <time>2013-05-01T09:15:42Z</time>
      </trkpt>
      <trkpt lat="45.54139" lon="6.00281">
        <ele>399.57</ele>
        <time>2013-05-01T09:15:56Z</time>
      </trkpt>
      <trkpt lat="45.54142" lon="6.00286">
        <ele>399.57</ele>
        <time>2013-05-01T09:15:58Z</time>
      </trkpt>
      <trkpt lat="45.54157" lon="6.00319">
        <ele>401.01</ele>
        <time>2013-05-01T09:16:12Z</time>
      </trkpt>
      <trkpt lat="45.54177" lon="6.00339">
        <ele>402.93</ele>
        <time>2013-05-01T09:16:25Z</time>
      </trkpt>
      <trkpt lat="45.54178" lon="6.00346">
        <ele>403.41</ele>
        <time>2013-05-01T09:16:28Z</time>
      </trkpt>
      <trkpt lat="45.5415" lon="6.00364">
        <ele>404.85</ele>
        <time>2013-05-01T09:16:41Z</time>
      </trkpt>
      <trkpt lat="45.54147" lon="6.00367">
        <ele>405.33</ele>
        <time>2013-05-01T09:16:43Z</time>
      </trkpt>
      <trkpt lat="45.5414" lon="6.00382">
        <ele>406.77</ele>
        <time>2013-05-01T09:16:50Z</time>
      </trkpt>
      <trkpt lat="45.54118" lon="6.0041">
        <ele>409.66</ele>
        <time>2013-05-01T09:17:04Z</time>
      </trkpt>
      <trkpt lat="45.54094" lon="6.00434">
        <ele>412.54</ele>
        <time>2013-05-01T09:17:19Z</time>
      </trkpt>
      <trkpt lat="45.5409" lon="6.00448">
        <ele>413.5</ele>
        <time>2013-05-01T09:17:24Z</time>
      </trkpt>
      <trkpt lat="45.54093" lon="6.00496">
        <ele>416.87</ele>
        <time>2013-05-01T09:17:41Z</time>
      </trkpt>
      <trkpt lat="45.54093" lon="6.0051">
        <ele>417.83</ele>
        <time>2013-05-01T09:17:46Z</time>
      </trkpt>
      <trkpt lat="45.54081" lon="6.00514">
        <ele>417.35</ele>
        <time>2013-05-01T09:17:54Z</time>
      </trkpt>
      <trkpt lat="45.5403" lon="6.00512">
        <ele>413.98</ele>
        <time>2013-05-01T09:18:05Z</time>
      </trkpt>
      <trkpt lat="45.53987" lon="6.00508">
        <ele>411.1</ele>
        <time>2013-05-01T09:18:14Z</time>
      </trkpt>
      <trkpt lat="45.53985" lon="6.00508">
        <ele>411.58</ele>
        <time>2013-05-01T09:18:18Z</time>
      </trkpt>
      <trkpt lat="45.53983" lon="6.0051">
        <ele>411.58</ele>
        <time>2013-05-01T09:18:19Z</time>
      </trkpt>
      <trkpt lat="45.53952" lon="6.00528">
        <ele>412.06</ele>
        <time>2013-05-01T09:18:30Z</time>
      </trkpt>
      <trkpt lat="45.53916" lon="6.00529">
        <ele>414.47</ele>
        <time>2013-05-01T09:18:41Z</time>
      </trkpt>
      <trkpt lat="45.53877" lon="6.00529">
        <ele>416.39</ele>
        <time>2013-05-01T09:18:56Z</time>
      </trkpt>
      <trkpt lat="45.53846" lon="6.00539">
        <ele>417.83</ele>
        <time>2013-05-01T09:19:10Z</time>
      </trkpt>
      <trkpt lat="45.53811" lon="6.00551">
        <ele>421.19</ele>
        <time>2013-05-01T09:19:27Z</time>
      </trkpt>
      <trkpt lat="45.53771" lon="6.00542">
        <ele>423.12</ele>
        <time>2013-05-01T09:19:45Z</time>
      </trkpt>
      <trkpt lat="45.5373" lon="6.00541">
        <ele>424.56</ele>
        <time>2013-05-01T09:20:01Z</time>
      </trkpt>
      <trkpt lat="45.53684" lon="6.00543">
        <ele>425.52</ele>
        <time>2013-05-01T09:20:19Z</time>
      </trkpt>
      <trkpt lat="45.53646" lon="6.00551">
        <ele>427.44</ele>
        <time>2013-05-01T09:20:35Z</time>
      </trkpt>
      <trkpt lat="45.53611" lon="6.00558">
        <ele>430.33</ele>
        <time>2013-05-01T09:20:51Z</time>
      </trkpt>
      <trkpt lat="45.53574" lon="6.00567">
        <ele>431.77</ele>
        <time>2013-05-01T09:21:07Z</time>
      </trkpt>
      <trkpt lat="45.53528" lon="6.00574">
        <ele>433.21</ele>
        <time>2013-05-01T09:21:25Z</time>
      </trkpt>
      <trkpt lat="45.53494" lon="6.00578">
        <ele>435.13</ele>
        <time>2013-05-01T09:21:40Z</time>
      </trkpt>
      <trkpt lat="45.53472" lon="6.00582">
        <ele>438.02</ele>
        <time>2013-05-01T09:21:54Z</time>
      </trkpt>
      <trkpt lat="45.53443" lon="6.00588">
        <ele>437.06</ele>
        <time>2013-05-01T09:22:06Z</time>
      </trkpt>
      <trkpt lat="45.53385" lon="6.00593">
        <ele>434.17</ele>
        <time>2013-05-01T09:22:20Z</time>
      </trkpt>
      <trkpt lat="45.53328" lon="6.00586">
        <ele>430.81</ele>
        <time>2013-05-01T09:22:29Z</time>
      </trkpt>
      <trkpt lat="45.53304" lon="6.00583">
        <ele>429.37</ele>
        <time>2013-05-01T09:22:32Z</time>
      </trkpt>
      <trkpt lat="45.53252" lon="6.00578">
        <ele>428.89</ele>
        <time>2013-05-01T09:22:41Z</time>
      </trkpt>
      <trkpt lat="45.53217" lon="6.0057">
        <ele>429.37</ele>
        <time>2013-05-01T09:22:51Z</time>
      </trkpt>
      <trkpt lat="45.53172" lon="6.00542">
        <ele>429.85</ele>
        <time>2013-05-01T09:23:04Z</time>
      </trkpt>
      <trkpt lat="45.53126" lon="6.00489">
        <ele>431.77</ele>
        <time>2013-05-01T09:23:21Z</time>
      </trkpt>
      <trkpt lat="45.53098" lon="6.00446">
        <ele>432.73</ele>
        <time>2013-05-01T09:23:34Z</time>
      </trkpt>
      <trkpt lat="45.53067" lon="6.00395">
        <ele>433.69</ele>
        <time>2013-05-01T09:23:49Z</time>
      </trkpt>
      <trkpt lat="45.53049" lon="6.0036">
        <ele>436.1</ele>
        <time>2013-05-01T09:24:01Z</time>
      </trkpt>
      <trkpt lat="45.53048" lon="6.00359">
        <ele>435.61</ele>
        <time>2013-05-01T09:24:02Z</time>
      </trkpt>
      <trkpt lat="45.53046" lon="6.00359">
        <ele>435.13</ele>
        <time>2013-05-01T09:24:03Z</time>
      </trkpt>
      <trkpt lat="45.53043" lon="6.00358">
        <ele>434.65</ele>
        <time>2013-05-01T09:24:04Z</time>
      </trkpt>
      <trkpt lat="45.5304" lon="6.00357">
        <ele>434.17</ele>
        <time>2013-05-01T09:24:05Z</time>
      </trkpt>
      <trkpt lat="45.53032" lon="6.00353">
        <ele>433.21</ele>
        <time>2013-05-01T09:24:08Z</time>
      </trkpt>
      <trkpt lat="45.53026" lon="6.00349">
        <ele>431.77</ele>
        <time>2013-05-01T09:24:10Z</time>
      </trkpt>
      <trkpt lat="45.53011" lon="6.00333">
        <ele>428.89</ele>
        <time>2013-05-01T09:24:15Z</time>
      </trkpt>
      <trkpt lat="45.52996" lon="6.00323">
        <ele>425.52</ele>
        <time>2013-05-01T09:24:19Z</time>
      </trkpt>
      <trkpt lat="45.52982" lon="6.00313">
        <ele>422.64</ele>
        <time>2013-05-01T09:24:24Z</time>
      </trkpt>
      <trkpt lat="45.52982" lon="6.00309">
        <ele>423.12</ele>
        <time>2013-05-01T09:24:25Z</time>
      </trkpt>
      <trkpt lat="45.52982" lon="6.00305">
        <ele>423.12</ele>
        <time>2013-05-01T09:24:26Z</time>
      </trkpt>
      <trkpt lat="45.52975" lon="6.00231">
        <ele>422.64</ele>
        <time>2013-05-01T09:24:41Z</time>
      </trkpt>
      <trkpt lat="45.52967" lon="6.00161">
        <ele>422.16</ele>
        <time>2013-05-01T09:24:55Z</time>
      </trkpt>
      <trkpt lat="45.52953" lon="6.00119">
        <ele>421.68</ele>
        <time>2013-05-01T09:25:08Z</time>
      </trkpt>
      <trkpt lat="45.52947" lon="6.00121">
        <ele>421.68</ele>
        <time>2013-05-01T09:25:10Z</time>
      </trkpt>
      <trkpt lat="45.52942" lon="6.00124">
        <ele>422.16</ele>
        <time>2013-05-01T09:25:11Z</time>
      </trkpt>
      <trkpt lat="45.52929" lon="6.00135">
        <ele>422.16</ele>
        <time>2013-05-01T09:25:14Z</time>
      </trkpt>
      <trkpt lat="45.52926" lon="6.00138">
        <ele>421.68</ele>
        <time>2013-05-01T09:25:15Z</time>
      </trkpt>
      <trkpt lat="45.52922" lon="6.0014">
        <ele>422.16</ele>
        <time>2013-05-01T09:25:16Z</time>
      </trkpt>
      <trkpt lat="45.52918" lon="6.00142">
        <ele>421.68</ele>
        <time>2013-05-01T09:25:17Z</time>
      </trkpt>
      <trkpt lat="45.52913" lon="6.00144">
        <ele>421.68</ele>
        <time>2013-05-01T09:25:18Z</time>
      </trkpt>
      <trkpt lat="45.52908" lon="6.00144">
        <ele>422.16</ele>
        <time>2013-05-01T09:25:19Z</time>
      </trkpt>
      <trkpt lat="45.52903" lon="6.00144">
        <ele>422.16</ele>
        <time>2013-05-01T09:25:20Z</time>
      </trkpt>
      <trkpt lat="45.52899" lon="6.00143">
        <ele>422.16</ele>
        <time>2013-05-01T09:25:21Z</time>
      </trkpt>
      <trkpt lat="45.52896" lon="6.00141">
        <ele>422.64</ele>
        <time>2013-05-01T09:25:22Z</time>
      </trkpt>
      <trkpt lat="45.52893" lon="6.0014">
        <ele>422.64</ele>
        <time>2013-05-01T09:25:23Z</time>
      </trkpt>
      <trkpt lat="45.5289" lon="6.0014">
        <ele>423.6</ele>
        <time>2013-05-01T09:25:24Z</time>
      </trkpt>
      <trkpt lat="45.52888" lon="6.0014">
        <ele>423.12</ele>
        <time>2013-05-01T09:25:25Z</time>
      </trkpt>
      <trkpt lat="45.52885" lon="6.00143">
        <ele>424.08</ele>
        <time>2013-05-01T09:25:26Z</time>
      </trkpt>
      <trkpt lat="45.52882" lon="6.00145">
        <ele>423.6</ele>
        <time>2013-05-01T09:25:27Z</time>
      </trkpt>
      <trkpt lat="45.52848" lon="6.00172">
        <ele>424.08</ele>
        <time>2013-05-01T09:25:40Z</time>
      </trkpt>
      <trkpt lat="45.52825" lon="6.00193">
        <ele>421.68</ele>
        <time>2013-05-01T09:25:47Z</time>
      </trkpt>
      <trkpt lat="45.52822" lon="6.00197">
        <ele>421.68</ele>
        <time>2013-05-01T09:25:48Z</time>
      </trkpt>
      <trkpt lat="45.5282" lon="6.002">
        <ele>421.19</ele>
        <time>2013-05-01T09:25:49Z</time>
      </trkpt>
      <trkpt lat="45.52818" lon="6.00204">
        <ele>420.71</ele>
        <time>2013-05-01T09:25:50Z</time>
      </trkpt>
      <trkpt lat="45.52817" lon="6.00209">
        <ele>420.23</ele>
        <time>2013-05-01T09:25:51Z</time>
      </trkpt>
      <trkpt lat="45.52816" lon="6.00213">
        <ele>419.75</ele>
        <time>2013-05-01T09:25:52Z</time>
      </trkpt>
      <trkpt lat="45.52811" lon="6.00221">
        <ele>419.27</ele>
        <time>2013-05-01T09:25:55Z</time>
      </trkpt>
      <trkpt lat="45.52808" lon="6.00222">
        <ele>418.79</ele>
        <time>2013-05-01T09:25:56Z</time>
      </trkpt>
      <trkpt lat="45.52751" lon="6.00243">
        <ele>418.79</ele>
        <time>2013-05-01T09:26:10Z</time>
      </trkpt>
      <trkpt lat="45.52712" lon="6.00248">
        <ele>420.71</ele>
        <time>2013-05-01T09:26:20Z</time>
      </trkpt>
      <trkpt lat="45.52707" lon="6.00248">
        <ele>420.71</ele>
        <time>2013-05-01T09:26:21Z</time>
      </trkpt>
      <trkpt lat="45.52647" lon="6.00256">
        <ele>422.64</ele>
        <time>2013-05-01T09:26:37Z</time>
      </trkpt>
      <trkpt lat="45.52605" lon="6.00263">
        <ele>425.04</ele>
        <time>2013-05-01T09:26:51Z</time>
      </trkpt>
      <trkpt lat="45.52574" lon="6.00277">
        <ele>422.16</ele>
        <time>2013-05-01T09:26:59Z</time>
      </trkpt>
      <trkpt lat="45.52559" lon="6.00284">
        <ele>420.23</ele>
        <time>2013-05-01T09:27:03Z</time>
      </trkpt>
      <trkpt lat="45.52543" lon="6.00291">
        <ele>417.83</ele>
        <time>2013-05-01T09:27:07Z</time>
      </trkpt>
      <trkpt lat="45.52523" lon="6.003">
        <ele>413.98</ele>
        <time>2013-05-01T09:27:12Z</time>
      </trkpt>
      <trkpt lat="45.52506" lon="6.00307">
        <ele>410.62</ele>
        <time>2013-05-01T09:27:16Z</time>
      </trkpt>
      <trkpt lat="45.52498" lon="6.0031">
        <ele>409.66</ele>
        <time>2013-05-01T09:27:18Z</time>
      </trkpt>
      <trkpt lat="45.52494" lon="6.0031">
        <ele>409.18</ele>
        <time>2013-05-01T09:27:19Z</time>
      </trkpt>
      <trkpt lat="45.5249" lon="6.00309">
        <ele>408.22</ele>
        <time>2013-05-01T09:27:20Z</time>
      </trkpt>
      <trkpt lat="45.52485" lon="6.00307">
        <ele>408.22</ele>
        <time>2013-05-01T09:27:21Z</time>
      </trkpt>
      <trkpt lat="45.52482" lon="6.00303">
        <ele>408.22</ele>
        <time>2013-05-01T09:27:22Z</time>
      </trkpt>
      <trkpt lat="45.52478" lon="6.00297">
        <ele>407.74</ele>
        <time>2013-05-01T09:27:23Z</time>
      </trkpt>
      <trkpt lat="45.52476" lon="6.00291">
        <ele>407.74</ele>
        <time>2013-05-01T09:27:24Z</time>
      </trkpt>
      <trkpt lat="45.52474" lon="6.00286">
        <ele>407.74</ele>
        <time>2013-05-01T09:27:25Z</time>
      </trkpt>
      <trkpt lat="45.52473" lon="6.0028">
        <ele>407.74</ele>
        <time>2013-05-01T09:27:26Z</time>
      </trkpt>
      <trkpt lat="45.52473" lon="6.00275">
        <ele>408.22</ele>
        <time>2013-05-01T09:27:27Z</time>
      </trkpt>
      <trkpt lat="45.52468" lon="6.00238">
        <ele>406.77</ele>
        <time>2013-05-01T09:27:33Z</time>
      </trkpt>
      <trkpt lat="45.52462" lon="6.00134">
        <ele>406.77</ele>
        <time>2013-05-01T09:27:49Z</time>
      </trkpt>
      <trkpt lat="45.52453" lon="6.00095">
        <ele>402.93</ele>
        <time>2013-05-01T09:27:55Z</time>
      </trkpt>
      <trkpt lat="45.52447" lon="6.00064">
        <ele>400.05</ele>
        <time>2013-05-01T09:27:59Z</time>
      </trkpt>
      <trkpt lat="45.52443" lon="6.00026">
        <ele>395.72</ele>
        <time>2013-05-01T09:28:04Z</time>
      </trkpt>
      <trkpt lat="45.52444" lon="6.00002">
        <ele>393.8</ele>
        <time>2013-05-01T09:28:07Z</time>
      </trkpt>
      <trkpt lat="45.52447" lon="5.99991">
        <ele>392.84</ele>
        <time>2013-05-01T09:28:09Z</time>
      </trkpt>
      <trkpt lat="45.52445" lon="5.9998">
        <ele>390.91</ele>
        <time>2013-05-01T09:28:12Z</time>
      </trkpt>
      <trkpt lat="45.52434" lon="5.99986">
        <ele>389.47</ele>
        <time>2013-05-01T09:28:16Z</time>
      </trkpt>
      <trkpt lat="45.52425" lon="6">
        <ele>388.03</ele>
        <time>2013-05-01T09:28:19Z</time>
      </trkpt>
      <trkpt lat="45.52417" lon="5.99985">
        <ele>384.18</ele>
        <time>2013-05-01T09:28:25Z</time>
      </trkpt>
      <trkpt lat="45.5242" lon="5.99979">
        <ele>384.18</ele>
        <time>2013-05-01T09:28:26Z</time>
      </trkpt>
      <trkpt lat="45.52423" lon="5.99972">
        <ele>383.22</ele>
        <time>2013-05-01T09:28:27Z</time>
      </trkpt>
      <trkpt lat="45.52427" lon="5.99968">
        <ele>382.74</ele>
        <time>2013-05-01T09:28:28Z</time>
      </trkpt>
      <trkpt lat="45.52431" lon="5.99964">
        <ele>382.26</ele>
        <time>2013-05-01T09:28:29Z</time>
      </trkpt>
      <trkpt lat="45.52433" lon="5.99962">
        <ele>381.78</ele>
        <time>2013-05-01T09:28:30Z</time>
      </trkpt>
      <trkpt lat="45.52433" lon="5.99959">
        <ele>381.3</ele>
        <time>2013-05-01T09:28:31Z</time>
      </trkpt>
      <trkpt lat="45.52415" lon="5.99952">
        <ele>378.9</ele>
        <time>2013-05-01T09:28:37Z</time>
      </trkpt>
      <trkpt lat="45.5241" lon="5.99951">
        <ele>377.94</ele>
        <time>2013-05-01T09:28:38Z</time>
      </trkpt>
      <trkpt lat="45.52405" lon="5.9995">
        <ele>376.97</ele>
        <time>2013-05-01T09:28:39Z</time>
      </trkpt>
      <trkpt lat="45.524" lon="5.99951">
        <ele>376.49</ele>
        <time>2013-05-01T09:28:40Z</time>
      </trkpt>
      <trkpt lat="45.52396" lon="5.99953">
        <ele>376.01</ele>
        <time>2013-05-01T09:28:41Z</time>
      </trkpt>
      <trkpt lat="45.52394" lon="5.99956">
        <ele>376.01</ele>
        <time>2013-05-01T09:28:42Z</time>
      </trkpt>
      <trkpt lat="45.52392" lon="5.99958">
        <ele>375.05</ele>
        <time>2013-05-01T09:28:43Z</time>
      </trkpt>
      <trkpt lat="45.52393" lon="5.99939">
        <ele>372.65</ele>
        <time>2013-05-01T09:28:50Z</time>
      </trkpt>
      <trkpt lat="45.52396" lon="5.99934">
        <ele>371.69</ele>
        <time>2013-05-01T09:28:51Z</time>
      </trkpt>
      <trkpt lat="45.52408" lon="5.99919">
        <ele>370.24</ele>
        <time>2013-05-01T09:28:54Z</time>
      </trkpt>
      <trkpt lat="45.52412" lon="5.99916">
        <ele>369.28</ele>
        <time>2013-05-01T09:28:55Z</time>
      </trkpt>
      <trkpt lat="45.52416" lon="5.99914">
        <ele>368.32</ele>
        <time>2013-05-01T09:28:56Z</time>
      </trkpt>
      <trkpt lat="45.52417" lon="5.99913">
        <ele>368.32</ele>
        <time>2013-05-01T09:28:57Z</time>
      </trkpt>
      <trkpt lat="45.52418" lon="5.99909">
        <ele>367.36</ele>
        <time>2013-05-01T09:28:58Z</time>
      </trkpt>
      <trkpt lat="45.52417" lon="5.99906">
        <ele>366.88</ele>
        <time>2013-05-01T09:28:59Z</time>
      </trkpt>
      <trkpt lat="45.52414" lon="5.99902">
        <ele>365.92</ele>
        <time>2013-05-01T09:29:00Z</time>
      </trkpt>
      <trkpt lat="45.5241" lon="5.999">
        <ele>365.44</ele>
        <time>2013-05-01T09:29:01Z</time>
      </trkpt>
      <trkpt lat="45.52406" lon="5.99898">
        <ele>364.96</ele>
        <time>2013-05-01T09:29:02Z</time>
      </trkpt>
      <trkpt lat="45.524" lon="5.99897">
        <ele>364.48</ele>
        <time>2013-05-01T09:29:03Z</time>
      </trkpt>
      <trkpt lat="45.52394" lon="5.99897">
        <ele>363.52</ele>
        <time>2013-05-01T09:29:04Z</time>
      </trkpt>
      <trkpt lat="45.52388" lon="5.99899">
        <ele>363.04</ele>
        <time>2013-05-01T09:29:05Z</time>
      </trkpt>
      <trkpt lat="45.52385" lon="5.99902">
        <ele>362.07</ele>
        <time>2013-05-01T09:29:06Z</time>
      </trkpt>
      <trkpt lat="45.52382" lon="5.99906">
        <ele>362.07</ele>
        <time>2013-05-01T09:29:07Z</time>
      </trkpt>
      <trkpt lat="45.52379" lon="5.99909">
        <ele>361.59</ele>
        <time>2013-05-01T09:29:08Z</time>
      </trkpt>
      <trkpt lat="45.52377" lon="5.99908">
        <ele>360.63</ele>
        <time>2013-05-01T09:29:09Z</time>
      </trkpt>
      <trkpt lat="45.52375" lon="5.99905">
        <ele>360.15</ele>
        <time>2013-05-01T09:29:10Z</time>
      </trkpt>
      <trkpt lat="45.52379" lon="5.99897">
        <ele>359.19</ele>
        <time>2013-05-01T09:29:12Z</time>
      </trkpt>
      <trkpt lat="45.52382" lon="5.99893">
        <ele>358.71</ele>
        <time>2013-05-01T09:29:13Z</time>
      </trkpt>
      <trkpt lat="45.52403" lon="5.99866">
        <ele>355.34</ele>
        <time>2013-05-01T09:29:18Z</time>
      </trkpt>
      <trkpt lat="45.52411" lon="5.99854">
        <ele>353.9</ele>
        <time>2013-05-01T09:29:20Z</time>
      </trkpt>
      <trkpt lat="45.52413" lon="5.99849">
        <ele>352.94</ele>
        <time>2013-05-01T09:29:21Z</time>
      </trkpt>
      <trkpt lat="45.52414" lon="5.99844">
        <ele>351.98</ele>
        <time>2013-05-01T09:29:22Z</time>
      </trkpt>
      <trkpt lat="45.52405" lon="5.99837">
        <ele>350.54</ele>
        <time>2013-05-01T09:29:25Z</time>
      </trkpt>
      <trkpt lat="45.52401" lon="5.99839">
        <ele>350.06</ele>
        <time>2013-05-01T09:29:26Z</time>
      </trkpt>
      <trkpt lat="45.52396" lon="5.99842">
        <ele>349.58</ele>
        <time>2013-05-01T09:29:27Z</time>
      </trkpt>
      <trkpt lat="45.52392" lon="5.99846">
        <ele>349.1</ele>
        <time>2013-05-01T09:29:28Z</time>
      </trkpt>
      <trkpt lat="45.52387" lon="5.99847">
        <ele>348.62</ele>
        <time>2013-05-01T09:29:29Z</time>
      </trkpt>
      <trkpt lat="45.52382" lon="5.99847">
        <ele>348.13</ele>
        <time>2013-05-01T09:29:30Z</time>
      </trkpt>
      <trkpt lat="45.52376" lon="5.99835">
        <ele>346.21</ele>
        <time>2013-05-01T09:29:33Z</time>
      </trkpt>
      <trkpt lat="45.52377" lon="5.99829">
        <ele>346.21</ele>
        <time>2013-05-01T09:29:34Z</time>
      </trkpt>
      <trkpt lat="45.5238" lon="5.99825">
        <ele>346.21</ele>
        <time>2013-05-01T09:29:35Z</time>
      </trkpt>
      <trkpt lat="45.52385" lon="5.9982">
        <ele>345.25</ele>
        <time>2013-05-01T09:29:36Z</time>
      </trkpt>
      <trkpt lat="45.52397" lon="5.99806">
        <ele>343.33</ele>
        <time>2013-05-01T09:29:39Z</time>
      </trkpt>
      <trkpt lat="45.52398" lon="5.99799">
        <ele>342.85</ele>
        <time>2013-05-01T09:29:40Z</time>
      </trkpt>
      <trkpt lat="45.52397" lon="5.99792">
        <ele>341.89</ele>
        <time>2013-05-01T09:29:41Z</time>
      </trkpt>
      <trkpt lat="45.52393" lon="5.99788">
        <ele>341.41</ele>
        <time>2013-05-01T09:29:42Z</time>
      </trkpt>
      <trkpt lat="45.52388" lon="5.99786">
        <ele>340.44</ele>
        <time>2013-05-01T09:29:43Z</time>
      </trkpt>
      <trkpt lat="45.52382" lon="5.99787">
        <ele>340.44</ele>
        <time>2013-05-01T09:29:44Z</time>
      </trkpt>
      <trkpt lat="45.52376" lon="5.9979">
        <ele>339.96</ele>
        <time>2013-05-01T09:29:45Z</time>
      </trkpt>
      <trkpt lat="45.52371" lon="5.99792">
        <ele>339</ele>
        <time>2013-05-01T09:29:46Z</time>
      </trkpt>
      <trkpt lat="45.52367" lon="5.99795">
        <ele>338.04</ele>
        <time>2013-05-01T09:29:47Z</time>
      </trkpt>
      <trkpt lat="45.52364" lon="5.99798">
        <ele>337.56</ele>
        <time>2013-05-01T09:29:48Z</time>
      </trkpt>
      <trkpt lat="45.52361" lon="5.99803">
        <ele>337.56</ele>
        <time>2013-05-01T09:29:49Z</time>
      </trkpt>
      <trkpt lat="45.52358" lon="5.99809">
        <ele>337.56</ele>
        <time>2013-05-01T09:29:50Z</time>
      </trkpt>
      <trkpt lat="45.52356" lon="5.99815">
        <ele>337.08</ele>
        <time>2013-05-01T09:29:51Z</time>
      </trkpt>
      <trkpt lat="45.52354" lon="5.9982">
        <ele>338.04</ele>
        <time>2013-05-01T09:29:52Z</time>
      </trkpt>
      <trkpt lat="45.52341" lon="5.99853">
        <ele>340.44</ele>
        <time>2013-05-01T09:30:01Z</time>
      </trkpt>
      <trkpt lat="45.5232" lon="5.99901">
        <ele>340.92</ele>
        <time>2013-05-01T09:30:14Z</time>
      </trkpt>
      <trkpt lat="45.52292" lon="5.99951">
        <ele>341.89</ele>
        <time>2013-05-01T09:30:27Z</time>
      </trkpt>
      <trkpt lat="45.5226" lon="6.00023">
        <ele>344.29</ele>
        <time>2013-05-01T09:30:43Z</time>
      </trkpt>
      <trkpt lat="45.52253" lon="6.00044">
        <ele>343.81</ele>
        <time>2013-05-01T09:30:47Z</time>
      </trkpt>
      <trkpt lat="45.52245" lon="6.0006">
        <ele>343.33</ele>
        <time>2013-05-01T09:30:50Z</time>
      </trkpt>
      <trkpt lat="45.52188" lon="6.0014">
        <ele>344.77</ele>
        <time>2013-05-01T09:31:10Z</time>
      </trkpt>
      <trkpt lat="45.52168" lon="6.00166">
        <ele>345.73</ele>
        <time>2013-05-01T09:31:17Z</time>
      </trkpt>
      <trkpt lat="45.52131" lon="6.00246">
        <ele>347.65</ele>
        <time>2013-05-01T09:31:33Z</time>
      </trkpt>
      <trkpt lat="45.52114" lon="6.00282">
        <ele>347.17</ele>
        <time>2013-05-01T09:31:40Z</time>
      </trkpt>
      <trkpt lat="45.52112" lon="6.00288">
        <ele>347.65</ele>
        <time>2013-05-01T09:31:41Z</time>
      </trkpt>
      <trkpt lat="45.52105" lon="6.00319">
        <ele>348.13</ele>
        <time>2013-05-01T09:31:46Z</time>
      </trkpt>
      <trkpt lat="45.52105" lon="6.00325">
        <ele>348.62</ele>
        <time>2013-05-01T09:31:47Z</time>
      </trkpt>
      <trkpt lat="45.52105" lon="6.0033">
        <ele>348.62</ele>
        <time>2013-05-01T09:31:48Z</time>
      </trkpt>
      <trkpt lat="45.52106" lon="6.00336">
        <ele>348.62</ele>
        <time>2013-05-01T09:31:49Z</time>
      </trkpt>
      <trkpt lat="45.52108" lon="6.0034">
        <ele>349.1</ele>
        <time>2013-05-01T09:31:50Z</time>
      </trkpt>
      <trkpt lat="45.5211" lon="6.00344">
        <ele>349.58</ele>
        <time>2013-05-01T09:31:51Z</time>
      </trkpt>
      <trkpt lat="45.52113" lon="6.00348">
        <ele>349.58</ele>
        <time>2013-05-01T09:31:52Z</time>
      </trkpt>
      <trkpt lat="45.52115" lon="6.00351">
        <ele>350.06</ele>
        <time>2013-05-01T09:31:53Z</time>
      </trkpt>
      <trkpt lat="45.52118" lon="6.00354">
        <ele>350.06</ele>
        <time>2013-05-01T09:31:54Z</time>
      </trkpt>
      <trkpt lat="45.52119" lon="6.00405">
        <ele>351.98</ele>
        <time>2013-05-01T09:32:06Z</time>
      </trkpt>
      <trkpt lat="45.52089" lon="6.00414">
        <ele>350.54</ele>
        <time>2013-05-01T09:32:17Z</time>
      </trkpt>
      <trkpt lat="45.52085" lon="6.00409">
        <ele>349.58</ele>
        <time>2013-05-01T09:32:18Z</time>
      </trkpt>
      <trkpt lat="45.52081" lon="6.00405">
        <ele>349.1</ele>
        <time>2013-05-01T09:32:19Z</time>
      </trkpt>
      <trkpt lat="45.52078" lon="6.00401">
        <ele>349.1</ele>
        <time>2013-05-01T09:32:20Z</time>
      </trkpt>
      <trkpt lat="45.52074" lon="6.00396">
        <ele>347.65</ele>
        <time>2013-05-01T09:32:21Z</time>
      </trkpt>
      <trkpt lat="45.52071" lon="6.00392">
        <ele>346.69</ele>
        <time>2013-05-01T09:32:22Z</time>
      </trkpt>
      <trkpt lat="45.52063" lon="6.00374">
        <ele>343.33</ele>
        <time>2013-05-01T09:32:26Z</time>
      </trkpt>
      <trkpt lat="45.52063" lon="6.0036">
        <ele>341.89</ele>
        <time>2013-05-01T09:32:28Z</time>
      </trkpt>
      <trkpt lat="45.52064" lon="6.00352">
        <ele>341.41</ele>
        <time>2013-05-01T09:32:29Z</time>
      </trkpt>
      <trkpt lat="45.52065" lon="6.00343">
        <ele>340.44</ele>
        <time>2013-05-01T09:32:30Z</time>
      </trkpt>
      <trkpt lat="45.52069" lon="6.0029">
        <ele>337.08</ele>
        <time>2013-05-01T09:32:36Z</time>
      </trkpt>
      <trkpt lat="45.52067" lon="6.00277">
        <ele>336.12</ele>
        <time>2013-05-01T09:32:39Z</time>
      </trkpt>
      <trkpt lat="45.52065" lon="6.00275">
        <ele>336.12</ele>
        <time>2013-05-01T09:32:40Z</time>
      </trkpt>
      <trkpt lat="45.52063" lon="6.00275">
        <ele>335.16</ele>
        <time>2013-05-01T09:32:41Z</time>
      </trkpt>
      <trkpt lat="45.52062" lon="6.00278">
        <ele>335.16</ele>
        <time>2013-05-01T09:32:42Z</time>
      </trkpt>
      <trkpt lat="45.5206" lon="6.00282">
        <ele>334.68</ele>
        <time>2013-05-01T09:32:43Z</time>
      </trkpt>
      <trkpt lat="45.52057" lon="6.00286">
        <ele>334.2</ele>
        <time>2013-05-01T09:32:44Z</time>
      </trkpt>
      <trkpt lat="45.52051" lon="6.00295">
        <ele>332.75</ele>
        <time>2013-05-01T09:32:46Z</time>
      </trkpt>
      <trkpt lat="45.52048" lon="6.003">
        <ele>332.27</ele>
        <time>2013-05-01T09:32:47Z</time>
      </trkpt>
      <trkpt lat="45.52044" lon="6.00304">
        <ele>332.27</ele>
        <time>2013-05-01T09:32:48Z</time>
      </trkpt>
      <trkpt lat="45.52041" lon="6.00309">
        <ele>331.79</ele>
        <time>2013-05-01T09:32:49Z</time>
      </trkpt>
      <trkpt lat="45.52038" lon="6.00314">
        <ele>331.79</ele>
        <time>2013-05-01T09:32:50Z</time>
      </trkpt>
      <trkpt lat="45.52032" lon="6.00325">
        <ele>330.83</ele>
        <time>2013-05-01T09:32:52Z</time>
      </trkpt>
      <trkpt lat="45.52029" lon="6.00329">
        <ele>328.91</ele>
        <time>2013-05-01T09:32:53Z</time>
      </trkpt>
      <trkpt lat="45.52028" lon="6.00333">
        <ele>329.39</ele>
        <time>2013-05-01T09:32:54Z</time>
      </trkpt>
      <trkpt lat="45.52023" lon="6.0034">
        <ele>328.91</ele>
        <time>2013-05-01T09:32:56Z</time>
      </trkpt>
      <trkpt lat="45.5202" lon="6.00343">
        <ele>327.95</ele>
        <time>2013-05-01T09:32:57Z</time>
      </trkpt>
      <trkpt lat="45.52004" lon="6.00352">
        <ele>324.58</ele>
        <time>2013-05-01T09:33:00Z</time>
      </trkpt>
      <trkpt lat="45.51988" lon="6.00361">
        <ele>321.7</ele>
        <time>2013-05-01T09:33:03Z</time>
      </trkpt>
      <trkpt lat="45.51968" lon="6.00374">
        <ele>317.37</ele>
        <time>2013-05-01T09:33:07Z</time>
      </trkpt>
      <trkpt lat="45.51957" lon="6.00376">
        <ele>314.49</ele>
        <time>2013-05-01T09:33:10Z</time>
      </trkpt>
      <trkpt lat="45.51954" lon="6.00374">
        <ele>313.53</ele>
        <time>2013-05-01T09:33:11Z</time>
      </trkpt>
      <trkpt lat="45.51953" lon="6.0037">
        <ele>313.05</ele>
        <time>2013-05-01T09:33:12Z</time>
      </trkpt>
      <trkpt lat="45.51954" lon="6.00365">
        <ele>312.57</ele>
        <time>2013-05-01T09:33:13Z</time>
      </trkpt>
      <trkpt lat="45.51955" lon="6.0036">
        <ele>312.09</ele>
        <time>2013-05-01T09:33:14Z</time>
      </trkpt>
      <trkpt lat="45.51958" lon="6.00354">
        <ele>311.6</ele>
        <time>2013-05-01T09:33:15Z</time>
      </trkpt>
      <trkpt lat="45.5196" lon="6.00349">
        <ele>311.12</ele>
        <time>2013-05-01T09:33:16Z</time>
      </trkpt>
      <trkpt lat="45.51984" lon="6.0031">
        <ele>311.6</ele>
        <time>2013-05-01T09:33:27Z</time>
      </trkpt>
      <trkpt lat="45.51986" lon="6.00305">
        <ele>312.09</ele>
        <time>2013-05-01T09:33:29Z</time>
      </trkpt>
      <trkpt lat="45.51986" lon="6.00302">
        <ele>311.6</ele>
        <time>2013-05-01T09:33:30Z</time>
      </trkpt>
      <trkpt lat="45.51973" lon="6.00291">
        <ele>308.24</ele>
        <time>2013-05-01T09:33:34Z</time>
      </trkpt>
      <trkpt lat="45.51967" lon="6.00287">
        <ele>306.8</ele>
        <time>2013-05-01T09:33:35Z</time>
      </trkpt>
      <trkpt lat="45.51961" lon="6.00284">
        <ele>306.32</ele>
        <time>2013-05-01T09:33:36Z</time>
      </trkpt>
      <trkpt lat="45.51955" lon="6.0028">
        <ele>305.84</ele>
        <time>2013-05-01T09:33:37Z</time>
      </trkpt>
      <trkpt lat="45.51943" lon="6.00274">
        <ele>304.39</ele>
        <time>2013-05-01T09:33:39Z</time>
      </trkpt>
      <trkpt lat="45.51938" lon="6.00272">
        <ele>303.91</ele>
        <time>2013-05-01T09:33:40Z</time>
      </trkpt>
      <trkpt lat="45.51929" lon="6.00268">
        <ele>302.47</ele>
        <time>2013-05-01T09:33:42Z</time>
      </trkpt>
      <trkpt lat="45.51924" lon="6.00266">
        <ele>302.47</ele>
        <time>2013-05-01T09:33:43Z</time>
      </trkpt>
      <trkpt lat="45.5192" lon="6.00263">
        <ele>302.47</ele>
        <time>2013-05-01T09:33:44Z</time>
      </trkpt>
      <trkpt lat="45.51916" lon="6.00259">
        <ele>301.99</ele>
        <time>2013-05-01T09:33:45Z</time>
      </trkpt>
      <trkpt lat="45.51912" lon="6.00253">
        <ele>301.51</ele>
        <time>2013-05-01T09:33:46Z</time>
      </trkpt>
      <trkpt lat="45.5191" lon="6.00248">
        <ele>301.99</ele>
        <time>2013-05-01T09:33:47Z</time>
      </trkpt>
      <trkpt lat="45.51908" lon="6.00242">
        <ele>301.51</ele>
        <time>2013-05-01T09:33:48Z</time>
      </trkpt>
      <trkpt lat="45.51907" lon="6.00236">
        <ele>301.51</ele>
        <time>2013-05-01T09:33:49Z</time>
      </trkpt>
      <trkpt lat="45.51906" lon="6.00229">
        <ele>301.51</ele>
        <time>2013-05-01T09:33:50Z</time>
      </trkpt>
      <trkpt lat="45.5188" lon="6.00146">
        <ele>300.55</ele>
        <time>2013-05-01T09:34:04Z</time>
      </trkpt>
      <trkpt lat="45.51877" lon="6.00141">
        <ele>300.07</ele>
        <time>2013-05-01T09:34:05Z</time>
      </trkpt>
      <trkpt lat="45.51845" lon="6.00088">
        <ele>299.59</ele>
        <time>2013-05-01T09:34:18Z</time>
      </trkpt>
      <trkpt lat="45.51835" lon="6.00079">
        <ele>299.59</ele>
        <time>2013-05-01T09:34:21Z</time>
      </trkpt>
      <trkpt lat="45.51825" lon="6.00069">
        <ele>299.11</ele>
        <time>2013-05-01T09:34:28Z</time>
      </trkpt>
      <trkpt lat="45.51824" lon="6.0007">
        <ele>299.11</ele>
        <time>2013-05-01T09:34:29Z</time>
      </trkpt>
      <trkpt lat="45.51823" lon="6.00073">
        <ele>299.11</ele>
        <time>2013-05-01T09:34:30Z</time>
      </trkpt>
      <trkpt lat="45.51809" lon="6.00093">
        <ele>299.11</ele>
        <time>2013-05-01T09:34:36Z</time>
      </trkpt>
      <trkpt lat="45.51806" lon="6.00093">
        <ele>298.63</ele>
        <time>2013-05-01T09:34:37Z</time>
      </trkpt>
      <trkpt lat="45.51802" lon="6.00092">
        <ele>299.11</ele>
        <time>2013-05-01T09:34:38Z</time>
      </trkpt>
      <trkpt lat="45.51799" lon="6.0009">
        <ele>299.11</ele>
        <time>2013-05-01T09:34:39Z</time>
      </trkpt>
      <trkpt lat="45.51796" lon="6.00087">
        <ele>298.63</ele>
        <time>2013-05-01T09:34:40Z</time>
      </trkpt>
      <trkpt lat="45.51793" lon="6.00084">
        <ele>299.11</ele>
        <time>2013-05-01T09:34:41Z</time>
      </trkpt>
      <trkpt lat="45.5179" lon="6.0008">
        <ele>298.63</ele>
        <time>2013-05-01T09:34:42Z</time>
      </trkpt>
      <trkpt lat="45.51787" lon="6.00076">
        <ele>298.15</ele>
        <time>2013-05-01T09:34:43Z</time>
      </trkpt>
      <trkpt lat="45.51736" lon="5.99997">
        <ele>298.15</ele>
        <time>2013-05-01T09:35:01Z</time>
      </trkpt>
      <trkpt lat="45.51725" lon="5.99939">
        <ele>298.63</ele>
        <time>2013-05-01T09:35:13Z</time>
      </trkpt>
      <trkpt lat="45.51744" lon="5.99878">
        <ele>298.15</ele>
        <time>2013-05-01T09:35:26Z</time>
      </trkpt>
      <trkpt lat="45.51796" lon="5.99806">
        <ele>298.15</ele>
        <time>2013-05-01T09:35:44Z</time>
      </trkpt>
      <trkpt lat="45.51827" lon="5.99763">
        <ele>297.67</ele>
        <time>2013-05-01T09:35:55Z</time>
      </trkpt>
      <trkpt lat="45.51873" lon="5.99696">
        <ele>298.63</ele>
        <time>2013-05-01T09:36:12Z</time>
      </trkpt>
      <trkpt lat="45.51872" lon="5.99676">
        <ele>298.15</ele>
        <time>2013-05-01T09:36:18Z</time>
      </trkpt>
      <trkpt lat="45.5187" lon="5.99674">
        <ele>297.67</ele>
        <time>2013-05-01T09:36:19Z</time>
      </trkpt>
      <trkpt lat="45.51843" lon="5.99632">
        <ele>298.15</ele>
        <time>2013-05-01T09:36:30Z</time>
      </trkpt>
      <trkpt lat="45.51815" lon="5.99565">
        <ele>298.63</ele>
        <time>2013-05-01T09:36:45Z</time>
      </trkpt>
      <trkpt lat="45.51828" lon="5.99522">
        <ele>299.59</ele>
        <time>2013-05-01T09:36:56Z</time>
      </trkpt>
      <trkpt lat="45.51858" lon="5.99476">
        <ele>299.59</ele>
        <time>2013-05-01T09:37:08Z</time>
      </trkpt>
      <trkpt lat="45.51867" lon="5.99464">
        <ele>299.11</ele>
        <time>2013-05-01T09:37:11Z</time>
      </trkpt>
      <trkpt lat="45.51904" lon="5.99398">
        <ele>298.63</ele>
        <time>2013-05-01T09:37:25Z</time>
      </trkpt>
      <trkpt lat="45.51906" lon="5.99394">
        <ele>299.59</ele>
        <time>2013-05-01T09:37:26Z</time>
      </trkpt>
      <trkpt lat="45.51914" lon="5.99381">
        <ele>299.59</ele>
        <time>2013-05-01T09:37:29Z</time>
      </trkpt>
      <trkpt lat="45.51959" lon="5.99321">
        <ele>299.11</ele>
        <time>2013-05-01T09:37:44Z</time>
      </trkpt>
      <trkpt lat="45.51978" lon="5.99269">
        <ele>300.07</ele>
        <time>2013-05-01T09:37:56Z</time>
      </trkpt>
      <trkpt lat="45.51976" lon="5.99264">
        <ele>300.55</ele>
        <time>2013-05-01T09:37:57Z</time>
      </trkpt>
      <trkpt lat="45.51973" lon="5.9926">
        <ele>299.59</ele>
        <time>2013-05-01T09:37:58Z</time>
      </trkpt>
      <trkpt lat="45.5192" lon="5.99193">
        <ele>301.51</ele>
        <time>2013-05-01T09:38:15Z</time>
      </trkpt>
      <trkpt lat="45.51873" lon="5.99132">
        <ele>302.95</ele>
        <time>2013-05-01T09:38:31Z</time>
      </trkpt>
      <trkpt lat="45.51828" lon="5.99097">
        <ele>304.88</ele>
        <time>2013-05-01T09:38:46Z</time>
      </trkpt>
      <trkpt lat="45.51776" lon="5.99069">
        <ele>308.24</ele>
        <time>2013-05-01T09:39:03Z</time>
      </trkpt>
      <trkpt lat="45.51735" lon="5.99035">
        <ele>311.12</ele>
        <time>2013-05-01T09:39:18Z</time>
      </trkpt>
      <trkpt lat="45.51694" lon="5.98989">
        <ele>313.05</ele>
        <time>2013-05-01T09:39:34Z</time>
      </trkpt>
      <trkpt lat="45.51657" lon="5.98936">
        <ele>315.45</ele>
        <time>2013-05-01T09:39:50Z</time>
      </trkpt>
      <trkpt lat="45.51636" lon="5.98873">
        <ele>317.85</ele>
        <time>2013-05-01T09:40:06Z</time>
      </trkpt>
      <trkpt lat="45.51634" lon="5.98793">
        <ele>321.22</ele>
        <time>2013-05-01T09:40:26Z</time>
      </trkpt>
      <trkpt lat="45.51654" lon="5.98724">
        <ele>324.1</ele>
        <time>2013-05-01T09:40:45Z</time>
      </trkpt>
      <trkpt lat="45.51678" lon="5.98679">
        <ele>327.95</ele>
        <time>2013-05-01T09:41:00Z</time>
      </trkpt>
      <trkpt lat="45.5168" lon="5.98639">
        <ele>328.91</ele>
        <time>2013-05-01T09:41:13Z</time>
      </trkpt>
      <trkpt lat="45.51696" lon="5.98622">
        <ele>332.27</ele>
        <time>2013-05-01T09:41:27Z</time>
      </trkpt>
      <trkpt lat="45.51696" lon="5.9862">
        <ele>332.27</ele>
        <time>2013-05-01T09:41:28Z</time>
      </trkpt>
      <trkpt lat="45.51695" lon="5.98619">
        <ele>332.75</ele>
        <time>2013-05-01T09:41:29Z</time>
      </trkpt>
      <trkpt lat="45.51694" lon="5.98618">
        <ele>333.23</ele>
        <time>2013-05-01T09:41:30Z</time>
      </trkpt>
      <trkpt lat="45.51693" lon="5.98619">
        <ele>332.75</ele>
        <time>2013-05-01T09:41:31Z</time>
      </trkpt>
      <trkpt lat="45.51692" lon="5.9862">
        <ele>332.75</ele>
        <time>2013-05-01T09:41:32Z</time>
      </trkpt>
      <trkpt lat="45.51691" lon="5.98621">
        <ele>333.23</ele>
        <time>2013-05-01T09:41:33Z</time>
      </trkpt>
      <trkpt lat="45.5169" lon="5.98623">
        <ele>333.23</ele>
        <time>2013-05-01T09:41:34Z</time>
      </trkpt>
      <trkpt lat="45.51672" lon="5.98633">
        <ele>334.2</ele>
        <time>2013-05-01T09:41:47Z</time>
      </trkpt>
      <trkpt lat="45.51653" lon="5.9864">
        <ele>335.16</ele>
        <time>2013-05-01T09:41:58Z</time>
      </trkpt>
      <trkpt lat="45.51652" lon="5.98641">
        <ele>336.12</ele>
        <time>2013-05-01T09:41:59Z</time>
      </trkpt>
      <trkpt lat="45.5165" lon="5.98642">
        <ele>336.6</ele>
        <time>2013-05-01T09:42:00Z</time>
      </trkpt>
      <trkpt lat="45.51621" lon="5.98656">
        <ele>338.04</ele>
        <time>2013-05-01T09:42:16Z</time>
      </trkpt>
      <trkpt lat="45.51606" lon="5.9865">
        <ele>340.44</ele>
        <time>2013-05-01T09:42:28Z</time>
      </trkpt>
      <trkpt lat="45.51605" lon="5.98648">
        <ele>340.44</ele>
        <time>2013-05-01T09:42:29Z</time>
      </trkpt>
      <trkpt lat="45.51605" lon="5.98646">
        <ele>340.92</ele>
        <time>2013-05-01T09:42:30Z</time>
      </trkpt>
      <trkpt lat="45.51605" lon="5.98643">
        <ele>341.41</ele>
        <time>2013-05-01T09:42:32Z</time>
      </trkpt>
      <trkpt lat="45.516" lon="5.98628">
        <ele>342.85</ele>
        <time>2013-05-01T09:42:41Z</time>
      </trkpt>
      <trkpt lat="45.51599" lon="5.98626">
        <ele>342.85</ele>
        <time>2013-05-01T09:42:42Z</time>
      </trkpt>
      <trkpt lat="45.51598" lon="5.98625">
        <ele>343.33</ele>
        <time>2013-05-01T09:42:43Z</time>
      </trkpt>
      <trkpt lat="45.51586" lon="5.98592">
        <ele>345.73</ele>
        <time>2013-05-01T09:43:01Z</time>
      </trkpt>
      <trkpt lat="45.51583" lon="5.98585">
        <ele>346.69</ele>
        <time>2013-05-01T09:43:05Z</time>
      </trkpt>
      <trkpt lat="45.51583" lon="5.98583">
        <ele>346.21</ele>
        <time>2013-05-01T09:43:06Z</time>
      </trkpt>
      <trkpt lat="45.51582" lon="5.98581">
        <ele>346.69</ele>
        <time>2013-05-01T09:43:07Z</time>
      </trkpt>
      <trkpt lat="45.5158" lon="5.9858">
        <ele>346.21</ele>
        <time>2013-05-01T09:43:08Z</time>
      </trkpt>
      <trkpt lat="45.51579" lon="5.9858">
        <ele>346.21</ele>
        <time>2013-05-01T09:43:09Z</time>
      </trkpt>
      <trkpt lat="45.51577" lon="5.98579">
        <ele>346.69</ele>
        <time>2013-05-01T09:43:10Z</time>
      </trkpt>
      <trkpt lat="45.51559" lon="5.98597">
        <ele>348.62</ele>
        <time>2013-05-01T09:43:25Z</time>
      </trkpt>
      <trkpt lat="45.5154" lon="5.98585">
        <ele>350.54</ele>
        <time>2013-05-01T09:43:38Z</time>
      </trkpt>
      <trkpt lat="45.51539" lon="5.98584">
        <ele>350.54</ele>
        <time>2013-05-01T09:43:39Z</time>
      </trkpt>
      <trkpt lat="45.51522" lon="5.98564">
        <ele>352.94</ele>
        <time>2013-05-01T09:43:53Z</time>
      </trkpt>
      <trkpt lat="45.51495" lon="5.98528">
        <ele>353.42</ele>
        <time>2013-05-01T09:44:10Z</time>
      </trkpt>
      <trkpt lat="45.51477" lon="5.98511">
        <ele>353.9</ele>
        <time>2013-05-01T09:44:24Z</time>
      </trkpt>
      <trkpt lat="45.51477" lon="5.98511">
        <ele>354.86</ele>
        <time>2013-05-01T09:44:52Z</time>
      </trkpt>
      <trkpt lat="45.51477" lon="5.98511">
        <ele>352.94</ele>
        <time>2013-05-01T09:44:56Z</time>
      </trkpt>
      <trkpt lat="45.51477" lon="5.98511">
        <ele>354.38</ele>
        <time>2013-05-01T09:45:34Z</time>
      </trkpt>
      <trkpt lat="45.51478" lon="5.98511">
        <ele>352.94</ele>
        <time>2013-05-01T09:46:09Z</time>
      </trkpt>
      <trkpt lat="45.51478" lon="5.98511">
        <ele>352.46</ele>
        <time>2013-05-01T09:46:41Z</time>
      </trkpt>
      <trkpt lat="45.51478" lon="5.98511">
        <ele>352.46</ele>
        <time>2013-05-01T09:46:43Z</time>
      </trkpt>
      <trkpt lat="45.51465" lon="5.98513">
        <ele>352.94</ele>
        <time>2013-05-01T09:46:51Z</time>
      </trkpt>
      <trkpt lat="45.51435" lon="5.98576">
        <ele>352.46</ele>
        <time>2013-05-01T09:47:07Z</time>
      </trkpt>
      <trkpt lat="45.5141" lon="5.98562">
        <ele>352.46</ele>
        <time>2013-05-01T09:47:15Z</time>
      </trkpt>
      <trkpt lat="45.51407" lon="5.98536">
        <ele>351.98</ele>
        <time>2013-05-01T09:47:18Z</time>
      </trkpt>
      <trkpt lat="45.51385" lon="5.98471">
        <ele>350.54</ele>
        <time>2013-05-01T09:47:29Z</time>
      </trkpt>
      <trkpt lat="45.51345" lon="5.98372">
        <ele>349.58</ele>
        <time>2013-05-01T09:47:47Z</time>
      </trkpt>
      <trkpt lat="45.51302" lon="5.98267">
        <ele>348.13</ele>
        <time>2013-05-01T09:48:06Z</time>
      </trkpt>
      <trkpt lat="45.51288" lon="5.98231">
        <ele>346.21</ele>
        <time>2013-05-01T09:48:12Z</time>
      </trkpt>
      <trkpt lat="45.51267" lon="5.98176">
        <ele>342.85</ele>
        <time>2013-05-01T09:48:19Z</time>
      </trkpt>
      <trkpt lat="45.51243" lon="5.98121">
        <ele>340.92</ele>
        <time>2013-05-01T09:48:25Z</time>
      </trkpt>
      <trkpt lat="45.5124" lon="5.98114">
        <ele>339</ele>
        <time>2013-05-01T09:48:26Z</time>
      </trkpt>
      <trkpt lat="45.51237" lon="5.98108">
        <ele>339.48</ele>
        <time>2013-05-01T09:48:27Z</time>
      </trkpt>
      <trkpt lat="45.51219" lon="5.9806">
        <ele>341.41</ele>
        <time>2013-05-01T09:48:37Z</time>
      </trkpt>
      <trkpt lat="45.51217" lon="5.98055">
        <ele>341.41</ele>
        <time>2013-05-01T09:48:38Z</time>
      </trkpt>
      <trkpt lat="45.51214" lon="5.98045">
        <ele>342.85</ele>
        <time>2013-05-01T09:48:41Z</time>
      </trkpt>
      <trkpt lat="45.51205" lon="5.98019">
        <ele>343.33</ele>
        <time>2013-05-01T09:48:50Z</time>
      </trkpt>
      <trkpt lat="45.51201" lon="5.97995">
        <ele>340.44</ele>
        <time>2013-05-01T09:48:55Z</time>
      </trkpt>
      <trkpt lat="45.51199" lon="5.9798">
        <ele>338.52</ele>
        <time>2013-05-01T09:48:57Z</time>
      </trkpt>
      <trkpt lat="45.51199" lon="5.97973">
        <ele>338.52</ele>
        <time>2013-05-01T09:48:58Z</time>
      </trkpt>
      <trkpt lat="45.51198" lon="5.97954">
        <ele>339</ele>
        <time>2013-05-01T09:49:02Z</time>
      </trkpt>
      <trkpt lat="45.51173" lon="5.97949">
        <ele>339</ele>
        <time>2013-05-01T09:49:12Z</time>
      </trkpt>
      <trkpt lat="45.51167" lon="5.97948">
        <ele>339</ele>
        <time>2013-05-01T09:49:14Z</time>
      </trkpt>
      <trkpt lat="45.51164" lon="5.97934">
        <ele>337.56</ele>
        <time>2013-05-01T09:49:17Z</time>
      </trkpt>
      <trkpt lat="45.51164" lon="5.97928">
        <ele>337.08</ele>
        <time>2013-05-01T09:49:18Z</time>
      </trkpt>
      <trkpt lat="45.51164" lon="5.97921">
        <ele>337.08</ele>
        <time>2013-05-01T09:49:19Z</time>
      </trkpt>
      <trkpt lat="45.51163" lon="5.9785">
        <ele>333.71</ele>
        <time>2013-05-01T09:49:27Z</time>
      </trkpt>
      <trkpt lat="45.51164" lon="5.97799">
        <ele>332.75</ele>
        <time>2013-05-01T09:49:32Z</time>
      </trkpt>
      <trkpt lat="45.51165" lon="5.9779">
        <ele>332.27</ele>
        <time>2013-05-01T09:49:33Z</time>
      </trkpt>
      <trkpt lat="45.51168" lon="5.97781">
        <ele>331.79</ele>
        <time>2013-05-01T09:49:34Z</time>
      </trkpt>
      <trkpt lat="45.51172" lon="5.97774">
        <ele>331.79</ele>
        <time>2013-05-01T09:49:35Z</time>
      </trkpt>
      <trkpt lat="45.51177" lon="5.97769">
        <ele>331.79</ele>
        <time>2013-05-01T09:49:36Z</time>
      </trkpt>
      <trkpt lat="45.51182" lon="5.97768">
        <ele>332.27</ele>
        <time>2013-05-01T09:49:37Z</time>
      </trkpt>
      <trkpt lat="45.51188" lon="5.97769">
        <ele>331.79</ele>
        <time>2013-05-01T09:49:38Z</time>
      </trkpt>
      <trkpt lat="45.51194" lon="5.97773">
        <ele>331.31</ele>
        <time>2013-05-01T09:49:39Z</time>
      </trkpt>
      <trkpt lat="45.51199" lon="5.97777">
        <ele>331.79</ele>
        <time>2013-05-01T09:49:40Z</time>
      </trkpt>
      <trkpt lat="45.51203" lon="5.97782">
        <ele>331.31</ele>
        <time>2013-05-01T09:49:41Z</time>
      </trkpt>
      <trkpt lat="45.51206" lon="5.97786">
        <ele>331.79</ele>
        <time>2013-05-01T09:49:42Z</time>
      </trkpt>
      <trkpt lat="45.51209" lon="5.97791">
        <ele>331.79</ele>
        <time>2013-05-01T09:49:43Z</time>
      </trkpt>
      <trkpt lat="45.51213" lon="5.97795">
        <ele>331.79</ele>
        <time>2013-05-01T09:49:44Z</time>
      </trkpt>
      <trkpt lat="45.51216" lon="5.97797">
        <ele>332.27</ele>
        <time>2013-05-01T09:49:45Z</time>
      </trkpt>
      <trkpt lat="45.5122" lon="5.97799">
        <ele>332.27</ele>
        <time>2013-05-01T09:49:46Z</time>
      </trkpt>
      <trkpt lat="45.51224" lon="5.97799">
        <ele>332.75</ele>
        <time>2013-05-01T09:49:47Z</time>
      </trkpt>
      <trkpt lat="45.51228" lon="5.97798">
        <ele>332.27</ele>
        <time>2013-05-01T09:49:48Z</time>
      </trkpt>
      <trkpt lat="45.51231" lon="5.97795">
        <ele>332.27</ele>
        <time>2013-05-01T09:49:49Z</time>
      </trkpt>
      <trkpt lat="45.51235" lon="5.97792">
        <ele>332.27</ele>
        <time>2013-05-01T09:49:50Z</time>
      </trkpt>
      <trkpt lat="45.51239" lon="5.97789">
        <ele>331.79</ele>
        <time>2013-05-01T09:49:51Z</time>
      </trkpt>
      <trkpt lat="45.51243" lon="5.97785">
        <ele>332.27</ele>
        <time>2013-05-01T09:49:52Z</time>
      </trkpt>
      <trkpt lat="45.51246" lon="5.97781">
        <ele>332.27</ele>
        <time>2013-05-01T09:49:53Z</time>
      </trkpt>
      <trkpt lat="45.5125" lon="5.97778">
        <ele>332.27</ele>
        <time>2013-05-01T09:49:54Z</time>
      </trkpt>
      <trkpt lat="45.51253" lon="5.97775">
        <ele>332.27</ele>
        <time>2013-05-01T09:49:55Z</time>
      </trkpt>
      <trkpt lat="45.51276" lon="5.97759">
        <ele>331.31</ele>
        <time>2013-05-01T09:50:01Z</time>
      </trkpt>
      <trkpt lat="45.5128" lon="5.97759">
        <ele>331.31</ele>
        <time>2013-05-01T09:50:02Z</time>
      </trkpt>
      <trkpt lat="45.51285" lon="5.9776">
        <ele>331.31</ele>
        <time>2013-05-01T09:50:03Z</time>
      </trkpt>
      <trkpt lat="45.51289" lon="5.97763">
        <ele>330.83</ele>
        <time>2013-05-01T09:50:04Z</time>
      </trkpt>
      <trkpt lat="45.51293" lon="5.97767">
        <ele>330.83</ele>
        <time>2013-05-01T09:50:05Z</time>
      </trkpt>
      <trkpt lat="45.51297" lon="5.97772">
        <ele>331.31</ele>
        <time>2013-05-01T09:50:06Z</time>
      </trkpt>
      <trkpt lat="45.513" lon="5.97776">
        <ele>331.31</ele>
        <time>2013-05-01T09:50:07Z</time>
      </trkpt>
      <trkpt lat="45.51312" lon="5.97791">
        <ele>332.27</ele>
        <time>2013-05-01T09:50:11Z</time>
      </trkpt>
      <trkpt lat="45.51365" lon="5.97846">
        <ele>330.83</ele>
        <time>2013-05-01T09:50:25Z</time>
      </trkpt>
      <trkpt lat="45.51369" lon="5.97849">
        <ele>330.35</ele>
        <time>2013-05-01T09:50:26Z</time>
      </trkpt>
      <trkpt lat="45.51373" lon="5.97853">
        <ele>330.83</ele>
        <time>2013-05-01T09:50:27Z</time>
      </trkpt>
      <trkpt lat="45.51377" lon="5.97855">
        <ele>330.83</ele>
        <time>2013-05-01T09:50:28Z</time>
      </trkpt>
      <trkpt lat="45.51382" lon="5.97857">
        <ele>330.83</ele>
        <time>2013-05-01T09:50:29Z</time>
      </trkpt>
      <trkpt lat="45.51386" lon="5.97858">
        <ele>330.83</ele>
        <time>2013-05-01T09:50:30Z</time>
      </trkpt>
      <trkpt lat="45.51391" lon="5.97859">
        <ele>330.35</ele>
        <time>2013-05-01T09:50:31Z</time>
      </trkpt>
      <trkpt lat="45.51395" lon="5.97859">
        <ele>330.83</ele>
        <time>2013-05-01T09:50:32Z</time>
      </trkpt>
      <trkpt lat="45.51399" lon="5.97858">
        <ele>330.83</ele>
        <time>2013-05-01T09:50:33Z</time>
      </trkpt>
      <trkpt lat="45.51403" lon="5.97857">
        <ele>331.31</ele>
        <time>2013-05-01T09:50:34Z</time>
      </trkpt>
      <trkpt lat="45.51407" lon="5.97856">
        <ele>330.83</ele>
        <time>2013-05-01T09:50:35Z</time>
      </trkpt>
      <trkpt lat="45.51418" lon="5.97853">
        <ele>329.87</ele>
        <time>2013-05-01T09:50:42Z</time>
      </trkpt>
      <trkpt lat="45.51447" lon="5.97844">
        <ele>330.35</ele>
        <time>2013-05-01T09:50:52Z</time>
      </trkpt>
      <trkpt lat="45.51522" lon="5.97812">
        <ele>329.39</ele>
        <time>2013-05-01T09:51:09Z</time>
      </trkpt>
      <trkpt lat="45.51586" lon="5.97785">
        <ele>327.47</ele>
        <time>2013-05-01T09:51:23Z</time>
      </trkpt>
      <trkpt lat="45.51656" lon="5.97753">
        <ele>327.47</ele>
        <time>2013-05-01T09:51:38Z</time>
      </trkpt>
      <trkpt lat="45.5171" lon="5.97735">
        <ele>324.1</ele>
        <time>2013-05-01T09:51:48Z</time>
      </trkpt>
      <trkpt lat="45.51725" lon="5.9773">
        <ele>323.62</ele>
        <time>2013-05-01T09:51:51Z</time>
      </trkpt>
      <trkpt lat="45.51729" lon="5.97726">
        <ele>323.14</ele>
        <time>2013-05-01T09:51:52Z</time>
      </trkpt>
      <trkpt lat="45.51732" lon="5.97721">
        <ele>323.62</ele>
        <time>2013-05-01T09:51:53Z</time>
      </trkpt>
      <trkpt lat="45.51783" lon="5.97635">
        <ele>321.22</ele>
        <time>2013-05-01T09:52:07Z</time>
      </trkpt>
      <trkpt lat="45.51837" lon="5.97556">
        <ele>320.26</ele>
        <time>2013-05-01T09:52:21Z</time>
      </trkpt>
      <trkpt lat="45.51846" lon="5.9755">
        <ele>319.78</ele>
        <time>2013-05-01T09:52:23Z</time>
      </trkpt>
      <trkpt lat="45.51851" lon="5.9755">
        <ele>319.3</ele>
        <time>2013-05-01T09:52:24Z</time>
      </trkpt>
      <trkpt lat="45.51856" lon="5.97551">
        <ele>319.3</ele>
        <time>2013-05-01T09:52:25Z</time>
      </trkpt>
      <trkpt lat="45.5186" lon="5.9755">
        <ele>319.3</ele>
        <time>2013-05-01T09:52:26Z</time>
      </trkpt>
      <trkpt lat="45.51865" lon="5.97549">
        <ele>319.78</ele>
        <time>2013-05-01T09:52:27Z</time>
      </trkpt>
      <trkpt lat="45.51869" lon="5.97547">
        <ele>319.78</ele>
        <time>2013-05-01T09:52:28Z</time>
      </trkpt>
      <trkpt lat="45.51872" lon="5.97544">
        <ele>319.78</ele>
        <time>2013-05-01T09:52:29Z</time>
      </trkpt>
      <trkpt lat="45.51874" lon="5.97539">
        <ele>319.3</ele>
        <time>2013-05-01T09:52:30Z</time>
      </trkpt>
      <trkpt lat="45.51875" lon="5.97533">
        <ele>319.78</ele>
        <time>2013-05-01T09:52:31Z</time>
      </trkpt>
      <trkpt lat="45.51875" lon="5.97527">
        <ele>319.78</ele>
        <time>2013-05-01T09:52:32Z</time>
      </trkpt>
      <trkpt lat="45.51874" lon="5.97521">
        <ele>319.78</ele>
        <time>2013-05-01T09:52:33Z</time>
      </trkpt>
      <trkpt lat="45.51878" lon="5.97443">
        <ele>320.74</ele>
        <time>2013-05-01T09:52:47Z</time>
      </trkpt>
      <trkpt lat="45.51881" lon="5.97439">
        <ele>321.22</ele>
        <time>2013-05-01T09:52:48Z</time>
      </trkpt>
      <trkpt lat="45.519" lon="5.97425">
        <ele>321.22</ele>
        <time>2013-05-01T09:52:53Z</time>
      </trkpt>
      <trkpt lat="45.51943" lon="5.97388">
        <ele>321.7</ele>
        <time>2013-05-01T09:53:06Z</time>
      </trkpt>
      <trkpt lat="45.51981" lon="5.97355">
        <ele>321.22</ele>
        <time>2013-05-01T09:53:19Z</time>
      </trkpt>
      <trkpt lat="45.51981" lon="5.97351">
        <ele>322.18</ele>
        <time>2013-05-01T09:53:20Z</time>
      </trkpt>
      <trkpt lat="45.5198" lon="5.97348">
        <ele>323.62</ele>
        <time>2013-05-01T09:53:21Z</time>
      </trkpt>
      <trkpt lat="45.51978" lon="5.97346">
        <ele>323.62</ele>
        <time>2013-05-01T09:53:22Z</time>
      </trkpt>
      <trkpt lat="45.51976" lon="5.97344">
        <ele>323.62</ele>
        <time>2013-05-01T09:53:23Z</time>
      </trkpt>
      <trkpt lat="45.51974" lon="5.97342">
        <ele>323.62</ele>
        <time>2013-05-01T09:53:24Z</time>
      </trkpt>
      <trkpt lat="45.51923" lon="5.97308">
        <ele>324.58</ele>
        <time>2013-05-01T09:53:42Z</time>
      </trkpt>
      <trkpt lat="45.51893" lon="5.97274">
        <ele>326.5</ele>
        <time>2013-05-01T09:53:55Z</time>
      </trkpt>
      <trkpt lat="45.5186" lon="5.97225">
        <ele>328.43</ele>
        <time>2013-05-01T09:54:11Z</time>
      </trkpt>
      <trkpt lat="45.51844" lon="5.97183">
        <ele>329.39</ele>
        <time>2013-05-01T09:54:22Z</time>
      </trkpt>
      <trkpt lat="45.51827" lon="5.97132">
        <ele>329.39</ele>
        <time>2013-05-01T09:54:34Z</time>
      </trkpt>
      <trkpt lat="45.51822" lon="5.97083">
        <ele>329.39</ele>
        <time>2013-05-01T09:54:45Z</time>
      </trkpt>
      <trkpt lat="45.51802" lon="5.97002">
        <ele>326.5</ele>
        <time>2013-05-01T09:55:02Z</time>
      </trkpt>
      <trkpt lat="45.51799" lon="5.96981">
        <ele>324.58</ele>
        <time>2013-05-01T09:55:06Z</time>
      </trkpt>
      <trkpt lat="45.51798" lon="5.96975">
        <ele>324.1</ele>
        <time>2013-05-01T09:55:07Z</time>
      </trkpt>
      <trkpt lat="45.51794" lon="5.96964">
        <ele>324.58</ele>
        <time>2013-05-01T09:55:09Z</time>
      </trkpt>
      <trkpt lat="45.5177" lon="5.96884">
        <ele>323.62</ele>
        <time>2013-05-01T09:55:24Z</time>
      </trkpt>
      <trkpt lat="45.51745" lon="5.96845">
        <ele>323.62</ele>
        <time>2013-05-01T09:55:36Z</time>
      </trkpt>
      <trkpt lat="45.51699" lon="5.96867">
        <ele>323.14</ele>
        <time>2013-05-01T09:55:48Z</time>
      </trkpt>
      <trkpt lat="45.51654" lon="5.96874">
        <ele>322.66</ele>
        <time>2013-05-01T09:56:00Z</time>
      </trkpt>
      <trkpt lat="45.51641" lon="5.96858">
        <ele>322.18</ele>
        <time>2013-05-01T09:56:04Z</time>
      </trkpt>
      <trkpt lat="45.51637" lon="5.96855">
        <ele>322.66</ele>
        <time>2013-05-01T09:56:05Z</time>
      </trkpt>
      <trkpt lat="45.51633" lon="5.96854">
        <ele>322.18</ele>
        <time>2013-05-01T09:56:06Z</time>
      </trkpt>
      <trkpt lat="45.51624" lon="5.96852">
        <ele>322.66</ele>
        <time>2013-05-01T09:56:08Z</time>
      </trkpt>
      <trkpt lat="45.5162" lon="5.96849">
        <ele>321.7</ele>
        <time>2013-05-01T09:56:09Z</time>
      </trkpt>
      <trkpt lat="45.51617" lon="5.96845">
        <ele>322.18</ele>
        <time>2013-05-01T09:56:10Z</time>
      </trkpt>
      <trkpt lat="45.51615" lon="5.96841">
        <ele>321.7</ele>
        <time>2013-05-01T09:56:11Z</time>
      </trkpt>
      <trkpt lat="45.51613" lon="5.96835">
        <ele>322.18</ele>
        <time>2013-05-01T09:56:12Z</time>
      </trkpt>
      <trkpt lat="45.51611" lon="5.96828">
        <ele>321.7</ele>
        <time>2013-05-01T09:56:13Z</time>
      </trkpt>
      <trkpt lat="45.51609" lon="5.96822">
        <ele>321.7</ele>
        <time>2013-05-01T09:56:14Z</time>
      </trkpt>
      <trkpt lat="45.51607" lon="5.96815">
        <ele>321.7</ele>
        <time>2013-05-01T09:56:15Z</time>
      </trkpt>
      <trkpt lat="45.51605" lon="5.96809">
        <ele>321.7</ele>
        <time>2013-05-01T09:56:16Z</time>
      </trkpt>
      <trkpt lat="45.51605" lon="5.96802">
        <ele>321.22</ele>
        <time>2013-05-01T09:56:17Z</time>
      </trkpt>
      <trkpt lat="45.51605" lon="5.96795">
        <ele>320.74</ele>
        <time>2013-05-01T09:56:18Z</time>
      </trkpt>
      <trkpt lat="45.51605" lon="5.96789">
        <ele>321.22</ele>
        <time>2013-05-01T09:56:19Z</time>
      </trkpt>
      <trkpt lat="45.51606" lon="5.96782">
        <ele>321.22</ele>
        <time>2013-05-01T09:56:20Z</time>
      </trkpt>
      <trkpt lat="45.51605" lon="5.96776">
        <ele>320.74</ele>
        <time>2013-05-01T09:56:21Z</time>
      </trkpt>
      <trkpt lat="45.51605" lon="5.9677">
        <ele>320.74</ele>
        <time>2013-05-01T09:56:22Z</time>
      </trkpt>
      <trkpt lat="45.51604" lon="5.96758">
        <ele>320.74</ele>
        <time>2013-05-01T09:56:24Z</time>
      </trkpt>
      <trkpt lat="45.51603" lon="5.96752">
        <ele>320.74</ele>
        <time>2013-05-01T09:56:25Z</time>
      </trkpt>
      <trkpt lat="45.51603" lon="5.96746">
        <ele>320.74</ele>
        <time>2013-05-01T09:56:26Z</time>
      </trkpt>
      <trkpt lat="45.51601" lon="5.9674">
        <ele>320.74</ele>
        <time>2013-05-01T09:56:27Z</time>
      </trkpt>
      <trkpt lat="45.516" lon="5.96735">
        <ele>320.74</ele>
        <time>2013-05-01T09:56:28Z</time>
      </trkpt>
      <trkpt lat="45.51598" lon="5.96723">
        <ele>320.74</ele>
        <time>2013-05-01T09:56:30Z</time>
      </trkpt>
      <trkpt lat="45.51597" lon="5.96717">
        <ele>320.74</ele>
        <time>2013-05-01T09:56:31Z</time>
      </trkpt>
      <trkpt lat="45.51584" lon="5.96682">
        <ele>321.22</ele>
        <time>2013-05-01T09:56:38Z</time>
      </trkpt>
      <trkpt lat="45.51582" lon="5.96677">
        <ele>320.74</ele>
        <time>2013-05-01T09:56:39Z</time>
      </trkpt>
      <trkpt lat="45.51582" lon="5.96673">
        <ele>321.22</ele>
        <time>2013-05-01T09:56:40Z</time>
      </trkpt>
      <trkpt lat="45.51583" lon="5.9667">
        <ele>321.22</ele>
        <time>2013-05-01T09:56:41Z</time>
      </trkpt>
      <trkpt lat="45.51584" lon="5.96666">
        <ele>320.74</ele>
        <time>2013-05-01T09:56:42Z</time>
      </trkpt>
      <trkpt lat="45.51587" lon="5.96663">
        <ele>320.74</ele>
        <time>2013-05-01T09:56:43Z</time>
      </trkpt>
      <trkpt lat="45.51589" lon="5.9666">
        <ele>320.74</ele>
        <time>2013-05-01T09:56:44Z</time>
      </trkpt>
      <trkpt lat="45.51592" lon="5.96656">
        <ele>320.26</ele>
        <time>2013-05-01T09:56:45Z</time>
      </trkpt>
      <trkpt lat="45.51603" lon="5.96645">
        <ele>320.26</ele>
        <time>2013-05-01T09:56:48Z</time>
      </trkpt>
      <trkpt lat="45.51607" lon="5.96642">
        <ele>320.74</ele>
        <time>2013-05-01T09:56:49Z</time>
      </trkpt>
      <trkpt lat="45.51611" lon="5.9664">
        <ele>320.26</ele>
        <time>2013-05-01T09:56:50Z</time>
      </trkpt>
      <trkpt lat="45.51616" lon="5.96639">
        <ele>320.74</ele>
        <time>2013-05-01T09:56:51Z</time>
      </trkpt>
      <trkpt lat="45.5162" lon="5.96638">
        <ele>320.26</ele>
        <time>2013-05-01T09:56:52Z</time>
      </trkpt>
      <trkpt lat="45.51624" lon="5.96638">
        <ele>320.74</ele>
        <time>2013-05-01T09:56:53Z</time>
      </trkpt>
      <trkpt lat="45.51633" lon="5.96635">
        <ele>320.26</ele>
        <time>2013-05-01T09:56:55Z</time>
      </trkpt>
      <trkpt lat="45.51638" lon="5.96633">
        <ele>320.74</ele>
        <time>2013-05-01T09:56:56Z</time>
      </trkpt>
      <trkpt lat="45.51676" lon="5.96624">
        <ele>319.78</ele>
        <time>2013-05-01T09:57:05Z</time>
      </trkpt>
      <trkpt lat="45.5168" lon="5.96624">
        <ele>320.26</ele>
        <time>2013-05-01T09:57:06Z</time>
      </trkpt>
      <trkpt lat="45.51733" lon="5.96609">
        <ele>319.78</ele>
        <time>2013-05-01T09:57:19Z</time>
      </trkpt>
      <trkpt lat="45.5178" lon="5.96591">
        <ele>320.26</ele>
        <time>2013-05-01T09:57:31Z</time>
      </trkpt>
      <trkpt lat="45.51783" lon="5.96588">
        <ele>319.78</ele>
        <time>2013-05-01T09:57:32Z</time>
      </trkpt>
      <trkpt lat="45.51786" lon="5.96584">
        <ele>319.3</ele>
        <time>2013-05-01T09:57:33Z</time>
      </trkpt>
      <trkpt lat="45.51788" lon="5.9658">
        <ele>319.3</ele>
        <time>2013-05-01T09:57:34Z</time>
      </trkpt>
      <trkpt lat="45.5179" lon="5.96576">
        <ele>318.81</ele>
        <time>2013-05-01T09:57:35Z</time>
      </trkpt>
      <trkpt lat="45.5179" lon="5.96571">
        <ele>318.81</ele>
        <time>2013-05-01T09:57:36Z</time>
      </trkpt>
      <trkpt lat="45.5179" lon="5.96566">
        <ele>319.3</ele>
        <time>2013-05-01T09:57:37Z</time>
      </trkpt>
      <trkpt lat="45.51787" lon="5.96559">
        <ele>319.3</ele>
        <time>2013-05-01T09:57:38Z</time>
      </trkpt>
      <trkpt lat="45.51784" lon="5.96545">
        <ele>319.3</ele>
        <time>2013-05-01T09:57:40Z</time>
      </trkpt>
      <trkpt lat="45.51781" lon="5.96526">
        <ele>318.81</ele>
        <time>2013-05-01T09:57:43Z</time>
      </trkpt>
      <trkpt lat="45.51781" lon="5.96519">
        <ele>319.3</ele>
        <time>2013-05-01T09:57:44Z</time>
      </trkpt>
      <trkpt lat="45.51782" lon="5.96513">
        <ele>319.3</ele>
        <time>2013-05-01T09:57:45Z</time>
      </trkpt>
      <trkpt lat="45.51784" lon="5.96508">
        <ele>319.3</ele>
        <time>2013-05-01T09:57:46Z</time>
      </trkpt>
      <trkpt lat="45.51786" lon="5.96502">
        <ele>319.3</ele>
        <time>2013-05-01T09:57:47Z</time>
      </trkpt>
      <trkpt lat="45.51788" lon="5.96498">
        <ele>318.81</ele>
        <time>2013-05-01T09:57:48Z</time>
      </trkpt>
      <trkpt lat="45.51813" lon="5.96495">
        <ele>318.81</ele>
        <time>2013-05-01T09:57:54Z</time>
      </trkpt>
      <trkpt lat="45.51818" lon="5.96495">
        <ele>318.81</ele>
        <time>2013-05-01T09:57:55Z</time>
      </trkpt>
      <trkpt lat="45.51822" lon="5.96495">
        <ele>318.81</ele>
        <time>2013-05-01T09:57:56Z</time>
      </trkpt>
      <trkpt lat="45.51827" lon="5.96493">
        <ele>318.81</ele>
        <time>2013-05-01T09:57:57Z</time>
      </trkpt>
      <trkpt lat="45.51831" lon="5.96489">
        <ele>319.3</ele>
        <time>2013-05-01T09:57:58Z</time>
      </trkpt>
      <trkpt lat="45.51834" lon="5.96485">
        <ele>318.33</ele>
        <time>2013-05-01T09:57:59Z</time>
      </trkpt>
      <trkpt lat="45.51835" lon="5.96479">
        <ele>318.81</ele>
        <time>2013-05-01T09:58:00Z</time>
      </trkpt>
      <trkpt lat="45.51836" lon="5.96472">
        <ele>318.33</ele>
        <time>2013-05-01T09:58:01Z</time>
      </trkpt>
      <trkpt lat="45.51836" lon="5.96465">
        <ele>318.33</ele>
        <time>2013-05-01T09:58:02Z</time>
      </trkpt>
      <trkpt lat="45.51836" lon="5.96458">
        <ele>318.81</ele>
        <time>2013-05-01T09:58:03Z</time>
      </trkpt>
      <trkpt lat="45.51839" lon="5.9638">
        <ele>317.37</ele>
        <time>2013-05-01T09:58:14Z</time>
      </trkpt>
      <trkpt lat="45.51839" lon="5.96373">
        <ele>317.85</ele>
        <time>2013-05-01T09:58:15Z</time>
      </trkpt>
      <trkpt lat="45.51839" lon="5.96366">
        <ele>317.85</ele>
        <time>2013-05-01T09:58:16Z</time>
      </trkpt>
      <trkpt lat="45.51839" lon="5.96358">
        <ele>317.85</ele>
        <time>2013-05-01T09:58:17Z</time>
      </trkpt>
      <trkpt lat="45.51839" lon="5.96351">
        <ele>317.37</ele>
        <time>2013-05-01T09:58:18Z</time>
      </trkpt>
      <trkpt lat="45.51841" lon="5.96324">
        <ele>317.37</ele>
        <time>2013-05-01T09:58:22Z</time>
      </trkpt>
      <trkpt lat="45.51841" lon="5.96317">
        <ele>317.37</ele>
        <time>2013-05-01T09:58:23Z</time>
      </trkpt>
      <trkpt lat="45.51841" lon="5.96311">
        <ele>317.85</ele>
        <time>2013-05-01T09:58:24Z</time>
      </trkpt>
      <trkpt lat="45.51842" lon="5.96304">
        <ele>317.85</ele>
        <time>2013-05-01T09:58:25Z</time>
      </trkpt>
      <trkpt lat="45.51842" lon="5.96297">
        <ele>317.37</ele>
        <time>2013-05-01T09:58:26Z</time>
      </trkpt>
      <trkpt lat="45.51848" lon="5.96216">
        <ele>317.37</ele>
        <time>2013-05-01T09:58:38Z</time>
      </trkpt>
      <trkpt lat="45.51849" lon="5.96209">
        <ele>316.89</ele>
        <time>2013-05-01T09:58:39Z</time>
      </trkpt>
      <trkpt lat="45.51851" lon="5.96203">
        <ele>317.37</ele>
        <time>2013-05-01T09:58:40Z</time>
      </trkpt>
      <trkpt lat="45.51853" lon="5.96197">
        <ele>317.37</ele>
        <time>2013-05-01T09:58:41Z</time>
      </trkpt>
      <trkpt lat="45.51855" lon="5.96191">
        <ele>317.37</ele>
        <time>2013-05-01T09:58:42Z</time>
      </trkpt>
      <trkpt lat="45.51857" lon="5.96185">
        <ele>317.37</ele>
        <time>2013-05-01T09:58:43Z</time>
      </trkpt>
      <trkpt lat="45.51858" lon="5.96178">
        <ele>317.37</ele>
        <time>2013-05-01T09:58:44Z</time>
      </trkpt>
      <trkpt lat="45.51858" lon="5.96171">
        <ele>317.37</ele>
        <time>2013-05-01T09:58:45Z</time>
      </trkpt>
      <trkpt lat="45.51857" lon="5.96164">
        <ele>317.85</ele>
        <time>2013-05-01T09:58:46Z</time>
      </trkpt>
      <trkpt lat="45.51856" lon="5.96157">
        <ele>317.37</ele>
        <time>2013-05-01T09:58:47Z</time>
      </trkpt>
      <trkpt lat="45.51855" lon="5.96151">
        <ele>317.85</ele>
        <time>2013-05-01T09:58:48Z</time>
      </trkpt>
      <trkpt lat="45.51829" lon="5.96038">
        <ele>318.33</ele>
        <time>2013-05-01T09:59:05Z</time>
      </trkpt>
      <trkpt lat="45.51804" lon="5.95901">
        <ele>320.26</ele>
        <time>2013-05-01T09:59:27Z</time>
      </trkpt>
      <trkpt lat="45.51817" lon="5.95804">
        <ele>320.74</ele>
        <time>2013-05-01T09:59:43Z</time>
      </trkpt>
      <trkpt lat="45.51819" lon="5.95798">
        <ele>320.26</ele>
        <time>2013-05-01T09:59:44Z</time>
      </trkpt>
      <trkpt lat="45.5182" lon="5.95786">
        <ele>320.74</ele>
        <time>2013-05-01T09:59:46Z</time>
      </trkpt>
      <trkpt lat="45.51824" lon="5.95764">
        <ele>320.74</ele>
        <time>2013-05-01T09:59:51Z</time>
      </trkpt>
      <trkpt lat="45.51826" lon="5.95763">
        <ele>320.26</ele>
        <time>2013-05-01T09:59:52Z</time>
      </trkpt>
      <trkpt lat="45.51828" lon="5.95761">
        <ele>320.26</ele>
        <time>2013-05-01T09:59:53Z</time>
      </trkpt>
      <trkpt lat="45.5183" lon="5.9576">
        <ele>320.74</ele>
        <time>2013-05-01T09:59:54Z</time>
      </trkpt>
      <trkpt lat="45.51833" lon="5.95759">
        <ele>320.26</ele>
        <time>2013-05-01T09:59:55Z</time>
      </trkpt>
      <trkpt lat="45.51886" lon="5.95723">
        <ele>320.26</ele>
        <time>2013-05-01T10:00:07Z</time>
      </trkpt>
      <trkpt lat="45.51914" lon="5.95695">
        <ele>320.26</ele>
        <time>2013-05-01T10:00:14Z</time>
      </trkpt>
      <trkpt lat="45.51917" lon="5.9569">
        <ele>320.26</ele>
        <time>2013-05-01T10:00:15Z</time>
      </trkpt>
      <trkpt lat="45.5192" lon="5.95685">
        <ele>320.26</ele>
        <time>2013-05-01T10:00:16Z</time>
      </trkpt>
      <trkpt lat="45.51923" lon="5.95681">
        <ele>320.26</ele>
        <time>2013-05-01T10:00:17Z</time>
      </trkpt>
      <trkpt lat="45.51926" lon="5.95677">
        <ele>320.26</ele>
        <time>2013-05-01T10:00:18Z</time>
      </trkpt>
      <trkpt lat="45.51927" lon="5.95672">
        <ele>320.26</ele>
        <time>2013-05-01T10:00:19Z</time>
      </trkpt>
      <trkpt lat="45.51926" lon="5.95667">
        <ele>320.26</ele>
        <time>2013-05-01T10:00:20Z</time>
      </trkpt>
      <trkpt lat="45.51926" lon="5.95661">
        <ele>320.26</ele>
        <time>2013-05-01T10:00:21Z</time>
      </trkpt>
      <trkpt lat="45.51925" lon="5.95655">
        <ele>320.26</ele>
        <time>2013-05-01T10:00:22Z</time>
      </trkpt>
      <trkpt lat="45.51925" lon="5.95649">
        <ele>320.26</ele>
        <time>2013-05-01T10:00:23Z</time>
      </trkpt>
      <trkpt lat="45.51923" lon="5.95644">
        <ele>320.26</ele>
        <time>2013-05-01T10:00:24Z</time>
      </trkpt>
      <trkpt lat="45.51918" lon="5.95608">
        <ele>322.18</ele>
        <time>2013-05-01T10:00:35Z</time>
      </trkpt>
      <trkpt lat="45.51899" lon="5.95566">
        <ele>325.06</ele>
        <time>2013-05-01T10:00:51Z</time>
      </trkpt>
      <trkpt lat="45.51891" lon="5.95541">
        <ele>327.95</ele>
        <time>2013-05-01T10:01:03Z</time>
      </trkpt>
      <trkpt lat="45.51886" lon="5.95507">
        <ele>330.83</ele>
        <time>2013-05-01T10:01:19Z</time>
      </trkpt>
      <trkpt lat="45.51885" lon="5.95477">
        <ele>334.2</ele>
        <time>2013-05-01T10:01:33Z</time>
      </trkpt>
      <trkpt lat="45.51889" lon="5.95464">
        <ele>335.16</ele>
        <time>2013-05-01T10:01:40Z</time>
      </trkpt>
      <trkpt lat="45.51889" lon="5.95462">
        <ele>335.64</ele>
        <time>2013-05-01T10:01:41Z</time>
      </trkpt>
      <trkpt lat="45.5189" lon="5.95456">
        <ele>336.6</ele>
        <time>2013-05-01T10:01:44Z</time>
      </trkpt>
      <trkpt lat="45.5189" lon="5.95454">
        <ele>336.12</ele>
        <time>2013-05-01T10:01:45Z</time>
      </trkpt>
      <trkpt lat="45.5189" lon="5.95453">
        <ele>336.6</ele>
        <time>2013-05-01T10:01:46Z</time>
      </trkpt>
      <trkpt lat="45.5189" lon="5.95451">
        <ele>336.6</ele>
        <time>2013-05-01T10:01:47Z</time>
      </trkpt>
      <trkpt lat="45.51889" lon="5.95449">
        <ele>336.6</ele>
        <time>2013-05-01T10:01:48Z</time>
      </trkpt>
      <trkpt lat="45.51889" lon="5.95447">
        <ele>337.08</ele>
        <time>2013-05-01T10:01:49Z</time>
      </trkpt>
      <trkpt lat="45.51887" lon="5.95424">
        <ele>340.44</ele>
        <time>2013-05-01T10:02:01Z</time>
      </trkpt>
      <trkpt lat="45.51886" lon="5.95406">
        <ele>343.33</ele>
        <time>2013-05-01T10:02:11Z</time>
      </trkpt>
      <trkpt lat="45.51885" lon="5.9539">
        <ele>346.69</ele>
        <time>2013-05-01T10:02:20Z</time>
      </trkpt>
      <trkpt lat="45.5188" lon="5.95362">
        <ele>348.62</ele>
        <time>2013-05-01T10:02:35Z</time>
      </trkpt>
      <trkpt lat="45.51877" lon="5.95342">
        <ele>351.02</ele>
        <time>2013-05-01T10:02:45Z</time>
      </trkpt>
      <trkpt lat="45.51875" lon="5.95314">
        <ele>352.94</ele>
        <time>2013-05-01T10:02:59Z</time>
      </trkpt>
      <trkpt lat="45.51868" lon="5.95278">
        <ele>355.34</ele>
        <time>2013-05-01T10:03:16Z</time>
      </trkpt>
      <trkpt lat="45.51862" lon="5.95267">
        <ele>356.31</ele>
        <time>2013-05-01T10:03:24Z</time>
      </trkpt>
      <trkpt lat="45.51861" lon="5.95266">
        <ele>356.79</ele>
        <time>2013-05-01T10:03:25Z</time>
      </trkpt>
      <trkpt lat="45.5186" lon="5.95266">
        <ele>357.27</ele>
        <time>2013-05-01T10:03:26Z</time>
      </trkpt>
      <trkpt lat="45.51859" lon="5.95265">
        <ele>357.75</ele>
        <time>2013-05-01T10:03:27Z</time>
      </trkpt>
      <trkpt lat="45.51857" lon="5.95264">
        <ele>357.75</ele>
        <time>2013-05-01T10:03:28Z</time>
      </trkpt>
      <trkpt lat="45.51846" lon="5.95263">
        <ele>360.63</ele>
        <time>2013-05-01T10:03:37Z</time>
      </trkpt>
      <trkpt lat="45.51857" lon="5.9525">
        <ele>361.11</ele>
        <time>2013-05-01T10:03:46Z</time>
      </trkpt>
      <trkpt lat="45.51864" lon="5.95247">
        <ele>360.63</ele>
        <time>2013-05-01T10:03:49Z</time>
      </trkpt>
      <trkpt lat="45.51904" lon="5.95211">
        <ele>362.07</ele>
        <time>2013-05-01T10:04:06Z</time>
      </trkpt>
      <trkpt lat="45.51942" lon="5.9516">
        <ele>364.96</ele>
        <time>2013-05-01T10:04:22Z</time>
      </trkpt>
      <trkpt lat="45.51993" lon="5.95139">
        <ele>365.44</ele>
        <time>2013-05-01T10:04:38Z</time>
      </trkpt>
      <trkpt lat="45.52045" lon="5.95109">
        <ele>364</ele>
        <time>2013-05-01T10:04:53Z</time>
      </trkpt>
      <trkpt lat="45.52106" lon="5.95078">
        <ele>361.59</ele>
        <time>2013-05-01T10:05:09Z</time>
      </trkpt>
      <trkpt lat="45.5212" lon="5.95072">
        <ele>359.67</ele>
        <time>2013-05-01T10:05:12Z</time>
      </trkpt>
      <trkpt lat="45.5214" lon="5.95054">
        <ele>358.71</ele>
        <time>2013-05-01T10:05:18Z</time>
      </trkpt>
      <trkpt lat="45.52142" lon="5.95049">
        <ele>358.23</ele>
        <time>2013-05-01T10:05:19Z</time>
      </trkpt>
      <trkpt lat="45.52142" lon="5.95043">
        <ele>357.27</ele>
        <time>2013-05-01T10:05:20Z</time>
      </trkpt>
      <trkpt lat="45.52143" lon="5.95037">
        <ele>356.79</ele>
        <time>2013-05-01T10:05:21Z</time>
      </trkpt>
      <trkpt lat="45.52144" lon="5.95031">
        <ele>356.79</ele>
        <time>2013-05-01T10:05:22Z</time>
      </trkpt>
      <trkpt lat="45.52146" lon="5.95026">
        <ele>357.27</ele>
        <time>2013-05-01T10:05:23Z</time>
      </trkpt>
      <trkpt lat="45.52148" lon="5.95024">
        <ele>357.27</ele>
        <time>2013-05-01T10:05:24Z</time>
      </trkpt>
      <trkpt lat="45.52151" lon="5.95025">
        <ele>356.79</ele>
        <time>2013-05-01T10:05:25Z</time>
      </trkpt>
      <trkpt lat="45.52154" lon="5.95026">
        <ele>356.79</ele>
        <time>2013-05-01T10:05:26Z</time>
      </trkpt>
      <trkpt lat="45.52195" lon="5.95034">
        <ele>359.19</ele>
        <time>2013-05-01T10:05:38Z</time>
      </trkpt>
      <trkpt lat="45.52233" lon="5.9503">
        <ele>357.27</ele>
        <time>2013-05-01T10:05:49Z</time>
      </trkpt>
      <trkpt lat="45.52242" lon="5.95028">
        <ele>356.31</ele>
        <time>2013-05-01T10:05:51Z</time>
      </trkpt>
      <trkpt lat="45.52251" lon="5.95023">
        <ele>356.31</ele>
        <time>2013-05-01T10:05:53Z</time>
      </trkpt>
      <trkpt lat="45.52256" lon="5.95019">
        <ele>356.31</ele>
        <time>2013-05-01T10:05:54Z</time>
      </trkpt>
      <trkpt lat="45.52259" lon="5.95015">
        <ele>355.83</ele>
        <time>2013-05-01T10:05:55Z</time>
      </trkpt>
      <trkpt lat="45.52262" lon="5.9501">
        <ele>355.34</ele>
        <time>2013-05-01T10:05:56Z</time>
      </trkpt>
      <trkpt lat="45.52264" lon="5.95006">
        <ele>355.34</ele>
        <time>2013-05-01T10:05:57Z</time>
      </trkpt>
      <trkpt lat="45.52272" lon="5.9499">
        <ele>355.34</ele>
        <time>2013-05-01T10:06:02Z</time>
      </trkpt>
      <trkpt lat="45.52274" lon="5.94988">
        <ele>355.34</ele>
        <time>2013-05-01T10:06:03Z</time>
      </trkpt>
      <trkpt lat="45.523" lon="5.94985">
        <ele>357.75</ele>
        <time>2013-05-01T10:06:14Z</time>
      </trkpt>
      <trkpt lat="45.52338" lon="5.94978">
        <ele>358.23</ele>
        <time>2013-05-01T10:06:27Z</time>
      </trkpt>
      <trkpt lat="45.52375" lon="5.94966">
        <ele>357.27</ele>
        <time>2013-05-01T10:06:40Z</time>
      </trkpt>
      <trkpt lat="45.5238" lon="5.94965">
        <ele>356.79</ele>
        <time>2013-05-01T10:06:41Z</time>
      </trkpt>
      <trkpt lat="45.52397" lon="5.94964">
        <ele>356.31</ele>
        <time>2013-05-01T10:06:45Z</time>
      </trkpt>
      <trkpt lat="45.52433" lon="5.94969">
        <ele>354.38</ele>
        <time>2013-05-01T10:06:53Z</time>
      </trkpt>
      <trkpt lat="45.52438" lon="5.94969">
        <ele>353.9</ele>
        <time>2013-05-01T10:06:54Z</time>
      </trkpt>
      <trkpt lat="45.52469" lon="5.94959">
        <ele>352.46</ele>
        <time>2013-05-01T10:06:59Z</time>
      </trkpt>
      <trkpt lat="45.52481" lon="5.94951">
        <ele>351.98</ele>
        <time>2013-05-01T10:07:01Z</time>
      </trkpt>
      <trkpt lat="45.52486" lon="5.94946">
        <ele>351.98</ele>
        <time>2013-05-01T10:07:02Z</time>
      </trkpt>
      <trkpt lat="45.5249" lon="5.94941">
        <ele>352.46</ele>
        <time>2013-05-01T10:07:03Z</time>
      </trkpt>
      <trkpt lat="45.52507" lon="5.9492">
        <ele>351.5</ele>
        <time>2013-05-01T10:07:07Z</time>
      </trkpt>
      <trkpt lat="45.52512" lon="5.94917">
        <ele>351.98</ele>
        <time>2013-05-01T10:07:08Z</time>
      </trkpt>
      <trkpt lat="45.52516" lon="5.94915">
        <ele>352.46</ele>
        <time>2013-05-01T10:07:09Z</time>
      </trkpt>
      <trkpt lat="45.52519" lon="5.94914">
        <ele>352.46</ele>
        <time>2013-05-01T10:07:10Z</time>
      </trkpt>
      <trkpt lat="45.52523" lon="5.94913">
        <ele>352.46</ele>
        <time>2013-05-01T10:07:11Z</time>
      </trkpt>
      <trkpt lat="45.52549" lon="5.94911">
        <ele>353.9</ele>
        <time>2013-05-01T10:07:21Z</time>
      </trkpt>
      <trkpt lat="45.52578" lon="5.94907">
        <ele>355.83</ele>
        <time>2013-05-01T10:07:33Z</time>
      </trkpt>
      <trkpt lat="45.5261" lon="5.94897">
        <ele>356.79</ele>
        <time>2013-05-01T10:07:46Z</time>
      </trkpt>
      <trkpt lat="45.52651" lon="5.9488">
        <ele>357.27</ele>
        <time>2013-05-01T10:08:00Z</time>
      </trkpt>
      <trkpt lat="45.52692" lon="5.94871">
        <ele>357.27</ele>
        <time>2013-05-01T10:08:12Z</time>
      </trkpt>
      <trkpt lat="45.52744" lon="5.9486">
        <ele>359.67</ele>
        <time>2013-05-01T10:08:30Z</time>
      </trkpt>
      <trkpt lat="45.52784" lon="5.94851">
        <ele>361.59</ele>
        <time>2013-05-01T10:08:46Z</time>
      </trkpt>
      <trkpt lat="45.52813" lon="5.94841">
        <ele>364.96</ele>
        <time>2013-05-01T10:09:00Z</time>
      </trkpt>
      <trkpt lat="45.52845" lon="5.94838">
        <ele>367.84</ele>
        <time>2013-05-01T10:09:16Z</time>
      </trkpt>
      <trkpt lat="45.52874" lon="5.94847">
        <ele>370.73</ele>
        <time>2013-05-01T10:09:30Z</time>
      </trkpt>
      <trkpt lat="45.5291" lon="5.9486">
        <ele>371.21</ele>
        <time>2013-05-01T10:09:44Z</time>
      </trkpt>
      <trkpt lat="45.52961" lon="5.94866">
        <ele>371.21</ele>
        <time>2013-05-01T10:09:58Z</time>
      </trkpt>
      <trkpt lat="45.5301" lon="5.94852">
        <ele>370.24</ele>
        <time>2013-05-01T10:10:10Z</time>
      </trkpt>
      <trkpt lat="45.53077" lon="5.94842">
        <ele>370.24</ele>
        <time>2013-05-01T10:10:27Z</time>
      </trkpt>
      <trkpt lat="45.53132" lon="5.94844">
        <ele>373.61</ele>
        <time>2013-05-01T10:10:44Z</time>
      </trkpt>
      <trkpt lat="45.53151" lon="5.94846">
        <ele>375.05</ele>
        <time>2013-05-01T10:10:51Z</time>
      </trkpt>
      <trkpt lat="45.53193" lon="5.9484">
        <ele>374.57</ele>
        <time>2013-05-01T10:11:04Z</time>
      </trkpt>
      <trkpt lat="45.53197" lon="5.94839">
        <ele>374.09</ele>
        <time>2013-05-01T10:11:05Z</time>
      </trkpt>
      <trkpt lat="45.53229" lon="5.94844">
        <ele>371.69</ele>
        <time>2013-05-01T10:11:11Z</time>
      </trkpt>
      <trkpt lat="45.53235" lon="5.94846">
        <ele>371.21</ele>
        <time>2013-05-01T10:11:12Z</time>
      </trkpt>
      <trkpt lat="45.53311" lon="5.94846">
        <ele>371.69</ele>
        <time>2013-05-01T10:11:25Z</time>
      </trkpt>
      <trkpt lat="45.53357" lon="5.94828">
        <ele>373.13</ele>
        <time>2013-05-01T10:11:39Z</time>
      </trkpt>
      <trkpt lat="45.53394" lon="5.94812">
        <ele>375.53</ele>
        <time>2013-05-01T10:11:54Z</time>
      </trkpt>
      <trkpt lat="45.53428" lon="5.94797">
        <ele>378.9</ele>
        <time>2013-05-01T10:12:09Z</time>
      </trkpt>
      <trkpt lat="45.53468" lon="5.94776">
        <ele>380.34</ele>
        <time>2013-05-01T10:12:24Z</time>
      </trkpt>
      <trkpt lat="45.53505" lon="5.94758">
        <ele>381.78</ele>
        <time>2013-05-01T10:12:38Z</time>
      </trkpt>
      <trkpt lat="45.53513" lon="5.94728">
        <ele>383.7</ele>
        <time>2013-05-01T10:12:48Z</time>
      </trkpt>
      <trkpt lat="45.53523" lon="5.94694">
        <ele>386.11</ele>
        <time>2013-05-01T10:13:02Z</time>
      </trkpt>
      <trkpt lat="45.53543" lon="5.94669">
        <ele>389.47</ele>
        <time>2013-05-01T10:13:15Z</time>
      </trkpt>
      <trkpt lat="45.5353" lon="5.94643">
        <ele>390.43</ele>
        <time>2013-05-01T10:13:27Z</time>
      </trkpt>
      <trkpt lat="45.53495" lon="5.94642">
        <ele>393.32</ele>
        <time>2013-05-01T10:13:43Z</time>
      </trkpt>
      <trkpt lat="45.53484" lon="5.94634">
        <ele>395.24</ele>
        <time>2013-05-01T10:13:49Z</time>
      </trkpt>
      <trkpt lat="45.53455" lon="5.94618">
        <ele>398.12</ele>
        <time>2013-05-01T10:14:03Z</time>
      </trkpt>
      <trkpt lat="45.53423" lon="5.94631">
        <ele>401.49</ele>
        <time>2013-05-01T10:14:19Z</time>
      </trkpt>
      <trkpt lat="45.53396" lon="5.94643">
        <ele>404.37</ele>
        <time>2013-05-01T10:14:33Z</time>
      </trkpt>
      <trkpt lat="45.53361" lon="5.94643">
        <ele>407.74</ele>
        <time>2013-05-01T10:14:50Z</time>
      </trkpt>
      <trkpt lat="45.53333" lon="5.94644">
        <ele>411.1</ele>
        <time>2013-05-01T10:15:04Z</time>
      </trkpt>
      <trkpt lat="45.53304" lon="5.94645">
        <ele>414.95</ele>
        <time>2013-05-01T10:15:18Z</time>
      </trkpt>
      <trkpt lat="45.53302" lon="5.94645">
        <ele>414.95</ele>
        <time>2013-05-01T10:15:19Z</time>
      </trkpt>
      <trkpt lat="45.53296" lon="5.9464">
        <ele>414.47</ele>
        <time>2013-05-01T10:15:22Z</time>
      </trkpt>
      <trkpt lat="45.53295" lon="5.94638">
        <ele>414.95</ele>
        <time>2013-05-01T10:15:23Z</time>
      </trkpt>
      <trkpt lat="45.53294" lon="5.94636">
        <ele>415.43</ele>
        <time>2013-05-01T10:15:24Z</time>
      </trkpt>
      <trkpt lat="45.53294" lon="5.94634">
        <ele>415.91</ele>
        <time>2013-05-01T10:15:25Z</time>
      </trkpt>
      <trkpt lat="45.53293" lon="5.94631">
        <ele>415.91</ele>
        <time>2013-05-01T10:15:26Z</time>
      </trkpt>
      <trkpt lat="45.53293" lon="5.94629">
        <ele>416.87</ele>
        <time>2013-05-01T10:15:27Z</time>
      </trkpt>
      <trkpt lat="45.53293" lon="5.94627">
        <ele>416.39</ele>
        <time>2013-05-01T10:15:28Z</time>
      </trkpt>
      <trkpt lat="45.53293" lon="5.94626">
        <ele>416.39</ele>
        <time>2013-05-01T10:15:29Z</time>
      </trkpt>
      <trkpt lat="45.53294" lon="5.94624">
        <ele>416.39</ele>
        <time>2013-05-01T10:15:30Z</time>
      </trkpt>
      <trkpt lat="45.53297" lon="5.94623">
        <ele>416.39</ele>
        <time>2013-05-01T10:15:31Z</time>
      </trkpt>
      <trkpt lat="45.53299" lon="5.94622">
        <ele>416.39</ele>
        <time>2013-05-01T10:15:32Z</time>
      </trkpt>
      <trkpt lat="45.53302" lon="5.94621">
        <ele>416.87</ele>
        <time>2013-05-01T10:15:33Z</time>
      </trkpt>
      <trkpt lat="45.53304" lon="5.9462">
        <ele>416.87</ele>
        <time>2013-05-01T10:15:34Z</time>
      </trkpt>
      <trkpt lat="45.53306" lon="5.94619">
        <ele>417.35</ele>
        <time>2013-05-01T10:15:35Z</time>
      </trkpt>
      <trkpt lat="45.53308" lon="5.94619">
        <ele>417.35</ele>
        <time>2013-05-01T10:15:36Z</time>
      </trkpt>
      <trkpt lat="45.53337" lon="5.94599">
        <ele>420.23</ele>
        <time>2013-05-01T10:15:51Z</time>
      </trkpt>
      <trkpt lat="45.5336" lon="5.94576">
        <ele>423.12</ele>
        <time>2013-05-01T10:16:04Z</time>
      </trkpt>
      <trkpt lat="45.53388" lon="5.94541">
        <ele>425.04</ele>
        <time>2013-05-01T10:16:21Z</time>
      </trkpt>
      <trkpt lat="45.53413" lon="5.94513">
        <ele>428.4</ele>
        <time>2013-05-01T10:16:36Z</time>
      </trkpt>
      <trkpt lat="45.53428" lon="5.94472">
        <ele>431.29</ele>
        <time>2013-05-01T10:16:52Z</time>
      </trkpt>
      <trkpt lat="45.53434" lon="5.94465">
        <ele>432.25</ele>
        <time>2013-05-01T10:16:56Z</time>
      </trkpt>
      <trkpt lat="45.53436" lon="5.94464">
        <ele>432.73</ele>
        <time>2013-05-01T10:16:57Z</time>
      </trkpt>
      <trkpt lat="45.53437" lon="5.94464">
        <ele>433.21</ele>
        <time>2013-05-01T10:16:58Z</time>
      </trkpt>
      <trkpt lat="45.53439" lon="5.94464">
        <ele>433.69</ele>
        <time>2013-05-01T10:16:59Z</time>
      </trkpt>
      <trkpt lat="45.53441" lon="5.94464">
        <ele>433.69</ele>
        <time>2013-05-01T10:17:00Z</time>
      </trkpt>
      <trkpt lat="45.53469" lon="5.94456">
        <ele>435.61</ele>
        <time>2013-05-01T10:17:15Z</time>
      </trkpt>
      <trkpt lat="45.53468" lon="5.94425">
        <ele>438.02</ele>
        <time>2013-05-01T10:17:26Z</time>
      </trkpt>
      <trkpt lat="45.5344" lon="5.94426">
        <ele>439.94</ele>
        <time>2013-05-01T10:17:39Z</time>
      </trkpt>
      <trkpt lat="45.53407" lon="5.94434">
        <ele>442.82</ele>
        <time>2013-05-01T10:17:54Z</time>
      </trkpt>
      <trkpt lat="45.53367" lon="5.94447">
        <ele>446.19</ele>
        <time>2013-05-01T10:18:12Z</time>
      </trkpt>
      <trkpt lat="45.53331" lon="5.9444">
        <ele>447.63</ele>
        <time>2013-05-01T10:18:25Z</time>
      </trkpt>
      <trkpt lat="45.53293" lon="5.94458">
        <ele>448.11</ele>
        <time>2013-05-01T10:18:39Z</time>
      </trkpt>
      <trkpt lat="45.53256" lon="5.9449">
        <ele>449.55</ele>
        <time>2013-05-01T10:18:54Z</time>
      </trkpt>
      <trkpt lat="45.53251" lon="5.94483">
        <ele>450.03</ele>
        <time>2013-05-01T10:18:57Z</time>
      </trkpt>
      <trkpt lat="45.53259" lon="5.94457">
        <ele>451.48</ele>
        <time>2013-05-01T10:19:08Z</time>
      </trkpt>
      <trkpt lat="45.53285" lon="5.94425">
        <ele>454.84</ele>
        <time>2013-05-01T10:19:22Z</time>
      </trkpt>
      <trkpt lat="45.53303" lon="5.94407">
        <ele>457.24</ele>
        <time>2013-05-01T10:19:34Z</time>
      </trkpt>
      <trkpt lat="45.53331" lon="5.94399">
        <ele>460.13</ele>
        <time>2013-05-01T10:19:47Z</time>
      </trkpt>
      <trkpt lat="45.53352" lon="5.94377">
        <ele>462.05</ele>
        <time>2013-05-01T10:20:00Z</time>
      </trkpt>
      <trkpt lat="45.53363" lon="5.9434">
        <ele>463.49</ele>
        <time>2013-05-01T10:20:13Z</time>
      </trkpt>
      <trkpt lat="45.53373" lon="5.94298">
        <ele>466.38</ele>
        <time>2013-05-01T10:20:29Z</time>
      </trkpt>
      <trkpt lat="45.53396" lon="5.94267">
        <ele>469.26</ele>
        <time>2013-05-01T10:20:46Z</time>
      </trkpt>
      <trkpt lat="45.53407" lon="5.94257">
        <ele>471.18</ele>
        <time>2013-05-01T10:20:53Z</time>
      </trkpt>
      <trkpt lat="45.53424" lon="5.94227">
        <ele>473.59</ele>
        <time>2013-05-01T10:21:08Z</time>
      </trkpt>
      <trkpt lat="45.53434" lon="5.94192">
        <ele>476.47</ele>
        <time>2013-05-01T10:21:22Z</time>
      </trkpt>
      <trkpt lat="45.53452" lon="5.9417">
        <ele>478.39</ele>
        <time>2013-05-01T10:21:36Z</time>
      </trkpt>
      <trkpt lat="45.53463" lon="5.94166">
        <ele>479.84</ele>
        <time>2013-05-01T10:21:43Z</time>
      </trkpt>
      <trkpt lat="45.53464" lon="5.94164">
        <ele>480.8</ele>
        <time>2013-05-01T10:21:44Z</time>
      </trkpt>
      <trkpt lat="45.53466" lon="5.94163">
        <ele>481.28</ele>
        <time>2013-05-01T10:21:45Z</time>
      </trkpt>
      <trkpt lat="45.53496" lon="5.94152">
        <ele>483.68</ele>
        <time>2013-05-01T10:22:03Z</time>
      </trkpt>
      <trkpt lat="45.53521" lon="5.94151">
        <ele>487.05</ele>
        <time>2013-05-01T10:22:17Z</time>
      </trkpt>
      <trkpt lat="45.53526" lon="5.94151">
        <ele>487.53</ele>
        <time>2013-05-01T10:22:20Z</time>
      </trkpt>
      <trkpt lat="45.53528" lon="5.94151">
        <ele>487.53</ele>
        <time>2013-05-01T10:22:21Z</time>
      </trkpt>
      <trkpt lat="45.53552" lon="5.94148">
        <ele>489.93</ele>
        <time>2013-05-01T10:22:35Z</time>
      </trkpt>
      <trkpt lat="45.53569" lon="5.94124">
        <ele>492.33</ele>
        <time>2013-05-01T10:22:50Z</time>
      </trkpt>
      <trkpt lat="45.53569" lon="5.94122">
        <ele>492.33</ele>
        <time>2013-05-01T10:22:51Z</time>
      </trkpt>
      <trkpt lat="45.53569" lon="5.94119">
        <ele>492.81</ele>
        <time>2013-05-01T10:22:52Z</time>
      </trkpt>
      <trkpt lat="45.53569" lon="5.94117">
        <ele>492.33</ele>
        <time>2013-05-01T10:22:53Z</time>
      </trkpt>
      <trkpt lat="45.5357" lon="5.94115">
        <ele>492.81</ele>
        <time>2013-05-01T10:22:54Z</time>
      </trkpt>
      <trkpt lat="45.53571" lon="5.94112">
        <ele>492.81</ele>
        <time>2013-05-01T10:22:55Z</time>
      </trkpt>
      <trkpt lat="45.53571" lon="5.9411">
        <ele>493.29</ele>
        <time>2013-05-01T10:22:56Z</time>
      </trkpt>
      <trkpt lat="45.53572" lon="5.94108">
        <ele>493.29</ele>
        <time>2013-05-01T10:22:57Z</time>
      </trkpt>
      <trkpt lat="45.53573" lon="5.94106">
        <ele>493.29</ele>
        <time>2013-05-01T10:22:58Z</time>
      </trkpt>
      <trkpt lat="45.53574" lon="5.94104">
        <ele>493.77</ele>
        <time>2013-05-01T10:22:59Z</time>
      </trkpt>
      <trkpt lat="45.53574" lon="5.94101">
        <ele>494.26</ele>
        <time>2013-05-01T10:23:00Z</time>
      </trkpt>
      <trkpt lat="45.53575" lon="5.94099">
        <ele>494.26</ele>
        <time>2013-05-01T10:23:01Z</time>
      </trkpt>
      <trkpt lat="45.53576" lon="5.94096">
        <ele>494.26</ele>
        <time>2013-05-01T10:23:02Z</time>
      </trkpt>
      <trkpt lat="45.53577" lon="5.94095">
        <ele>494.74</ele>
        <time>2013-05-01T10:23:03Z</time>
      </trkpt>
      <trkpt lat="45.53578" lon="5.94094">
        <ele>494.74</ele>
        <time>2013-05-01T10:23:04Z</time>
      </trkpt>
      <trkpt lat="45.53579" lon="5.94092">
        <ele>495.22</ele>
        <time>2013-05-01T10:23:05Z</time>
      </trkpt>
      <trkpt lat="45.53581" lon="5.9409">
        <ele>495.22</ele>
        <time>2013-05-01T10:23:06Z</time>
      </trkpt>
      <trkpt lat="45.53581" lon="5.94088">
        <ele>495.7</ele>
        <time>2013-05-01T10:23:07Z</time>
      </trkpt>
      <trkpt lat="45.53582" lon="5.94087">
        <ele>496.18</ele>
        <time>2013-05-01T10:23:08Z</time>
      </trkpt>
      <trkpt lat="45.53584" lon="5.94085">
        <ele>496.18</ele>
        <time>2013-05-01T10:23:09Z</time>
      </trkpt>
      <trkpt lat="45.53585" lon="5.94084">
        <ele>496.66</ele>
        <time>2013-05-01T10:23:10Z</time>
      </trkpt>
      <trkpt lat="45.53587" lon="5.94083">
        <ele>496.66</ele>
        <time>2013-05-01T10:23:11Z</time>
      </trkpt>
      <trkpt lat="45.53589" lon="5.94082">
        <ele>496.66</ele>
        <time>2013-05-01T10:23:12Z</time>
      </trkpt>
      <trkpt lat="45.53613" lon="5.94069">
        <ele>500.02</ele>
        <time>2013-05-01T10:23:27Z</time>
      </trkpt>
      <trkpt lat="45.53635" lon="5.94058">
        <ele>502.43</ele>
        <time>2013-05-01T10:23:40Z</time>
      </trkpt>
      <trkpt lat="45.53656" lon="5.94049">
        <ele>504.35</ele>
        <time>2013-05-01T10:23:53Z</time>
      </trkpt>
      <trkpt lat="45.53674" lon="5.94027">
        <ele>506.75</ele>
        <time>2013-05-01T10:24:07Z</time>
      </trkpt>
      <trkpt lat="45.53673" lon="5.94024">
        <ele>507.23</ele>
        <time>2013-05-01T10:24:08Z</time>
      </trkpt>
      <trkpt lat="45.53672" lon="5.94022">
        <ele>506.75</ele>
        <time>2013-05-01T10:24:09Z</time>
      </trkpt>
      <trkpt lat="45.53671" lon="5.9402">
        <ele>507.23</ele>
        <time>2013-05-01T10:24:10Z</time>
      </trkpt>
      <trkpt lat="45.53669" lon="5.94018">
        <ele>507.23</ele>
        <time>2013-05-01T10:24:11Z</time>
      </trkpt>
      <trkpt lat="45.53667" lon="5.94018">
        <ele>507.23</ele>
        <time>2013-05-01T10:24:12Z</time>
      </trkpt>
      <trkpt lat="45.53665" lon="5.94017">
        <ele>507.71</ele>
        <time>2013-05-01T10:24:13Z</time>
      </trkpt>
      <trkpt lat="45.53663" lon="5.94017">
        <ele>507.71</ele>
        <time>2013-05-01T10:24:14Z</time>
      </trkpt>
      <trkpt lat="45.53632" lon="5.94012">
        <ele>510.6</ele>
        <time>2013-05-01T10:24:31Z</time>
      </trkpt>
      <trkpt lat="45.53603" lon="5.93998">
        <ele>513.48</ele>
        <time>2013-05-01T10:24:47Z</time>
      </trkpt>
      <trkpt lat="45.53577" lon="5.93991">
        <ele>516.37</ele>
        <time>2013-05-01T10:25:02Z</time>
      </trkpt>
      <trkpt lat="45.5355" lon="5.93983">
        <ele>519.73</ele>
        <time>2013-05-01T10:25:17Z</time>
      </trkpt>
      <trkpt lat="45.5352" lon="5.93975">
        <ele>523.09</ele>
        <time>2013-05-01T10:25:33Z</time>
      </trkpt>
      <trkpt lat="45.53492" lon="5.93975">
        <ele>525.98</ele>
        <time>2013-05-01T10:25:49Z</time>
      </trkpt>
      <trkpt lat="45.53471" lon="5.93976">
        <ele>527.9</ele>
        <time>2013-05-01T10:26:02Z</time>
      </trkpt>
      <trkpt lat="45.5347" lon="5.93976">
        <ele>527.42</ele>
        <time>2013-05-01T10:26:19Z</time>
      </trkpt>
      <trkpt lat="45.5347" lon="5.93976">
        <ele>527.9</ele>
        <time>2013-05-01T10:26:59Z</time>
      </trkpt>
      <trkpt lat="45.5347" lon="5.93975">
        <ele>526.94</ele>
        <time>2013-05-01T10:27:42Z</time>
      </trkpt>
      <trkpt lat="45.53473" lon="5.93975">
        <ele>528.38</ele>
        <time>2013-05-01T10:28:09Z</time>
      </trkpt>
      <trkpt lat="45.53474" lon="5.93975">
        <ele>528.38</ele>
        <time>2013-05-01T10:28:10Z</time>
      </trkpt>
      <trkpt lat="45.53476" lon="5.93974">
        <ele>527.9</ele>
        <time>2013-05-01T10:28:11Z</time>
      </trkpt>
      <trkpt lat="45.53478" lon="5.93974">
        <ele>527.9</ele>
        <time>2013-05-01T10:28:12Z</time>
      </trkpt>
      <trkpt lat="45.53479" lon="5.93973">
        <ele>527.42</ele>
        <time>2013-05-01T10:28:13Z</time>
      </trkpt>
      <trkpt lat="45.53482" lon="5.93971">
        <ele>526.94</ele>
        <time>2013-05-01T10:28:14Z</time>
      </trkpt>
      <trkpt lat="45.53484" lon="5.93969">
        <ele>526.94</ele>
        <time>2013-05-01T10:28:15Z</time>
      </trkpt>
      <trkpt lat="45.53486" lon="5.93966">
        <ele>526.94</ele>
        <time>2013-05-01T10:28:16Z</time>
      </trkpt>
      <trkpt lat="45.53499" lon="5.9395">
        <ele>530.3</ele>
        <time>2013-05-01T10:28:28Z</time>
      </trkpt>
      <trkpt lat="45.53504" lon="5.93942">
        <ele>531.75</ele>
        <time>2013-05-01T10:28:34Z</time>
      </trkpt>
      <trkpt lat="45.53505" lon="5.9394">
        <ele>531.27</ele>
        <time>2013-05-01T10:28:35Z</time>
      </trkpt>
      <trkpt lat="45.53505" lon="5.93939">
        <ele>531.75</ele>
        <time>2013-05-01T10:28:36Z</time>
      </trkpt>
      <trkpt lat="45.53519" lon="5.93916">
        <ele>535.59</ele>
        <time>2013-05-01T10:28:51Z</time>
      </trkpt>
      <trkpt lat="45.53536" lon="5.939">
        <ele>537.99</ele>
        <time>2013-05-01T10:29:06Z</time>
      </trkpt>
      <trkpt lat="45.53536" lon="5.93899">
        <ele>538.96</ele>
        <time>2013-05-01T10:29:07Z</time>
      </trkpt>
      <trkpt lat="45.53537" lon="5.93898">
        <ele>538.96</ele>
        <time>2013-05-01T10:29:08Z</time>
      </trkpt>
      <trkpt lat="45.53538" lon="5.93896">
        <ele>538.96</ele>
        <time>2013-05-01T10:29:09Z</time>
      </trkpt>
      <trkpt lat="45.53539" lon="5.93895">
        <ele>539.44</ele>
        <time>2013-05-01T10:29:10Z</time>
      </trkpt>
      <trkpt lat="45.5354" lon="5.93894">
        <ele>539.44</ele>
        <time>2013-05-01T10:29:11Z</time>
      </trkpt>
      <trkpt lat="45.5354" lon="5.93893">
        <ele>539.92</ele>
        <time>2013-05-01T10:29:12Z</time>
      </trkpt>
      <trkpt lat="45.53552" lon="5.93881">
        <ele>541.36</ele>
        <time>2013-05-01T10:29:24Z</time>
      </trkpt>
      <trkpt lat="45.53571" lon="5.93866">
        <ele>543.28</ele>
        <time>2013-05-01T10:29:40Z</time>
      </trkpt>
      <trkpt lat="45.53584" lon="5.93859">
        <ele>545.69</ele>
        <time>2013-05-01T10:29:52Z</time>
      </trkpt>
      <trkpt lat="45.53585" lon="5.93858">
        <ele>546.17</ele>
        <time>2013-05-01T10:29:53Z</time>
      </trkpt>
      <trkpt lat="45.53585" lon="5.93857">
        <ele>545.69</ele>
        <time>2013-05-01T10:29:54Z</time>
      </trkpt>
      <trkpt lat="45.53587" lon="5.93856">
        <ele>546.17</ele>
        <time>2013-05-01T10:30:07Z</time>
      </trkpt>
      <trkpt lat="45.5359" lon="5.93847">
        <ele>547.61</ele>
        <time>2013-05-01T10:30:24Z</time>
      </trkpt>
      <trkpt lat="45.53587" lon="5.9384">
        <ele>549.05</ele>
        <time>2013-05-01T10:30:38Z</time>
      </trkpt>
      <trkpt lat="45.53582" lon="5.93836">
        <ele>551.45</ele>
        <time>2013-05-01T10:30:52Z</time>
      </trkpt>
      <trkpt lat="45.53578" lon="5.9383">
        <ele>553.38</ele>
        <time>2013-05-01T10:31:08Z</time>
      </trkpt>
      <trkpt lat="45.53574" lon="5.93828">
        <ele>553.86</ele>
        <time>2013-05-01T10:31:27Z</time>
      </trkpt>
      <trkpt lat="45.53567" lon="5.9382">
        <ele>556.74</ele>
        <time>2013-05-01T10:31:44Z</time>
      </trkpt>
      <trkpt lat="45.53564" lon="5.93819">
        <ele>557.7</ele>
        <time>2013-05-01T10:31:57Z</time>
      </trkpt>
      <trkpt lat="45.53562" lon="5.93819">
        <ele>557.7</ele>
        <time>2013-05-01T10:31:58Z</time>
      </trkpt>
      <trkpt lat="45.53552" lon="5.93812">
        <ele>560.59</ele>
        <time>2013-05-01T10:32:11Z</time>
      </trkpt>
      <trkpt lat="45.53547" lon="5.93802">
        <ele>562.03</ele>
        <time>2013-05-01T10:32:25Z</time>
      </trkpt>
      <trkpt lat="45.53546" lon="5.93795">
        <ele>563.95</ele>
        <time>2013-05-01T10:32:42Z</time>
      </trkpt>
      <trkpt lat="45.5355" lon="5.93784">
        <ele>566.35</ele>
        <time>2013-05-01T10:32:58Z</time>
      </trkpt>
      <trkpt lat="45.53555" lon="5.93773">
        <ele>569.24</ele>
        <time>2013-05-01T10:33:14Z</time>
      </trkpt>
      <trkpt lat="45.53561" lon="5.93765">
        <ele>571.16</ele>
        <time>2013-05-01T10:33:28Z</time>
      </trkpt>
      <trkpt lat="45.53563" lon="5.93762">
        <ele>571.64</ele>
        <time>2013-05-01T10:33:43Z</time>
      </trkpt>
      <trkpt lat="45.53565" lon="5.93761">
        <ele>571.64</ele>
        <time>2013-05-01T10:33:45Z</time>
      </trkpt>
      <trkpt lat="45.53566" lon="5.9376">
        <ele>572.12</ele>
        <time>2013-05-01T10:33:46Z</time>
      </trkpt>
      <trkpt lat="45.53567" lon="5.93759">
        <ele>572.6</ele>
        <time>2013-05-01T10:33:47Z</time>
      </trkpt>
      <trkpt lat="45.53568" lon="5.93757">
        <ele>573.08</ele>
        <time>2013-05-01T10:33:48Z</time>
      </trkpt>
      <trkpt lat="45.53569" lon="5.93757">
        <ele>572.6</ele>
        <time>2013-05-01T10:33:49Z</time>
      </trkpt>
      <trkpt lat="45.5357" lon="5.93756">
        <ele>573.08</ele>
        <time>2013-05-01T10:33:50Z</time>
      </trkpt>
      <trkpt lat="45.53579" lon="5.9375">
        <ele>573.56</ele>
        <time>2013-05-01T10:33:57Z</time>
      </trkpt>
      <trkpt lat="45.53587" lon="5.9374">
        <ele>576.45</ele>
        <time>2013-05-01T10:34:06Z</time>
      </trkpt>
      <trkpt lat="45.53593" lon="5.93732">
        <ele>577.89</ele>
        <time>2013-05-01T10:34:12Z</time>
      </trkpt>
      <trkpt lat="45.53595" lon="5.93729">
        <ele>579.33</ele>
        <time>2013-05-01T10:34:15Z</time>
      </trkpt>
      <trkpt lat="45.53596" lon="5.93729">
        <ele>579.81</ele>
        <time>2013-05-01T10:34:16Z</time>
      </trkpt>
      <trkpt lat="45.53597" lon="5.93728">
        <ele>579.81</ele>
        <time>2013-05-01T10:34:17Z</time>
      </trkpt>
      <trkpt lat="45.53606" lon="5.93716">
        <ele>580.77</ele>
        <time>2013-05-01T10:34:27Z</time>
      </trkpt>
      <trkpt lat="45.53609" lon="5.93715">
        <ele>582.22</ele>
        <time>2013-05-01T10:34:30Z</time>
      </trkpt>
      <trkpt lat="45.5361" lon="5.93714">
        <ele>582.22</ele>
        <time>2013-05-01T10:34:31Z</time>
      </trkpt>
      <trkpt lat="45.53611" lon="5.93713">
        <ele>583.18</ele>
        <time>2013-05-01T10:34:32Z</time>
      </trkpt>
      <trkpt lat="45.53613" lon="5.93709">
        <ele>583.66</ele>
        <time>2013-05-01T10:34:35Z</time>
      </trkpt>
      <trkpt lat="45.53614" lon="5.93709">
        <ele>584.14</ele>
        <time>2013-05-01T10:34:36Z</time>
      </trkpt>
      <trkpt lat="45.53615" lon="5.93707">
        <ele>583.66</ele>
        <time>2013-05-01T10:34:37Z</time>
      </trkpt>
      <trkpt lat="45.53616" lon="5.93706">
        <ele>583.66</ele>
        <time>2013-05-01T10:34:38Z</time>
      </trkpt>
      <trkpt lat="45.53617" lon="5.93705">
        <ele>584.14</ele>
        <time>2013-05-01T10:34:39Z</time>
      </trkpt>
      <trkpt lat="45.53618" lon="5.93705">
        <ele>584.14</ele>
        <time>2013-05-01T10:34:40Z</time>
      </trkpt>
      <trkpt lat="45.53619" lon="5.93704">
        <ele>583.66</ele>
        <time>2013-05-01T10:34:41Z</time>
      </trkpt>
      <trkpt lat="45.5362" lon="5.93703">
        <ele>584.14</ele>
        <time>2013-05-01T10:34:42Z</time>
      </trkpt>
      <trkpt lat="45.53621" lon="5.93702">
        <ele>584.14</ele>
        <time>2013-05-01T10:34:43Z</time>
      </trkpt>
      <trkpt lat="45.53621" lon="5.93701">
        <ele>584.62</ele>
        <time>2013-05-01T10:34:44Z</time>
      </trkpt>
      <trkpt lat="45.53622" lon="5.937">
        <ele>584.62</ele>
        <time>2013-05-01T10:34:45Z</time>
      </trkpt>
      <trkpt lat="45.53629" lon="5.93695">
        <ele>586.54</ele>
        <time>2013-05-01T10:34:52Z</time>
      </trkpt>
      <trkpt lat="45.5363" lon="5.93694">
        <ele>586.54</ele>
        <time>2013-05-01T10:34:53Z</time>
      </trkpt>
      <trkpt lat="45.53632" lon="5.93691">
        <ele>586.54</ele>
        <time>2013-05-01T10:34:55Z</time>
      </trkpt>
      <trkpt lat="45.53633" lon="5.9369">
        <ele>587.02</ele>
        <time>2013-05-01T10:34:56Z</time>
      </trkpt>
      <trkpt lat="45.53634" lon="5.93689">
        <ele>587.5</ele>
        <time>2013-05-01T10:34:57Z</time>
      </trkpt>
      <trkpt lat="45.53635" lon="5.93688">
        <ele>587.02</ele>
        <time>2013-05-01T10:34:58Z</time>
      </trkpt>
      <trkpt lat="45.53636" lon="5.93687">
        <ele>587.5</ele>
        <time>2013-05-01T10:34:59Z</time>
      </trkpt>
      <trkpt lat="45.53637" lon="5.93686">
        <ele>587.98</ele>
        <time>2013-05-01T10:35:00Z</time>
      </trkpt>
      <trkpt lat="45.53638" lon="5.93684">
        <ele>587.98</ele>
        <time>2013-05-01T10:35:01Z</time>
      </trkpt>
      <trkpt lat="45.53639" lon="5.93683">
        <ele>588.95</ele>
        <time>2013-05-01T10:35:02Z</time>
      </trkpt>
      <trkpt lat="45.5364" lon="5.93683">
        <ele>589.43</ele>
        <time>2013-05-01T10:35:03Z</time>
      </trkpt>
      <trkpt lat="45.53642" lon="5.93682">
        <ele>589.43</ele>
        <time>2013-05-01T10:35:04Z</time>
      </trkpt>
      <trkpt lat="45.53648" lon="5.93674">
        <ele>592.31</ele>
        <time>2013-05-01T10:35:16Z</time>
      </trkpt>
      <trkpt lat="45.53653" lon="5.93665">
        <ele>593.27</ele>
        <time>2013-05-01T10:35:39Z</time>
      </trkpt>
      <trkpt lat="45.53663" lon="5.93652">
        <ele>596.15</ele>
        <time>2013-05-01T10:35:58Z</time>
      </trkpt>
      <trkpt lat="45.53673" lon="5.9364">
        <ele>598.08</ele>
        <time>2013-05-01T10:36:15Z</time>
      </trkpt>
      <trkpt lat="45.5368" lon="5.93628">
        <ele>600</ele>
        <time>2013-05-01T10:36:30Z</time>
      </trkpt>
      <trkpt lat="45.53684" lon="5.93615">
        <ele>602.88</ele>
        <time>2013-05-01T10:36:45Z</time>
      </trkpt>
      <trkpt lat="45.53692" lon="5.936">
        <ele>605.29</ele>
        <time>2013-05-01T10:37:02Z</time>
      </trkpt>
      <trkpt lat="45.53697" lon="5.93585">
        <ele>608.17</ele>
        <time>2013-05-01T10:37:19Z</time>
      </trkpt>
      <trkpt lat="45.53701" lon="5.93566">
        <ele>611.06</ele>
        <time>2013-05-01T10:37:37Z</time>
      </trkpt>
      <trkpt lat="45.53697" lon="5.93546">
        <ele>613.46</ele>
        <time>2013-05-01T10:37:54Z</time>
      </trkpt>
      <trkpt lat="45.53695" lon="5.9354">
        <ele>613.94</ele>
        <time>2013-05-01T10:37:59Z</time>
      </trkpt>
      <trkpt lat="45.53695" lon="5.93532">
        <ele>615.86</ele>
        <time>2013-05-01T10:38:16Z</time>
      </trkpt>
      <trkpt lat="45.53688" lon="5.93524">
        <ele>612.5</ele>
        <time>2013-05-01T10:38:26Z</time>
      </trkpt>
      <trkpt lat="45.53687" lon="5.93522">
        <ele>612.02</ele>
        <time>2013-05-01T10:38:27Z</time>
      </trkpt>
      <trkpt lat="45.53686" lon="5.93514">
        <ele>608.17</ele>
        <time>2013-05-01T10:38:31Z</time>
      </trkpt>
      <trkpt lat="45.53685" lon="5.93513">
        <ele>607.69</ele>
        <time>2013-05-01T10:38:32Z</time>
      </trkpt>
      <trkpt lat="45.53687" lon="5.935">
        <ele>603.85</ele>
        <time>2013-05-01T10:38:36Z</time>
      </trkpt>
      <trkpt lat="45.53689" lon="5.93482">
        <ele>600.96</ele>
        <time>2013-05-01T10:38:41Z</time>
      </trkpt>
      <trkpt lat="45.53692" lon="5.9347">
        <ele>597.12</ele>
        <time>2013-05-01T10:38:45Z</time>
      </trkpt>
      <trkpt lat="45.53692" lon="5.93468">
        <ele>596.64</ele>
        <time>2013-05-01T10:38:46Z</time>
      </trkpt>
      <trkpt lat="45.53692" lon="5.93465">
        <ele>595.67</ele>
        <time>2013-05-01T10:38:47Z</time>
      </trkpt>
      <trkpt lat="45.53692" lon="5.93461">
        <ele>595.19</ele>
        <time>2013-05-01T10:38:48Z</time>
      </trkpt>
      <trkpt lat="45.53692" lon="5.93457">
        <ele>593.75</ele>
        <time>2013-05-01T10:38:49Z</time>
      </trkpt>
      <trkpt lat="45.53693" lon="5.93454">
        <ele>593.27</ele>
        <time>2013-05-01T10:38:50Z</time>
      </trkpt>
      <trkpt lat="45.53696" lon="5.93451">
        <ele>593.27</ele>
        <time>2013-05-01T10:38:51Z</time>
      </trkpt>
      <trkpt lat="45.53699" lon="5.93448">
        <ele>592.79</ele>
        <time>2013-05-01T10:38:52Z</time>
      </trkpt>
      <trkpt lat="45.53701" lon="5.93445">
        <ele>591.83</ele>
        <time>2013-05-01T10:38:53Z</time>
      </trkpt>
      <trkpt lat="45.53704" lon="5.93442">
        <ele>591.83</ele>
        <time>2013-05-01T10:38:54Z</time>
      </trkpt>
      <trkpt lat="45.53708" lon="5.93444">
        <ele>590.87</ele>
        <time>2013-05-01T10:38:56Z</time>
      </trkpt>
      <trkpt lat="45.53709" lon="5.93444">
        <ele>590.39</ele>
        <time>2013-05-01T10:38:57Z</time>
      </trkpt>
      <trkpt lat="45.53711" lon="5.93445">
        <ele>589.91</ele>
        <time>2013-05-01T10:38:58Z</time>
      </trkpt>
      <trkpt lat="45.53718" lon="5.93449">
        <ele>588.46</ele>
        <time>2013-05-01T10:39:02Z</time>
      </trkpt>
      <trkpt lat="45.53722" lon="5.93452">
        <ele>585.58</ele>
        <time>2013-05-01T10:39:10Z</time>
      </trkpt>
      <trkpt lat="45.53725" lon="5.93452">
        <ele>585.58</ele>
        <time>2013-05-01T10:39:11Z</time>
      </trkpt>
      <trkpt lat="45.53728" lon="5.93453">
        <ele>585.1</ele>
        <time>2013-05-01T10:39:12Z</time>
      </trkpt>
      <trkpt lat="45.5373" lon="5.93455">
        <ele>584.62</ele>
        <time>2013-05-01T10:39:13Z</time>
      </trkpt>
      <trkpt lat="45.53732" lon="5.93455">
        <ele>583.66</ele>
        <time>2013-05-01T10:39:14Z</time>
      </trkpt>
      <trkpt lat="45.53735" lon="5.93454">
        <ele>583.66</ele>
        <time>2013-05-01T10:39:15Z</time>
      </trkpt>
      <trkpt lat="45.53747" lon="5.9346">
        <ele>581.25</ele>
        <time>2013-05-01T10:39:23Z</time>
      </trkpt>
      <trkpt lat="45.53752" lon="5.93461">
        <ele>578.37</ele>
        <time>2013-05-01T10:39:27Z</time>
      </trkpt>
      <trkpt lat="45.53759" lon="5.93464">
        <ele>575.97</ele>
        <time>2013-05-01T10:39:33Z</time>
      </trkpt>
      <trkpt lat="45.53768" lon="5.93467">
        <ele>574.04</ele>
        <time>2013-05-01T10:39:39Z</time>
      </trkpt>
      <trkpt lat="45.53769" lon="5.93468">
        <ele>573.56</ele>
        <time>2013-05-01T10:39:40Z</time>
      </trkpt>
      <trkpt lat="45.53771" lon="5.93469">
        <ele>573.08</ele>
        <time>2013-05-01T10:39:42Z</time>
      </trkpt>
      <trkpt lat="45.53779" lon="5.93476">
        <ele>570.2</ele>
        <time>2013-05-01T10:39:49Z</time>
      </trkpt>
      <trkpt lat="45.5378" lon="5.93477">
        <ele>569.72</ele>
        <time>2013-05-01T10:39:50Z</time>
      </trkpt>
      <trkpt lat="45.53782" lon="5.93479">
        <ele>568.76</ele>
        <time>2013-05-01T10:39:51Z</time>
      </trkpt>
      <trkpt lat="45.53782" lon="5.93481">
        <ele>568.76</ele>
        <time>2013-05-01T10:39:52Z</time>
      </trkpt>
      <trkpt lat="45.53787" lon="5.93486">
        <ele>566.35</ele>
        <time>2013-05-01T10:39:57Z</time>
      </trkpt>
      <trkpt lat="45.53789" lon="5.93488">
        <ele>565.39</ele>
        <time>2013-05-01T10:39:58Z</time>
      </trkpt>
      <trkpt lat="45.53791" lon="5.93489">
        <ele>564.91</ele>
        <time>2013-05-01T10:39:59Z</time>
      </trkpt>
      <trkpt lat="45.53793" lon="5.93491">
        <ele>564.43</ele>
        <time>2013-05-01T10:40:00Z</time>
      </trkpt>
      <trkpt lat="45.53794" lon="5.93492">
        <ele>564.43</ele>
        <time>2013-05-01T10:40:01Z</time>
      </trkpt>
      <trkpt lat="45.53795" lon="5.93494">
        <ele>563.47</ele>
        <time>2013-05-01T10:40:02Z</time>
      </trkpt>
      <trkpt lat="45.53796" lon="5.93495">
        <ele>563.47</ele>
        <time>2013-05-01T10:40:03Z</time>
      </trkpt>
      <trkpt lat="45.53798" lon="5.93497">
        <ele>562.99</ele>
        <time>2013-05-01T10:40:04Z</time>
      </trkpt>
      <trkpt lat="45.53799" lon="5.93499">
        <ele>562.51</ele>
        <time>2013-05-01T10:40:05Z</time>
      </trkpt>
      <trkpt lat="45.53811" lon="5.93505">
        <ele>559.62</ele>
        <time>2013-05-01T10:40:11Z</time>
      </trkpt>
      <trkpt lat="45.53823" lon="5.93512">
        <ele>557.22</ele>
        <time>2013-05-01T10:40:16Z</time>
      </trkpt>
      <trkpt lat="45.5383" lon="5.93515">
        <ele>555.3</ele>
        <time>2013-05-01T10:40:19Z</time>
      </trkpt>
      <trkpt lat="45.53838" lon="5.93518">
        <ele>551.93</ele>
        <time>2013-05-01T10:40:23Z</time>
      </trkpt>
      <trkpt lat="45.53843" lon="5.9352">
        <ele>550.49</ele>
        <time>2013-05-01T10:40:26Z</time>
      </trkpt>
      <trkpt lat="45.53855" lon="5.93523">
        <ele>547.61</ele>
        <time>2013-05-01T10:40:34Z</time>
      </trkpt>
      <trkpt lat="45.53856" lon="5.93522">
        <ele>546.65</ele>
        <time>2013-05-01T10:40:35Z</time>
      </trkpt>
      <trkpt lat="45.53858" lon="5.93522">
        <ele>546.17</ele>
        <time>2013-05-01T10:40:36Z</time>
      </trkpt>
      <trkpt lat="45.53864" lon="5.93522">
        <ele>543.28</ele>
        <time>2013-05-01T10:40:41Z</time>
      </trkpt>
      <trkpt lat="45.53873" lon="5.9353">
        <ele>541.36</ele>
        <time>2013-05-01T10:40:45Z</time>
      </trkpt>
      <trkpt lat="45.53875" lon="5.93531">
        <ele>541.36</ele>
        <time>2013-05-01T10:40:46Z</time>
      </trkpt>
      <trkpt lat="45.53879" lon="5.93533">
        <ele>539.44</ele>
        <time>2013-05-01T10:40:49Z</time>
      </trkpt>
      <trkpt lat="45.53882" lon="5.93536">
        <ele>538.48</ele>
        <time>2013-05-01T10:40:51Z</time>
      </trkpt>
      <trkpt lat="45.53883" lon="5.93537">
        <ele>537.99</ele>
        <time>2013-05-01T10:40:52Z</time>
      </trkpt>
      <trkpt lat="45.53885" lon="5.93537">
        <ele>537.51</ele>
        <time>2013-05-01T10:40:53Z</time>
      </trkpt>
      <trkpt lat="45.53889" lon="5.93537">
        <ele>537.03</ele>
        <time>2013-05-01T10:40:55Z</time>
      </trkpt>
      <trkpt lat="45.53897" lon="5.93541">
        <ele>533.19</ele>
        <time>2013-05-01T10:41:01Z</time>
      </trkpt>
      <trkpt lat="45.5391" lon="5.93543">
        <ele>529.82</ele>
        <time>2013-05-01T10:41:06Z</time>
      </trkpt>
      <trkpt lat="45.53922" lon="5.93543">
        <ele>526.46</ele>
        <time>2013-05-01T10:41:12Z</time>
      </trkpt>
      <trkpt lat="45.53928" lon="5.9354">
        <ele>525.5</ele>
        <time>2013-05-01T10:41:23Z</time>
      </trkpt>
      <trkpt lat="45.53931" lon="5.93541">
        <ele>523.09</ele>
        <time>2013-05-01T10:41:30Z</time>
      </trkpt>
      <trkpt lat="45.53936" lon="5.9354">
        <ele>522.13</ele>
        <time>2013-05-01T10:41:37Z</time>
      </trkpt>
      <trkpt lat="45.53941" lon="5.9354">
        <ele>521.17</ele>
        <time>2013-05-01T10:41:39Z</time>
      </trkpt>
      <trkpt lat="45.53957" lon="5.93543">
        <ele>517.81</ele>
        <time>2013-05-01T10:41:45Z</time>
      </trkpt>
      <trkpt lat="45.53967" lon="5.93546">
        <ele>514.44</ele>
        <time>2013-05-01T10:41:49Z</time>
      </trkpt>
      <trkpt lat="45.53983" lon="5.93551">
        <ele>510.6</ele>
        <time>2013-05-01T10:41:54Z</time>
      </trkpt>
      <trkpt lat="45.54" lon="5.93559">
        <ele>506.27</ele>
        <time>2013-05-01T10:41:58Z</time>
      </trkpt>
      <trkpt lat="45.54012" lon="5.9357">
        <ele>503.87</ele>
        <time>2013-05-01T10:42:01Z</time>
      </trkpt>
      <trkpt lat="45.54016" lon="5.93573">
        <ele>503.39</ele>
        <time>2013-05-01T10:42:02Z</time>
      </trkpt>
      <trkpt lat="45.5402" lon="5.93576">
        <ele>502.91</ele>
        <time>2013-05-01T10:42:03Z</time>
      </trkpt>
      <trkpt lat="45.54044" lon="5.93596">
        <ele>499.54</ele>
        <time>2013-05-01T10:42:09Z</time>
      </trkpt>
      <trkpt lat="45.54055" lon="5.93609">
        <ele>497.14</ele>
        <time>2013-05-01T10:42:12Z</time>
      </trkpt>
      <trkpt lat="45.54058" lon="5.93615">
        <ele>497.14</ele>
        <time>2013-05-01T10:42:13Z</time>
      </trkpt>
      <trkpt lat="45.54065" lon="5.93624">
        <ele>495.7</ele>
        <time>2013-05-01T10:42:15Z</time>
      </trkpt>
      <trkpt lat="45.54073" lon="5.9363">
        <ele>494.74</ele>
        <time>2013-05-01T10:42:17Z</time>
      </trkpt>
      <trkpt lat="45.5408" lon="5.93633">
        <ele>493.29</ele>
        <time>2013-05-01T10:42:19Z</time>
      </trkpt>
      <trkpt lat="45.54084" lon="5.93633">
        <ele>492.33</ele>
        <time>2013-05-01T10:42:20Z</time>
      </trkpt>
      <trkpt lat="45.54087" lon="5.93635">
        <ele>491.37</ele>
        <time>2013-05-01T10:42:21Z</time>
      </trkpt>
      <trkpt lat="45.5409" lon="5.93636">
        <ele>491.37</ele>
        <time>2013-05-01T10:42:22Z</time>
      </trkpt>
      <trkpt lat="45.54094" lon="5.93637">
        <ele>489.93</ele>
        <time>2013-05-01T10:42:24Z</time>
      </trkpt>
      <trkpt lat="45.54101" lon="5.93629">
        <ele>487.53</ele>
        <time>2013-05-01T10:42:29Z</time>
      </trkpt>
      <trkpt lat="45.54106" lon="5.93616">
        <ele>485.12</ele>
        <time>2013-05-01T10:42:32Z</time>
      </trkpt>
      <trkpt lat="45.54107" lon="5.936">
        <ele>483.68</ele>
        <time>2013-05-01T10:42:35Z</time>
      </trkpt>
      <trkpt lat="45.54108" lon="5.93572">
        <ele>481.76</ele>
        <time>2013-05-01T10:42:45Z</time>
      </trkpt>
      <trkpt lat="45.54107" lon="5.93571">
        <ele>481.76</ele>
        <time>2013-05-01T10:43:01Z</time>
      </trkpt>
      <trkpt lat="45.54106" lon="5.93569">
        <ele>481.76</ele>
        <time>2013-05-01T10:43:02Z</time>
      </trkpt>
      <trkpt lat="45.54106" lon="5.93568">
        <ele>480.8</ele>
        <time>2013-05-01T10:43:03Z</time>
      </trkpt>
      <trkpt lat="45.54102" lon="5.93559">
        <ele>480.32</ele>
        <time>2013-05-01T10:43:14Z</time>
      </trkpt>
      <trkpt lat="45.54101" lon="5.93557">
        <ele>480.32</ele>
        <time>2013-05-01T10:43:33Z</time>
      </trkpt>
      <trkpt lat="45.541" lon="5.93555">
        <ele>480.32</ele>
        <time>2013-05-01T10:43:34Z</time>
      </trkpt>
      <trkpt lat="45.54099" lon="5.93554">
        <ele>480.32</ele>
        <time>2013-05-01T10:43:35Z</time>
      </trkpt>
      <trkpt lat="45.54097" lon="5.93552">
        <ele>480.32</ele>
        <time>2013-05-01T10:43:36Z</time>
      </trkpt>
      <trkpt lat="45.54096" lon="5.9355">
        <ele>480.32</ele>
        <time>2013-05-01T10:43:37Z</time>
      </trkpt>
      <trkpt lat="45.54094" lon="5.93548">
        <ele>480.32</ele>
        <time>2013-05-01T10:43:38Z</time>
      </trkpt>
      <trkpt lat="45.54092" lon="5.93545">
        <ele>480.32</ele>
        <time>2013-05-01T10:43:39Z</time>
      </trkpt>
      <trkpt lat="45.54057" lon="5.935">
        <ele>483.2</ele>
        <time>2013-05-01T10:43:58Z</time>
      </trkpt>
      <trkpt lat="45.54029" lon="5.93464">
        <ele>485.6</ele>
        <time>2013-05-01T10:44:14Z</time>
      </trkpt>
      <trkpt lat="45.53995" lon="5.93423">
        <ele>488.01</ele>
        <time>2013-05-01T10:44:31Z</time>
      </trkpt>
      <trkpt lat="45.53981" lon="5.93399">
        <ele>490.89</ele>
        <time>2013-05-01T10:44:43Z</time>
      </trkpt>
      <trkpt lat="45.53965" lon="5.93367">
        <ele>493.29</ele>
        <time>2013-05-01T10:44:56Z</time>
      </trkpt>
      <trkpt lat="45.53964" lon="5.93325">
        <ele>494.74</ele>
        <time>2013-05-01T10:45:10Z</time>
      </trkpt>
      <trkpt lat="45.53976" lon="5.93277">
        <ele>496.66</ele>
        <time>2013-05-01T10:45:25Z</time>
      </trkpt>
      <trkpt lat="45.54001" lon="5.93258">
        <ele>498.58</ele>
        <time>2013-05-01T10:45:38Z</time>
      </trkpt>
      <trkpt lat="45.54026" lon="5.93241">
        <ele>501.46</ele>
        <time>2013-05-01T10:45:52Z</time>
      </trkpt>
      <trkpt lat="45.54049" lon="5.93245">
        <ele>503.39</ele>
        <time>2013-05-01T10:46:03Z</time>
      </trkpt>
      <trkpt lat="45.54071" lon="5.93239">
        <ele>505.79</ele>
        <time>2013-05-01T10:46:16Z</time>
      </trkpt>
      <trkpt lat="45.54053" lon="5.9322">
        <ele>507.23</ele>
        <time>2013-05-01T10:46:28Z</time>
      </trkpt>
      <trkpt lat="45.54023" lon="5.9321">
        <ele>510.12</ele>
        <time>2013-05-01T10:46:43Z</time>
      </trkpt>
      <trkpt lat="45.53996" lon="5.932">
        <ele>512.52</ele>
        <time>2013-05-01T10:46:58Z</time>
      </trkpt>
      <trkpt lat="45.53979" lon="5.93192">
        <ele>514.44</ele>
        <time>2013-05-01T10:47:07Z</time>
      </trkpt>
      <trkpt lat="45.53952" lon="5.93172">
        <ele>517.33</ele>
        <time>2013-05-01T10:47:22Z</time>
      </trkpt>
      <trkpt lat="45.53925" lon="5.93146">
        <ele>519.73</ele>
        <time>2013-05-01T10:47:38Z</time>
      </trkpt>
      <trkpt lat="45.539" lon="5.93123">
        <ele>523.09</ele>
        <time>2013-05-01T10:47:53Z</time>
      </trkpt>
      <trkpt lat="45.53878" lon="5.93099">
        <ele>525.98</ele>
        <time>2013-05-01T10:48:08Z</time>
      </trkpt>
      <trkpt lat="45.53873" lon="5.93091">
        <ele>526.46</ele>
        <time>2013-05-01T10:48:12Z</time>
      </trkpt>
      <trkpt lat="45.53872" lon="5.9309">
        <ele>526.46</ele>
        <time>2013-05-01T10:48:13Z</time>
      </trkpt>
      <trkpt lat="45.5387" lon="5.93089">
        <ele>526.46</ele>
        <time>2013-05-01T10:48:14Z</time>
      </trkpt>
      <trkpt lat="45.53868" lon="5.93089">
        <ele>526.46</ele>
        <time>2013-05-01T10:48:15Z</time>
      </trkpt>
      <trkpt lat="45.53866" lon="5.93088">
        <ele>526.94</ele>
        <time>2013-05-01T10:48:16Z</time>
      </trkpt>
      <trkpt lat="45.53864" lon="5.93086">
        <ele>526.94</ele>
        <time>2013-05-01T10:48:17Z</time>
      </trkpt>
      <trkpt lat="45.53863" lon="5.93085">
        <ele>527.42</ele>
        <time>2013-05-01T10:48:18Z</time>
      </trkpt>
      <trkpt lat="45.53862" lon="5.93083">
        <ele>527.42</ele>
        <time>2013-05-01T10:48:19Z</time>
      </trkpt>
      <trkpt lat="45.53861" lon="5.93081">
        <ele>527.42</ele>
        <time>2013-05-01T10:48:20Z</time>
      </trkpt>
      <trkpt lat="45.53838" lon="5.93065">
        <ele>530.3</ele>
        <time>2013-05-01T10:48:33Z</time>
      </trkpt>
      <trkpt lat="45.53828" lon="5.93067">
        <ele>531.27</ele>
        <time>2013-05-01T10:48:38Z</time>
      </trkpt>
      <trkpt lat="45.53828" lon="5.9307">
        <ele>531.27</ele>
        <time>2013-05-01T10:48:39Z</time>
      </trkpt>
      <trkpt lat="45.53827" lon="5.93072">
        <ele>531.27</ele>
        <time>2013-05-01T10:48:40Z</time>
      </trkpt>
      <trkpt lat="45.53797" lon="5.93102">
        <ele>534.15</ele>
        <time>2013-05-01T10:48:58Z</time>
      </trkpt>
      <trkpt lat="45.53784" lon="5.93085">
        <ele>536.55</ele>
        <time>2013-05-01T10:49:09Z</time>
      </trkpt>
      <trkpt lat="45.53804" lon="5.9305">
        <ele>537.51</ele>
        <time>2013-05-01T10:49:23Z</time>
      </trkpt>
      <trkpt lat="45.53814" lon="5.93012">
        <ele>539.44</ele>
        <time>2013-05-01T10:49:36Z</time>
      </trkpt>
      <trkpt lat="45.5384" lon="5.92992">
        <ele>542.32</ele>
        <time>2013-05-01T10:49:51Z</time>
      </trkpt>
      <trkpt lat="45.53866" lon="5.9298">
        <ele>544.24</ele>
        <time>2013-05-01T10:50:05Z</time>
      </trkpt>
      <trkpt lat="45.53891" lon="5.9297">
        <ele>546.65</ele>
        <time>2013-05-01T10:50:18Z</time>
      </trkpt>
      <trkpt lat="45.53917" lon="5.92971">
        <ele>548.09</ele>
        <time>2013-05-01T10:50:31Z</time>
      </trkpt>
      <trkpt lat="45.53949" lon="5.92967">
        <ele>550.97</ele>
        <time>2013-05-01T10:50:47Z</time>
      </trkpt>
      <trkpt lat="45.5398" lon="5.92957">
        <ele>553.38</ele>
        <time>2013-05-01T10:51:03Z</time>
      </trkpt>
      <trkpt lat="45.54019" lon="5.92964">
        <ele>555.78</ele>
        <time>2013-05-01T10:51:22Z</time>
      </trkpt>
      <trkpt lat="45.5403" lon="5.9294">
        <ele>556.74</ele>
        <time>2013-05-01T10:51:32Z</time>
      </trkpt>
      <trkpt lat="45.54029" lon="5.92931">
        <ele>557.22</ele>
        <time>2013-05-01T10:51:35Z</time>
      </trkpt>
      <trkpt lat="45.54028" lon="5.92929">
        <ele>557.22</ele>
        <time>2013-05-01T10:51:36Z</time>
      </trkpt>
      <trkpt lat="45.53996" lon="5.92911">
        <ele>560.11</ele>
        <time>2013-05-01T10:51:53Z</time>
      </trkpt>
      <trkpt lat="45.53958" lon="5.92902">
        <ele>562.99</ele>
        <time>2013-05-01T10:52:12Z</time>
      </trkpt>
      <trkpt lat="45.53928" lon="5.9289">
        <ele>566.35</ele>
        <time>2013-05-01T10:52:27Z</time>
      </trkpt>
      <trkpt lat="45.53903" lon="5.92874">
        <ele>568.28</ele>
        <time>2013-05-01T10:52:41Z</time>
      </trkpt>
      <trkpt lat="45.53873" lon="5.92856">
        <ele>571.16</ele>
        <time>2013-05-01T10:52:57Z</time>
      </trkpt>
      <trkpt lat="45.53843" lon="5.92845">
        <ele>574.04</ele>
        <time>2013-05-01T10:53:12Z</time>
      </trkpt>
      <trkpt lat="45.53811" lon="5.92836">
        <ele>576.45</ele>
        <time>2013-05-01T10:53:28Z</time>
      </trkpt>
      <trkpt lat="45.53789" lon="5.92831">
        <ele>578.85</ele>
        <time>2013-05-01T10:53:39Z</time>
      </trkpt>
      <trkpt lat="45.53751" lon="5.92818">
        <ele>582.22</ele>
        <time>2013-05-01T10:53:58Z</time>
      </trkpt>
      <trkpt lat="45.53722" lon="5.92803">
        <ele>585.1</ele>
        <time>2013-05-01T10:54:13Z</time>
      </trkpt>
      <trkpt lat="45.53693" lon="5.92798">
        <ele>587.5</ele>
        <time>2013-05-01T10:54:27Z</time>
      </trkpt>
      <trkpt lat="45.53664" lon="5.92791">
        <ele>589.43</ele>
        <time>2013-05-01T10:54:41Z</time>
      </trkpt>
      <trkpt lat="45.53635" lon="5.92793">
        <ele>592.31</ele>
        <time>2013-05-01T10:54:54Z</time>
      </trkpt>
      <trkpt lat="45.53599" lon="5.92792">
        <ele>594.23</ele>
        <time>2013-05-01T10:55:10Z</time>
      </trkpt>
      <trkpt lat="45.53565" lon="5.9279">
        <ele>595.19</ele>
        <time>2013-05-01T10:55:25Z</time>
      </trkpt>
      <trkpt lat="45.53525" lon="5.92809">
        <ele>596.15</ele>
        <time>2013-05-01T10:55:40Z</time>
      </trkpt>
      <trkpt lat="45.53486" lon="5.92825">
        <ele>597.12</ele>
        <time>2013-05-01T10:55:54Z</time>
      </trkpt>
      <trkpt lat="45.53436" lon="5.92828">
        <ele>598.08</ele>
        <time>2013-05-01T10:56:09Z</time>
      </trkpt>
      <trkpt lat="45.53392" lon="5.92846">
        <ele>597.6</ele>
        <time>2013-05-01T10:56:23Z</time>
      </trkpt>
      <trkpt lat="45.53378" lon="5.9285">
        <ele>596.64</ele>
        <time>2013-05-01T10:56:26Z</time>
      </trkpt>
      <trkpt lat="45.53315" lon="5.92854">
        <ele>597.6</ele>
        <time>2013-05-01T10:56:37Z</time>
      </trkpt>
      <trkpt lat="45.5328" lon="5.92858">
        <ele>598.56</ele>
        <time>2013-05-01T10:56:47Z</time>
      </trkpt>
      <trkpt lat="45.53244" lon="5.92857">
        <ele>598.08</ele>
        <time>2013-05-01T10:56:56Z</time>
      </trkpt>
      <trkpt lat="45.53172" lon="5.92843">
        <ele>595.67</ele>
        <time>2013-05-01T10:57:10Z</time>
      </trkpt>
      <trkpt lat="45.53157" lon="5.92838">
        <ele>596.15</ele>
        <time>2013-05-01T10:57:13Z</time>
      </trkpt>
      <trkpt lat="45.53092" lon="5.92794">
        <ele>596.15</ele>
        <time>2013-05-01T10:57:27Z</time>
      </trkpt>
      <trkpt lat="45.5301" lon="5.92745">
        <ele>597.12</ele>
        <time>2013-05-01T10:57:45Z</time>
      </trkpt>
      <trkpt lat="45.52958" lon="5.92714">
        <ele>599.52</ele>
        <time>2013-05-01T10:58:01Z</time>
      </trkpt>
      <trkpt lat="45.52912" lon="5.92699">
        <ele>604.33</ele>
        <time>2013-05-01T10:58:16Z</time>
      </trkpt>
      <trkpt lat="45.52873" lon="5.92687">
        <ele>604.33</ele>
        <time>2013-05-01T10:58:32Z</time>
      </trkpt>
      <trkpt lat="45.52833" lon="5.92666">
        <ele>605.29</ele>
        <time>2013-05-01T10:58:48Z</time>
      </trkpt>
      <trkpt lat="45.52797" lon="5.9264">
        <ele>608.17</ele>
        <time>2013-05-01T10:59:04Z</time>
      </trkpt>
      <trkpt lat="45.52745" lon="5.92623">
        <ele>609.61</ele>
        <time>2013-05-01T10:59:24Z</time>
      </trkpt>
      <trkpt lat="45.52703" lon="5.92596">
        <ele>612.98</ele>
        <time>2013-05-01T10:59:42Z</time>
      </trkpt>
      <trkpt lat="45.52695" lon="5.92591">
        <ele>613.94</ele>
        <time>2013-05-01T10:59:46Z</time>
      </trkpt>
      <trkpt lat="45.52672" lon="5.92584">
        <ele>615.86</ele>
        <time>2013-05-01T10:59:57Z</time>
      </trkpt>
      <trkpt lat="45.52647" lon="5.92572">
        <ele>618.75</ele>
        <time>2013-05-01T11:00:10Z</time>
      </trkpt>
      <trkpt lat="45.52622" lon="5.92559">
        <ele>622.11</ele>
        <time>2013-05-01T11:00:24Z</time>
      </trkpt>
      <trkpt lat="45.52621" lon="5.9256">
        <ele>622.11</ele>
        <time>2013-05-01T11:00:39Z</time>
      </trkpt>
      <trkpt lat="45.52621" lon="5.9256">
        <ele>622.11</ele>
        <time>2013-05-01T11:01:14Z</time>
      </trkpt>
      <trkpt lat="45.5262" lon="5.92561">
        <ele>622.11</ele>
        <time>2013-05-01T11:01:55Z</time>
      </trkpt>
      <trkpt lat="45.52589" lon="5.92555">
        <ele>624.03</ele>
        <time>2013-05-01T11:02:09Z</time>
      </trkpt>
      <trkpt lat="45.52556" lon="5.92549">
        <ele>627.4</ele>
        <time>2013-05-01T11:02:24Z</time>
      </trkpt>
      <trkpt lat="45.5252" lon="5.92543">
        <ele>630.28</ele>
        <time>2013-05-01T11:02:41Z</time>
      </trkpt>
      <trkpt lat="45.52493" lon="5.92537">
        <ele>633.17</ele>
        <time>2013-05-01T11:02:54Z</time>
      </trkpt>
      <trkpt lat="45.52461" lon="5.92525">
        <ele>636.53</ele>
        <time>2013-05-01T11:03:10Z</time>
      </trkpt>
      <trkpt lat="45.52431" lon="5.92523">
        <ele>639.41</ele>
        <time>2013-05-01T11:03:24Z</time>
      </trkpt>
      <trkpt lat="45.52403" lon="5.92525">
        <ele>641.82</ele>
        <time>2013-05-01T11:03:37Z</time>
      </trkpt>
      <trkpt lat="45.52356" lon="5.92524">
        <ele>641.34</ele>
        <time>2013-05-01T11:03:53Z</time>
      </trkpt>
      <trkpt lat="45.52302" lon="5.92522">
        <ele>642.3</ele>
        <time>2013-05-01T11:04:11Z</time>
      </trkpt>
      <trkpt lat="45.52264" lon="5.92521">
        <ele>645.66</ele>
        <time>2013-05-01T11:04:26Z</time>
      </trkpt>
      <trkpt lat="45.52229" lon="5.92493">
        <ele>646.62</ele>
        <time>2013-05-01T11:04:41Z</time>
      </trkpt>
      <trkpt lat="45.52205" lon="5.92455">
        <ele>649.03</ele>
        <time>2013-05-01T11:04:53Z</time>
      </trkpt>
      <trkpt lat="45.52186" lon="5.9243">
        <ele>651.91</ele>
        <time>2013-05-01T11:05:05Z</time>
      </trkpt>
      <trkpt lat="45.52168" lon="5.92411">
        <ele>655.28</ele>
        <time>2013-05-01T11:05:18Z</time>
      </trkpt>
      <trkpt lat="45.52147" lon="5.92398">
        <ele>658.16</ele>
        <time>2013-05-01T11:05:32Z</time>
      </trkpt>
      <trkpt lat="45.52138" lon="5.92393">
        <ele>659.12</ele>
        <time>2013-05-01T11:05:38Z</time>
      </trkpt>
      <trkpt lat="45.52136" lon="5.92394">
        <ele>659.6</ele>
        <time>2013-05-01T11:05:39Z</time>
      </trkpt>
      <trkpt lat="45.52134" lon="5.92394">
        <ele>659.6</ele>
        <time>2013-05-01T11:05:40Z</time>
      </trkpt>
      <trkpt lat="45.52114" lon="5.92386">
        <ele>662.49</ele>
        <time>2013-05-01T11:05:54Z</time>
      </trkpt>
      <trkpt lat="45.52094" lon="5.92387">
        <ele>664.89</ele>
        <time>2013-05-01T11:06:07Z</time>
      </trkpt>
      <trkpt lat="45.52071" lon="5.92385">
        <ele>667.77</ele>
        <time>2013-05-01T11:06:21Z</time>
      </trkpt>
      <trkpt lat="45.52052" lon="5.92381">
        <ele>671.14</ele>
        <time>2013-05-01T11:06:33Z</time>
      </trkpt>
      <trkpt lat="45.52039" lon="5.92381">
        <ele>673.06</ele>
        <time>2013-05-01T11:06:40Z</time>
      </trkpt>
      <trkpt lat="45.52015" lon="5.92379">
        <ele>675.94</ele>
        <time>2013-05-01T11:06:54Z</time>
      </trkpt>
      <trkpt lat="45.51984" lon="5.92376">
        <ele>678.35</ele>
        <time>2013-05-01T11:07:10Z</time>
      </trkpt>
      <trkpt lat="45.51955" lon="5.92375">
        <ele>680.27</ele>
        <time>2013-05-01T11:07:24Z</time>
      </trkpt>
      <trkpt lat="45.51919" lon="5.92381">
        <ele>683.63</ele>
        <time>2013-05-01T11:07:39Z</time>
      </trkpt>
      <trkpt lat="45.51896" lon="5.92394">
        <ele>686.52</ele>
        <time>2013-05-01T11:07:50Z</time>
      </trkpt>
      <trkpt lat="45.51869" lon="5.92399">
        <ele>688.44</ele>
        <time>2013-05-01T11:08:02Z</time>
      </trkpt>
      <trkpt lat="45.51828" lon="5.92401">
        <ele>689.88</ele>
        <time>2013-05-01T11:08:19Z</time>
      </trkpt>
      <trkpt lat="45.51802" lon="5.92404">
        <ele>692.29</ele>
        <time>2013-05-01T11:08:33Z</time>
      </trkpt>
      <trkpt lat="45.51761" lon="5.92398">
        <ele>692.29</ele>
        <time>2013-05-01T11:08:48Z</time>
      </trkpt>
      <trkpt lat="45.51724" lon="5.92385">
        <ele>696.13</ele>
        <time>2013-05-01T11:09:01Z</time>
      </trkpt>
      <trkpt lat="45.51679" lon="5.92345">
        <ele>697.57</ele>
        <time>2013-05-01T11:09:14Z</time>
      </trkpt>
      <trkpt lat="45.51642" lon="5.92308">
        <ele>695.65</ele>
        <time>2013-05-01T11:09:23Z</time>
      </trkpt>
      <trkpt lat="45.51637" lon="5.92304">
        <ele>695.65</ele>
        <time>2013-05-01T11:09:24Z</time>
      </trkpt>
      <trkpt lat="45.5158" lon="5.92227">
        <ele>697.09</ele>
        <time>2013-05-01T11:09:37Z</time>
      </trkpt>
      <trkpt lat="45.51516" lon="5.9218">
        <ele>697.57</ele>
        <time>2013-05-01T11:09:50Z</time>
      </trkpt>
      <trkpt lat="45.51509" lon="5.92179">
        <ele>698.05</ele>
        <time>2013-05-01T11:09:52Z</time>
      </trkpt>
      <trkpt lat="45.51477" lon="5.92169">
        <ele>700.94</ele>
        <time>2013-05-01T11:10:03Z</time>
      </trkpt>
      <trkpt lat="45.51453" lon="5.9214">
        <ele>702.38</ele>
        <time>2013-05-01T11:10:15Z</time>
      </trkpt>
      <trkpt lat="45.51445" lon="5.92091">
        <ele>703.82</ele>
        <time>2013-05-01T11:10:28Z</time>
      </trkpt>
      <trkpt lat="45.51432" lon="5.92062">
        <ele>707.19</ele>
        <time>2013-05-01T11:10:37Z</time>
      </trkpt>
      <trkpt lat="45.5143" lon="5.9206">
        <ele>707.67</ele>
        <time>2013-05-01T11:10:38Z</time>
      </trkpt>
      <trkpt lat="45.51397" lon="5.92032">
        <ele>704.3</ele>
        <time>2013-05-01T11:10:50Z</time>
      </trkpt>
      <trkpt lat="45.51389" lon="5.92022">
        <ele>703.34</ele>
        <time>2013-05-01T11:10:52Z</time>
      </trkpt>
      <trkpt lat="45.51344" lon="5.91935">
        <ele>700.94</ele>
        <time>2013-05-01T11:11:05Z</time>
      </trkpt>
      <trkpt lat="45.51338" lon="5.91918">
        <ele>699.98</ele>
        <time>2013-05-01T11:11:07Z</time>
      </trkpt>
      <trkpt lat="45.51322" lon="5.91844">
        <ele>697.09</ele>
        <time>2013-05-01T11:11:14Z</time>
      </trkpt>
      <trkpt lat="45.51316" lon="5.91785">
        <ele>696.13</ele>
        <time>2013-05-01T11:11:19Z</time>
      </trkpt>
      <trkpt lat="45.51314" lon="5.91774">
        <ele>695.65</ele>
        <time>2013-05-01T11:11:20Z</time>
      </trkpt>
      <trkpt lat="45.51312" lon="5.91764">
        <ele>695.65</ele>
        <time>2013-05-01T11:11:21Z</time>
      </trkpt>
      <trkpt lat="45.51282" lon="5.91683">
        <ele>693.73</ele>
        <time>2013-05-01T11:11:29Z</time>
      </trkpt>
      <trkpt lat="45.51278" lon="5.91674">
        <ele>693.25</ele>
        <time>2013-05-01T11:11:30Z</time>
      </trkpt>
      <trkpt lat="45.51272" lon="5.91665">
        <ele>692.77</ele>
        <time>2013-05-01T11:11:31Z</time>
      </trkpt>
      <trkpt lat="45.51256" lon="5.9164">
        <ele>691.33</ele>
        <time>2013-05-01T11:11:34Z</time>
      </trkpt>
      <trkpt lat="45.51254" lon="5.9163">
        <ele>690.84</ele>
        <time>2013-05-01T11:11:35Z</time>
      </trkpt>
      <trkpt lat="45.51253" lon="5.91619">
        <ele>691.33</ele>
        <time>2013-05-01T11:11:36Z</time>
      </trkpt>
      <trkpt lat="45.51255" lon="5.91609">
        <ele>690.84</ele>
        <time>2013-05-01T11:11:37Z</time>
      </trkpt>
      <trkpt lat="45.51258" lon="5.91599">
        <ele>690.84</ele>
        <time>2013-05-01T11:11:38Z</time>
      </trkpt>
      <trkpt lat="45.51263" lon="5.91591">
        <ele>690.36</ele>
        <time>2013-05-01T11:11:39Z</time>
      </trkpt>
      <trkpt lat="45.51271" lon="5.91587">
        <ele>689.88</ele>
        <time>2013-05-01T11:11:40Z</time>
      </trkpt>
      <trkpt lat="45.51278" lon="5.91586">
        <ele>689.88</ele>
        <time>2013-05-01T11:11:41Z</time>
      </trkpt>
      <trkpt lat="45.51286" lon="5.91585">
        <ele>689.4</ele>
        <time>2013-05-01T11:11:42Z</time>
      </trkpt>
      <trkpt lat="45.51293" lon="5.91586">
        <ele>689.4</ele>
        <time>2013-05-01T11:11:43Z</time>
      </trkpt>
      <trkpt lat="45.513" lon="5.91588">
        <ele>688.44</ele>
        <time>2013-05-01T11:11:44Z</time>
      </trkpt>
      <trkpt lat="45.51307" lon="5.9159">
        <ele>688.44</ele>
        <time>2013-05-01T11:11:45Z</time>
      </trkpt>
      <trkpt lat="45.51355" lon="5.91606">
        <ele>685.08</ele>
        <time>2013-05-01T11:11:52Z</time>
      </trkpt>
      <trkpt lat="45.51387" lon="5.91619">
        <ele>683.15</ele>
        <time>2013-05-01T11:11:57Z</time>
      </trkpt>
      <trkpt lat="45.51393" lon="5.91623">
        <ele>682.67</ele>
        <time>2013-05-01T11:11:58Z</time>
      </trkpt>
      <trkpt lat="45.51455" lon="5.91659">
        <ele>680.27</ele>
        <time>2013-05-01T11:12:08Z</time>
      </trkpt>
      <trkpt lat="45.51462" lon="5.91659">
        <ele>679.79</ele>
        <time>2013-05-01T11:12:09Z</time>
      </trkpt>
      <trkpt lat="45.51469" lon="5.91657">
        <ele>679.79</ele>
        <time>2013-05-01T11:12:10Z</time>
      </trkpt>
      <trkpt lat="45.51476" lon="5.91653">
        <ele>679.31</ele>
        <time>2013-05-01T11:12:11Z</time>
      </trkpt>
      <trkpt lat="45.51484" lon="5.91648">
        <ele>677.87</ele>
        <time>2013-05-01T11:12:12Z</time>
      </trkpt>
      <trkpt lat="45.5149" lon="5.91642">
        <ele>677.39</ele>
        <time>2013-05-01T11:12:13Z</time>
      </trkpt>
      <trkpt lat="45.51511" lon="5.91625">
        <ele>675.94</ele>
        <time>2013-05-01T11:12:16Z</time>
      </trkpt>
      <trkpt lat="45.51519" lon="5.9162">
        <ele>676.42</ele>
        <time>2013-05-01T11:12:17Z</time>
      </trkpt>
      <trkpt lat="45.51527" lon="5.91617">
        <ele>676.42</ele>
        <time>2013-05-01T11:12:18Z</time>
      </trkpt>
      <trkpt lat="45.51535" lon="5.91614">
        <ele>675.94</ele>
        <time>2013-05-01T11:12:19Z</time>
      </trkpt>
      <trkpt lat="45.51543" lon="5.91613">
        <ele>675.46</ele>
        <time>2013-05-01T11:12:20Z</time>
      </trkpt>
      <trkpt lat="45.51551" lon="5.91613">
        <ele>675.46</ele>
        <time>2013-05-01T11:12:21Z</time>
      </trkpt>
      <trkpt lat="45.51559" lon="5.91614">
        <ele>674.02</ele>
        <time>2013-05-01T11:12:22Z</time>
      </trkpt>
      <trkpt lat="45.51568" lon="5.91615">
        <ele>674.02</ele>
        <time>2013-05-01T11:12:23Z</time>
      </trkpt>
      <trkpt lat="45.51635" lon="5.91623">
        <ele>671.14</ele>
        <time>2013-05-01T11:12:31Z</time>
      </trkpt>
      <trkpt lat="45.5168" lon="5.91613">
        <ele>668.25</ele>
        <time>2013-05-01T11:12:36Z</time>
      </trkpt>
      <trkpt lat="45.51719" lon="5.91603">
        <ele>665.37</ele>
        <time>2013-05-01T11:12:40Z</time>
      </trkpt>
      <trkpt lat="45.51737" lon="5.91597">
        <ele>664.41</ele>
        <time>2013-05-01T11:12:42Z</time>
      </trkpt>
      <trkpt lat="45.51789" lon="5.91565">
        <ele>661.52</ele>
        <time>2013-05-01T11:12:48Z</time>
      </trkpt>
      <trkpt lat="45.51829" lon="5.91537">
        <ele>660.08</ele>
        <time>2013-05-01T11:12:53Z</time>
      </trkpt>
      <trkpt lat="45.51838" lon="5.91534">
        <ele>659.12</ele>
        <time>2013-05-01T11:12:54Z</time>
      </trkpt>
      <trkpt lat="45.51847" lon="5.91532">
        <ele>659.12</ele>
        <time>2013-05-01T11:12:55Z</time>
      </trkpt>
      <trkpt lat="45.51912" lon="5.91517">
        <ele>655.28</ele>
        <time>2013-05-01T11:13:03Z</time>
      </trkpt>
      <trkpt lat="45.51982" lon="5.91507">
        <ele>652.39</ele>
        <time>2013-05-01T11:13:12Z</time>
      </trkpt>
      <trkpt lat="45.5206" lon="5.91501">
        <ele>649.03</ele>
        <time>2013-05-01T11:13:22Z</time>
      </trkpt>
      <trkpt lat="45.52075" lon="5.91499">
        <ele>648.07</ele>
        <time>2013-05-01T11:13:24Z</time>
      </trkpt>
      <trkpt lat="45.52097" lon="5.91494">
        <ele>646.62</ele>
        <time>2013-05-01T11:13:27Z</time>
      </trkpt>
      <trkpt lat="45.52105" lon="5.9149">
        <ele>646.14</ele>
        <time>2013-05-01T11:13:28Z</time>
      </trkpt>
      <trkpt lat="45.52111" lon="5.91485">
        <ele>645.66</ele>
        <time>2013-05-01T11:13:29Z</time>
      </trkpt>
      <trkpt lat="45.52124" lon="5.91475">
        <ele>644.22</ele>
        <time>2013-05-01T11:13:31Z</time>
      </trkpt>
      <trkpt lat="45.52162" lon="5.91454">
        <ele>643.74</ele>
        <time>2013-05-01T11:13:37Z</time>
      </trkpt>
      <trkpt lat="45.52169" lon="5.91453">
        <ele>643.74</ele>
        <time>2013-05-01T11:13:38Z</time>
      </trkpt>
      <trkpt lat="45.52176" lon="5.91452">
        <ele>643.74</ele>
        <time>2013-05-01T11:13:39Z</time>
      </trkpt>
      <trkpt lat="45.52183" lon="5.91454">
        <ele>643.26</ele>
        <time>2013-05-01T11:13:40Z</time>
      </trkpt>
      <trkpt lat="45.5219" lon="5.91455">
        <ele>642.78</ele>
        <time>2013-05-01T11:13:41Z</time>
      </trkpt>
      <trkpt lat="45.52197" lon="5.91455">
        <ele>642.3</ele>
        <time>2013-05-01T11:13:42Z</time>
      </trkpt>
      <trkpt lat="45.52204" lon="5.91453">
        <ele>642.3</ele>
        <time>2013-05-01T11:13:43Z</time>
      </trkpt>
      <trkpt lat="45.52211" lon="5.91449">
        <ele>642.3</ele>
        <time>2013-05-01T11:13:44Z</time>
      </trkpt>
      <trkpt lat="45.52218" lon="5.91442">
        <ele>641.34</ele>
        <time>2013-05-01T11:13:45Z</time>
      </trkpt>
      <trkpt lat="45.52223" lon="5.91435">
        <ele>641.34</ele>
        <time>2013-05-01T11:13:46Z</time>
      </trkpt>
      <trkpt lat="45.52238" lon="5.91412">
        <ele>641.34</ele>
        <time>2013-05-01T11:13:49Z</time>
      </trkpt>
      <trkpt lat="45.52242" lon="5.91405">
        <ele>641.82</ele>
        <time>2013-05-01T11:13:50Z</time>
      </trkpt>
      <trkpt lat="45.52244" lon="5.91397">
        <ele>642.3</ele>
        <time>2013-05-01T11:13:51Z</time>
      </trkpt>
      <trkpt lat="45.52246" lon="5.9139">
        <ele>642.3</ele>
        <time>2013-05-01T11:13:52Z</time>
      </trkpt>
      <trkpt lat="45.52257" lon="5.9135">
        <ele>645.66</ele>
        <time>2013-05-01T11:14:03Z</time>
      </trkpt>
      <trkpt lat="45.52277" lon="5.91331">
        <ele>649.03</ele>
        <time>2013-05-01T11:14:14Z</time>
      </trkpt>
      <trkpt lat="45.52304" lon="5.91326">
        <ele>650.95</ele>
        <time>2013-05-01T11:14:27Z</time>
      </trkpt>
      <trkpt lat="45.52332" lon="5.91296">
        <ele>653.83</ele>
        <time>2013-05-01T11:14:43Z</time>
      </trkpt>
      <trkpt lat="45.52343" lon="5.91254">
        <ele>655.28</ele>
        <time>2013-05-01T11:14:57Z</time>
      </trkpt>
      <trkpt lat="45.52334" lon="5.9123">
        <ele>657.68</ele>
        <time>2013-05-01T11:15:08Z</time>
      </trkpt>
      <trkpt lat="45.52319" lon="5.91212">
        <ele>660.08</ele>
        <time>2013-05-01T11:15:21Z</time>
      </trkpt>
      <trkpt lat="45.52312" lon="5.91218">
        <ele>661.52</ele>
        <time>2013-05-01T11:15:26Z</time>
      </trkpt>
      <trkpt lat="45.52311" lon="5.91223">
        <ele>662.49</ele>
        <time>2013-05-01T11:15:29Z</time>
      </trkpt>
      <trkpt lat="45.52308" lon="5.91227">
        <ele>662.97</ele>
        <time>2013-05-01T11:15:32Z</time>
      </trkpt>
      <trkpt lat="45.52306" lon="5.91228">
        <ele>663.45</ele>
        <time>2013-05-01T11:15:33Z</time>
      </trkpt>
      <trkpt lat="45.52305" lon="5.91229">
        <ele>663.93</ele>
        <time>2013-05-01T11:15:34Z</time>
      </trkpt>
      <trkpt lat="45.52303" lon="5.9123">
        <ele>663.93</ele>
        <time>2013-05-01T11:15:35Z</time>
      </trkpt>
      <trkpt lat="45.52302" lon="5.9123">
        <ele>663.93</ele>
        <time>2013-05-01T11:15:36Z</time>
      </trkpt>
      <trkpt lat="45.52301" lon="5.9123">
        <ele>664.41</ele>
        <time>2013-05-01T11:15:37Z</time>
      </trkpt>
      <trkpt lat="45.523" lon="5.91229">
        <ele>664.41</ele>
        <time>2013-05-01T11:15:38Z</time>
      </trkpt>
      <trkpt lat="45.52298" lon="5.91229">
        <ele>664.89</ele>
        <time>2013-05-01T11:15:39Z</time>
      </trkpt>
      <trkpt lat="45.52297" lon="5.91229">
        <ele>664.89</ele>
        <time>2013-05-01T11:15:40Z</time>
      </trkpt>
      <trkpt lat="45.52296" lon="5.91228">
        <ele>665.85</ele>
        <time>2013-05-01T11:15:41Z</time>
      </trkpt>
      <trkpt lat="45.52295" lon="5.91227">
        <ele>665.85</ele>
        <time>2013-05-01T11:15:42Z</time>
      </trkpt>
      <trkpt lat="45.52294" lon="5.91225">
        <ele>666.33</ele>
        <time>2013-05-01T11:15:43Z</time>
      </trkpt>
      <trkpt lat="45.52293" lon="5.91223">
        <ele>666.81</ele>
        <time>2013-05-01T11:15:44Z</time>
      </trkpt>
      <trkpt lat="45.52292" lon="5.9122">
        <ele>666.81</ele>
        <time>2013-05-01T11:15:45Z</time>
      </trkpt>
      <trkpt lat="45.52292" lon="5.91218">
        <ele>666.81</ele>
        <time>2013-05-01T11:15:46Z</time>
      </trkpt>
      <trkpt lat="45.52292" lon="5.91215">
        <ele>667.77</ele>
        <time>2013-05-01T11:15:47Z</time>
      </trkpt>
      <trkpt lat="45.52291" lon="5.91213">
        <ele>667.77</ele>
        <time>2013-05-01T11:15:48Z</time>
      </trkpt>
      <trkpt lat="45.5229" lon="5.91211">
        <ele>667.77</ele>
        <time>2013-05-01T11:15:49Z</time>
      </trkpt>
      <trkpt lat="45.52286" lon="5.91188">
        <ele>671.14</ele>
        <time>2013-05-01T11:16:00Z</time>
      </trkpt>
      <trkpt lat="45.52281" lon="5.91152">
        <ele>673.06</ele>
        <time>2013-05-01T11:16:16Z</time>
      </trkpt>
      <trkpt lat="45.52284" lon="5.91118">
        <ele>675.94</ele>
        <time>2013-05-01T11:16:31Z</time>
      </trkpt>
      <trkpt lat="45.52287" lon="5.91089">
        <ele>679.31</ele>
        <time>2013-05-01T11:16:43Z</time>
      </trkpt>
      <trkpt lat="45.523" lon="5.91066">
        <ele>681.71</ele>
        <time>2013-05-01T11:16:55Z</time>
      </trkpt>
      <trkpt lat="45.52319" lon="5.91038">
        <ele>685.08</ele>
        <time>2013-05-01T11:17:10Z</time>
      </trkpt>
      <trkpt lat="45.52338" lon="5.91008">
        <ele>688.44</ele>
        <time>2013-05-01T11:17:27Z</time>
      </trkpt>
      <trkpt lat="45.52358" lon="5.90991">
        <ele>691.33</ele>
        <time>2013-05-01T11:17:42Z</time>
      </trkpt>
      <trkpt lat="45.52367" lon="5.90989">
        <ele>692.77</ele>
        <time>2013-05-01T11:17:49Z</time>
      </trkpt>
      <trkpt lat="45.52369" lon="5.90989">
        <ele>692.77</ele>
        <time>2013-05-01T11:17:50Z</time>
      </trkpt>
      <trkpt lat="45.5237" lon="5.90989">
        <ele>693.25</ele>
        <time>2013-05-01T11:17:51Z</time>
      </trkpt>
      <trkpt lat="45.52371" lon="5.90988">
        <ele>693.73</ele>
        <time>2013-05-01T11:17:52Z</time>
      </trkpt>
      <trkpt lat="45.52372" lon="5.90988">
        <ele>693.25</ele>
        <time>2013-05-01T11:17:53Z</time>
      </trkpt>
      <trkpt lat="45.52375" lon="5.90988">
        <ele>694.21</ele>
        <time>2013-05-01T11:17:55Z</time>
      </trkpt>
      <trkpt lat="45.52377" lon="5.90988">
        <ele>694.21</ele>
        <time>2013-05-01T11:17:56Z</time>
      </trkpt>
      <trkpt lat="45.52379" lon="5.90988">
        <ele>695.17</ele>
        <time>2013-05-01T11:17:57Z</time>
      </trkpt>
      <trkpt lat="45.5238" lon="5.90987">
        <ele>694.69</ele>
        <time>2013-05-01T11:17:58Z</time>
      </trkpt>
      <trkpt lat="45.52381" lon="5.90986">
        <ele>694.69</ele>
        <time>2013-05-01T11:17:59Z</time>
      </trkpt>
      <trkpt lat="45.52382" lon="5.90983">
        <ele>695.17</ele>
        <time>2013-05-01T11:18:00Z</time>
      </trkpt>
      <trkpt lat="45.52382" lon="5.90981">
        <ele>695.17</ele>
        <time>2013-05-01T11:18:01Z</time>
      </trkpt>
      <trkpt lat="45.52382" lon="5.90978">
        <ele>694.69</ele>
        <time>2013-05-01T11:18:02Z</time>
      </trkpt>
      <trkpt lat="45.52382" lon="5.90976">
        <ele>695.17</ele>
        <time>2013-05-01T11:18:03Z</time>
      </trkpt>
      <trkpt lat="45.52382" lon="5.90974">
        <ele>695.17</ele>
        <time>2013-05-01T11:18:04Z</time>
      </trkpt>
      <trkpt lat="45.5238" lon="5.90972">
        <ele>695.65</ele>
        <time>2013-05-01T11:18:05Z</time>
      </trkpt>
      <trkpt lat="45.5238" lon="5.90971">
        <ele>695.17</ele>
        <time>2013-05-01T11:18:06Z</time>
      </trkpt>
      <trkpt lat="45.52379" lon="5.90969">
        <ele>695.65</ele>
        <time>2013-05-01T11:18:07Z</time>
      </trkpt>
      <trkpt lat="45.52373" lon="5.90951">
        <ele>699.02</ele>
        <time>2013-05-01T11:18:17Z</time>
      </trkpt>
      <trkpt lat="45.52372" lon="5.9095">
        <ele>699.02</ele>
        <time>2013-05-01T11:18:18Z</time>
      </trkpt>
      <trkpt lat="45.52371" lon="5.9095">
        <ele>699.5</ele>
        <time>2013-05-01T11:18:19Z</time>
      </trkpt>
      <trkpt lat="45.5237" lon="5.90949">
        <ele>699.98</ele>
        <time>2013-05-01T11:18:20Z</time>
      </trkpt>
      <trkpt lat="45.52369" lon="5.90948">
        <ele>699.98</ele>
        <time>2013-05-01T11:18:21Z</time>
      </trkpt>
      <trkpt lat="45.52368" lon="5.90946">
        <ele>699.98</ele>
        <time>2013-05-01T11:18:22Z</time>
      </trkpt>
      <trkpt lat="45.52367" lon="5.90944">
        <ele>700.46</ele>
        <time>2013-05-01T11:18:23Z</time>
      </trkpt>
      <trkpt lat="45.52366" lon="5.90942">
        <ele>699.98</ele>
        <time>2013-05-01T11:18:24Z</time>
      </trkpt>
      <trkpt lat="45.52366" lon="5.9094">
        <ele>700.46</ele>
        <time>2013-05-01T11:18:25Z</time>
      </trkpt>
      <trkpt lat="45.52364" lon="5.90939">
        <ele>700.94</ele>
        <time>2013-05-01T11:18:26Z</time>
      </trkpt>
      <trkpt lat="45.52353" lon="5.90918">
        <ele>704.3</ele>
        <time>2013-05-01T11:18:38Z</time>
      </trkpt>
      <trkpt lat="45.52342" lon="5.9089">
        <ele>706.71</ele>
        <time>2013-05-01T11:18:52Z</time>
      </trkpt>
      <trkpt lat="45.52332" lon="5.9087">
        <ele>709.59</ele>
        <time>2013-05-01T11:19:03Z</time>
      </trkpt>
      <trkpt lat="45.52322" lon="5.90843">
        <ele>712.47</ele>
        <time>2013-05-01T11:19:16Z</time>
      </trkpt>
      <trkpt lat="45.52315" lon="5.90823">
        <ele>714.88</ele>
        <time>2013-05-01T11:19:25Z</time>
      </trkpt>
      <trkpt lat="45.52314" lon="5.90819">
        <ele>714.88</ele>
        <time>2013-05-01T11:19:39Z</time>
      </trkpt>
    </trkseg>
  </trk>
</gpx>